<?xml version="1.0" encoding="UTF-8" standalone="no" ?>
<gpx xmlns="http://www.topografix.com/GPX/1/1" xmlns:xsi="http://www.w3.org/2001/XMLSchema-instance" xsi:schemaLocation="http://www.topografix.com/GPX/1/1 http://www.topografix.com/GPX/1/1/gpx.xsd" version="1.1" creator="VisuGPX - https://www.visugpx.com">
  <metadata>
    <name>CCFM 344</name>
    <desc><![CDATA[✒️CS.Mons, Lexhy, Roloux, Fexhe, Kemexhe, Fize-le-Marsal, Crisnée, Thys, Otrange, Vechmaal, Hopmaal, Heers, Opheers, [b]OLEYE[/b] , Lamine, Momalle, Fexhe, Voroux-Goreux, Velroux, Lexhy, Mons]]></desc>
  </metadata>
  <wpt lat="50.71019" lon="5.27837">
    <ele>109</ele>
    <name><![CDATA[Les Ecuyers]]></name>
    <desc><![CDATA[Oleye.]]></desc>
  </wpt>
  <trk>
    <name><![CDATA[CCFM 344]]></name>
    <extensions>
      <line xmlns="http://www.topografix.com/GPX/gpx_style/0/2">
        <color>0000FF</color>
        <width>4</width>
          <extensions>
            <sens>1</sens>
          </extensions>
      </line>
    </extensions>
    <trkseg>
      <trkpt lat="50.62327" lon="5.44844">
        <ele>190.5</ele>
        <time>2022-01-16T08:31:35.000Z</time>
        <extensions>
          <visugpx:TrkExtension xmlns:visugpx="https://www.visugpx.com/editgpx/">
            <visugpx:node>2</visugpx:node>
            </visugpx:TrkExtension>
        </extensions>
      </trkpt>
      <trkpt lat="50.6234" lon="5.44745">
        <ele>191.2</ele>
        <time>2022-01-16T08:31:37.000Z</time>
      </trkpt>
      <trkpt lat="50.62346" lon="5.44693">
        <ele>192</ele>
        <time>2022-01-16T08:31:45.000Z</time>
      </trkpt>
      <trkpt lat="50.62355" lon="5.44616">
        <ele>188.39999389648</ele>
        <time>2022-01-16T08:31:56.000Z</time>
      </trkpt>
      <trkpt lat="50.62357" lon="5.44572">
        <ele>188.39999389648</ele>
        <time>2022-01-16T08:32:02.000Z</time>
      </trkpt>
      <trkpt lat="50.62358" lon="5.44564">
        <ele>188.19999694824</ele>
        <time>2022-01-16T08:32:03.000Z</time>
      </trkpt>
      <trkpt lat="50.62358" lon="5.44534">
        <ele>188.19999694824</ele>
        <time>2022-01-16T08:32:07.000Z</time>
      </trkpt>
      <trkpt lat="50.62357" lon="5.44495">
        <ele>188.19999694824</ele>
        <time>2022-01-16T08:32:12.000Z</time>
      </trkpt>
      <trkpt lat="50.62356" lon="5.44472">
        <ele>187.80000305176</ele>
        <time>2022-01-16T08:32:15.000Z</time>
      </trkpt>
      <trkpt lat="50.62349" lon="5.44399">
        <ele>187.60000610352</ele>
        <time>2022-01-16T08:32:24.000Z</time>
      </trkpt>
      <trkpt lat="50.62347" lon="5.44382">
        <ele>187.39999389648</ele>
        <time>2022-01-16T08:32:26.000Z</time>
      </trkpt>
      <trkpt lat="50.62343" lon="5.44357">
        <ele>187</ele>
        <time>2022-01-16T08:32:29.000Z</time>
      </trkpt>
      <trkpt lat="50.62336" lon="5.44315">
        <ele>186.19999694824</ele>
        <time>2022-01-16T08:32:34.000Z</time>
      </trkpt>
      <trkpt lat="50.62335" lon="5.44307">
        <ele>186.19999694824</ele>
        <time>2022-01-16T08:32:35.000Z</time>
      </trkpt>
      <trkpt lat="50.62331" lon="5.44291">
        <ele>185.80000305176</ele>
        <time>2022-01-16T08:32:37.000Z</time>
      </trkpt>
      <trkpt lat="50.62314" lon="5.44219">
        <ele>184.39999389648</ele>
        <time>2022-01-16T08:32:46.000Z</time>
      </trkpt>
      <trkpt lat="50.62312" lon="5.44211">
        <ele>184.19999694824</ele>
        <time>2022-01-16T08:32:47.000Z</time>
      </trkpt>
      <trkpt lat="50.62306" lon="5.44179">
        <ele>184</ele>
        <time>2022-01-16T08:32:51.000Z</time>
      </trkpt>
      <trkpt lat="50.62306" lon="5.44161">
        <ele>184</ele>
        <time>2022-01-16T08:32:53.000Z</time>
      </trkpt>
      <trkpt lat="50.62307" lon="5.44153">
        <ele>183.80000305176</ele>
        <time>2022-01-16T08:32:54.000Z</time>
      </trkpt>
      <trkpt lat="50.62308" lon="5.44144">
        <ele>183.60000610352</ele>
        <time>2022-01-16T08:32:55.000Z</time>
      </trkpt>
      <trkpt lat="50.62311" lon="5.44128">
        <ele>183.39999389648</ele>
        <time>2022-01-16T08:32:57.000Z</time>
      </trkpt>
      <trkpt lat="50.62317" lon="5.44113">
        <ele>183.19999694824</ele>
        <time>2022-01-16T08:32:59.000Z</time>
      </trkpt>
      <trkpt lat="50.62342" lon="5.44066">
        <ele>182.39999389648</ele>
        <time>2022-01-16T08:33:06.000Z</time>
      </trkpt>
      <trkpt lat="50.62369" lon="5.44016">
        <ele>181.80000305176</ele>
        <time>2022-01-16T08:33:14.000Z</time>
      </trkpt>
      <trkpt lat="50.62372" lon="5.44009">
        <ele>181.80000305176</ele>
        <time>2022-01-16T08:33:15.000Z</time>
      </trkpt>
      <trkpt lat="50.62375" lon="5.43994">
        <ele>182</ele>
        <time>2022-01-16T08:33:17.000Z</time>
      </trkpt>
      <trkpt lat="50.62375" lon="5.43986">
        <ele>181.80000305176</ele>
        <time>2022-01-16T08:33:18.000Z</time>
      </trkpt>
      <trkpt lat="50.62374" lon="5.43978">
        <ele>182</ele>
        <time>2022-01-16T08:33:19.000Z</time>
      </trkpt>
      <trkpt lat="50.6237" lon="5.43945">
        <ele>181.80000305176</ele>
        <time>2022-01-16T08:33:23.000Z</time>
      </trkpt>
      <trkpt lat="50.62368" lon="5.43937">
        <ele>181.80000305176</ele>
        <time>2022-01-16T08:33:24.000Z</time>
      </trkpt>
      <trkpt lat="50.62354" lon="5.43869">
        <ele>181.19999694824</ele>
        <time>2022-01-16T08:33:32.000Z</time>
      </trkpt>
      <trkpt lat="50.62352" lon="5.43861">
        <ele>181</ele>
        <time>2022-01-16T08:33:33.000Z</time>
      </trkpt>
      <trkpt lat="50.62331" lon="5.43774">
        <ele>179.60000610352</ele>
        <time>2022-01-16T08:33:43.000Z</time>
      </trkpt>
      <trkpt lat="50.62329" lon="5.43765">
        <ele>179.39999389648</ele>
        <time>2022-01-16T08:33:44.000Z</time>
      </trkpt>
      <trkpt lat="50.6231" lon="5.43715">
        <ele>179</ele>
        <time>2022-01-16T08:33:51.000Z</time>
      </trkpt>
      <trkpt lat="50.62307" lon="5.43708">
        <ele>179</ele>
        <time>2022-01-16T08:33:52.000Z</time>
      </trkpt>
      <trkpt lat="50.62299" lon="5.43689">
        <ele>179</ele>
        <time>2022-01-16T08:33:55.000Z</time>
      </trkpt>
      <trkpt lat="50.62294" lon="5.43675">
        <ele>179</ele>
        <time>2022-01-16T08:33:57.000Z</time>
      </trkpt>
      <trkpt lat="50.62274" lon="5.43622">
        <ele>180.80000305176</ele>
        <time>2022-01-16T08:34:05.000Z</time>
      </trkpt>
      <trkpt lat="50.62271" lon="5.43616">
        <ele>181</ele>
        <time>2022-01-16T08:34:06.000Z</time>
      </trkpt>
      <trkpt lat="50.62264" lon="5.43598">
        <ele>181.19999694824</ele>
        <time>2022-01-16T08:34:09.000Z</time>
      </trkpt>
      <trkpt lat="50.62252" lon="5.43567">
        <ele>182</ele>
        <time>2022-01-16T08:34:14.000Z</time>
      </trkpt>
      <trkpt lat="50.6225" lon="5.43561">
        <ele>182</ele>
        <time>2022-01-16T08:34:15.000Z</time>
      </trkpt>
      <trkpt lat="50.6224" lon="5.4353">
        <ele>183.80000305176</ele>
        <time>2022-01-16T08:34:20.000Z</time>
      </trkpt>
      <trkpt lat="50.62237" lon="5.43518">
        <ele>183.80000305176</ele>
        <time>2022-01-16T08:34:22.000Z</time>
      </trkpt>
      <trkpt lat="50.62233" lon="5.43492">
        <ele>184.19999694824</ele>
        <time>2022-01-16T08:34:27.000Z</time>
      </trkpt>
      <trkpt lat="50.62232" lon="5.43487">
        <ele>184.80000305176</ele>
        <time>2022-01-16T08:34:28.000Z</time>
      </trkpt>
      <trkpt lat="50.62224" lon="5.43469">
        <ele>185.60000610352</ele>
        <time>2022-01-16T08:34:32.000Z</time>
      </trkpt>
      <trkpt lat="50.62217" lon="5.43461">
        <ele>185.80000305176</ele>
        <time>2022-01-16T08:34:34.000Z</time>
      </trkpt>
      <trkpt lat="50.62209" lon="5.43451">
        <ele>186</ele>
        <time>2022-01-16T08:34:36.000Z</time>
      </trkpt>
      <trkpt lat="50.62206" lon="5.43445">
        <ele>186.19999694824</ele>
        <time>2022-01-16T08:34:37.000Z</time>
      </trkpt>
      <trkpt lat="50.62201" lon="5.43431">
        <ele>186</ele>
        <time>2022-01-16T08:34:39.000Z</time>
      </trkpt>
      <trkpt lat="50.62194" lon="5.43411">
        <ele>186.19999694824</ele>
        <time>2022-01-16T08:34:42.000Z</time>
      </trkpt>
      <trkpt lat="50.62182" lon="5.43378">
        <ele>186.39999389648</ele>
        <time>2022-01-16T08:34:47.000Z</time>
      </trkpt>
      <trkpt lat="50.6218" lon="5.43372">
        <ele>186.60000610352</ele>
        <time>2022-01-16T08:34:48.000Z</time>
      </trkpt>
      <trkpt lat="50.62161" lon="5.43321">
        <ele>187.39999389648</ele>
        <time>2022-01-16T08:34:56.000Z</time>
      </trkpt>
      <trkpt lat="50.62159" lon="5.43315">
        <ele>187.60000610352</ele>
        <time>2022-01-16T08:34:57.000Z</time>
      </trkpt>
      <trkpt lat="50.62151" lon="5.43299">
        <ele>188</ele>
        <time>2022-01-16T08:35:00.000Z</time>
      </trkpt>
      <trkpt lat="50.62148" lon="5.43294">
        <ele>188</ele>
        <time>2022-01-16T08:35:01.000Z</time>
      </trkpt>
      <trkpt lat="50.6214" lon="5.43285">
        <ele>188</ele>
        <time>2022-01-16T08:35:03.000Z</time>
      </trkpt>
      <trkpt lat="50.62122" lon="5.43266">
        <ele>189.39999389648</ele>
        <time>2022-01-16T08:35:08.000Z</time>
      </trkpt>
      <trkpt lat="50.6211" lon="5.43255">
        <ele>190</ele>
        <time>2022-01-16T08:35:11.000Z</time>
      </trkpt>
      <trkpt lat="50.62106" lon="5.43251">
        <ele>189.80000305176</ele>
        <time>2022-01-16T08:35:12.000Z</time>
      </trkpt>
      <trkpt lat="50.62089" lon="5.43233">
        <ele>190</ele>
        <time>2022-01-16T08:35:16.000Z</time>
      </trkpt>
      <trkpt lat="50.6208" lon="5.43223">
        <ele>190</ele>
        <time>2022-01-16T08:35:18.000Z</time>
      </trkpt>
      <trkpt lat="50.62075" lon="5.43217">
        <ele>190</ele>
        <time>2022-01-16T08:35:19.000Z</time>
      </trkpt>
      <trkpt lat="50.62047" lon="5.43185">
        <ele>189.19999694824</ele>
        <time>2022-01-16T08:35:25.000Z</time>
      </trkpt>
      <trkpt lat="50.62019" lon="5.43164">
        <ele>188</ele>
        <time>2022-01-16T08:35:31.000Z</time>
      </trkpt>
      <trkpt lat="50.6201" lon="5.43159">
        <ele>187.80000305176</ele>
        <time>2022-01-16T08:35:33.000Z</time>
      </trkpt>
      <trkpt lat="50.61983" lon="5.43144">
        <ele>188</ele>
        <time>2022-01-16T08:35:39.000Z</time>
      </trkpt>
      <trkpt lat="50.61953" lon="5.4311">
        <ele>188.19999694824</ele>
        <time>2022-01-16T08:35:46.000Z</time>
      </trkpt>
      <trkpt lat="50.61912" lon="5.43052">
        <ele>187.60000610352</ele>
        <time>2022-01-16T08:35:56.000Z</time>
      </trkpt>
      <trkpt lat="50.619" lon="5.43035">
        <ele>187.39999389648</ele>
        <time>2022-01-16T08:35:59.000Z</time>
      </trkpt>
      <trkpt lat="50.61877" lon="5.43002">
        <ele>187</ele>
        <time>2022-01-16T08:36:05.000Z</time>
      </trkpt>
      <trkpt lat="50.61869" lon="5.42992">
        <ele>187</ele>
        <time>2022-01-16T08:36:07.000Z</time>
      </trkpt>
      <trkpt lat="50.61832" lon="5.42945">
        <ele>188.19999694824</ele>
        <time>2022-01-16T08:36:16.000Z</time>
      </trkpt>
      <trkpt lat="50.61818" lon="5.42931">
        <ele>188.19999694824</ele>
        <time>2022-01-16T08:36:19.000Z</time>
      </trkpt>
      <trkpt lat="50.61803" lon="5.42918">
        <ele>188.39999389648</ele>
        <time>2022-01-16T08:36:22.000Z</time>
      </trkpt>
      <trkpt lat="50.61794" lon="5.42908">
        <ele>188.39999389648</ele>
        <time>2022-01-16T08:36:24.000Z</time>
      </trkpt>
      <trkpt lat="50.61785" lon="5.42895">
        <ele>188.19999694824</ele>
        <time>2022-01-16T08:36:26.000Z</time>
      </trkpt>
      <trkpt lat="50.61781" lon="5.42888">
        <ele>188.19999694824</ele>
        <time>2022-01-16T08:36:27.000Z</time>
      </trkpt>
      <trkpt lat="50.61777" lon="5.4288">
        <ele>187.80000305176</ele>
        <time>2022-01-16T08:36:28.000Z</time>
      </trkpt>
      <trkpt lat="50.61775" lon="5.42872">
        <ele>187.60000610352</ele>
        <time>2022-01-16T08:36:29.000Z</time>
      </trkpt>
      <trkpt lat="50.61773" lon="5.42862">
        <ele>187.19999694824</ele>
        <time>2022-01-16T08:36:30.000Z</time>
      </trkpt>
      <trkpt lat="50.61773" lon="5.42843">
        <ele>186.60000610352</ele>
        <time>2022-01-16T08:36:32.000Z</time>
      </trkpt>
      <trkpt lat="50.61778" lon="5.42824">
        <ele>186.19999694824</ele>
        <time>2022-01-16T08:36:34.000Z</time>
      </trkpt>
      <trkpt lat="50.61785" lon="5.42806">
        <ele>185.39999389648</ele>
        <time>2022-01-16T08:36:36.000Z</time>
      </trkpt>
      <trkpt lat="50.61789" lon="5.42797">
        <ele>185</ele>
        <time>2022-01-16T08:36:37.000Z</time>
      </trkpt>
      <trkpt lat="50.61803" lon="5.42759">
        <ele>183.19999694824</ele>
        <time>2022-01-16T08:36:41.000Z</time>
      </trkpt>
      <trkpt lat="50.61806" lon="5.42749">
        <ele>183</ele>
        <time>2022-01-16T08:36:42.000Z</time>
      </trkpt>
      <trkpt lat="50.61817" lon="5.42684">
        <ele>182</ele>
        <time>2022-01-16T08:36:49.000Z</time>
      </trkpt>
      <trkpt lat="50.61818" lon="5.42676">
        <ele>181.80000305176</ele>
        <time>2022-01-16T08:36:50.000Z</time>
      </trkpt>
      <trkpt lat="50.61821" lon="5.42653">
        <ele>182</ele>
        <time>2022-01-16T08:36:53.000Z</time>
      </trkpt>
      <trkpt lat="50.61821" lon="5.42645">
        <ele>181.80000305176</ele>
        <time>2022-01-16T08:36:54.000Z</time>
      </trkpt>
      <trkpt lat="50.61821" lon="5.4263">
        <ele>182</ele>
        <time>2022-01-16T08:36:56.000Z</time>
      </trkpt>
      <trkpt lat="50.61821" lon="5.42622">
        <ele>182</ele>
        <time>2022-01-16T08:36:57.000Z</time>
      </trkpt>
      <trkpt lat="50.61818" lon="5.42601">
        <ele>182.39999389648</ele>
        <time>2022-01-16T08:37:00.000Z</time>
        <extensions>
          <visugpx:TrkExtension xmlns:visugpx="https://www.visugpx.com/editgpx/">
            <visugpx:node>4</visugpx:node>
            </visugpx:TrkExtension>
        </extensions>
      </trkpt>
      <trkpt lat="50.61805" lon="5.42542">
        <ele>191.5</ele>
      </trkpt>
      <trkpt lat="50.61823" lon="5.42461">
        <ele>193.4</ele>
      </trkpt>
      <trkpt lat="50.61908" lon="5.42268">
        <ele>189.9</ele>
      </trkpt>
      <trkpt lat="50.6189" lon="5.41979">
        <ele>187</ele>
      </trkpt>
      <trkpt lat="50.61895" lon="5.41808">
        <ele>188</ele>
      </trkpt>
      <trkpt lat="50.61906" lon="5.41738">
        <ele>187.6</ele>
      </trkpt>
      <trkpt lat="50.61932" lon="5.41681">
        <ele>187</ele>
      </trkpt>
      <trkpt lat="50.6202" lon="5.41539">
        <ele>186</ele>
      </trkpt>
      <trkpt lat="50.61916" lon="5.41232">
        <ele>183</ele>
      </trkpt>
      <trkpt lat="50.62077" lon="5.41128">
        <ele>181.1</ele>
      </trkpt>
      <trkpt lat="50.62229" lon="5.41095">
        <ele>178</ele>
      </trkpt>
      <trkpt lat="50.62317" lon="5.41197">
        <ele>176.6</ele>
      </trkpt>
      <trkpt lat="50.62429" lon="5.41284">
        <ele>173.6</ele>
      </trkpt>
      <trkpt lat="50.6249" lon="5.41478">
        <ele>172.7</ele>
      </trkpt>
      <trkpt lat="50.62558" lon="5.41581">
        <ele>171</ele>
      </trkpt>
      <trkpt lat="50.62707" lon="5.41845">
        <ele>176.4</ele>
      </trkpt>
      <trkpt lat="50.62716" lon="5.41908">
        <ele>175.1</ele>
      </trkpt>
      <trkpt lat="50.62705" lon="5.41944">
        <ele>175.7</ele>
      </trkpt>
      <trkpt lat="50.62719" lon="5.41966">
        <ele>177.7</ele>
      </trkpt>
      <trkpt lat="50.62739" lon="5.41959">
        <ele>177.5</ele>
      </trkpt>
      <trkpt lat="50.62766" lon="5.41979">
        <ele>178.1</ele>
      </trkpt>
      <trkpt lat="50.62796" lon="5.4201">
        <ele>178.2</ele>
      </trkpt>
      <trkpt lat="50.6281" lon="5.42022">
        <ele>177.9</ele>
      </trkpt>
      <trkpt lat="50.62849" lon="5.42054">
        <ele>178.9</ele>
      </trkpt>
      <trkpt lat="50.62922" lon="5.42083">
        <ele>177.6</ele>
      </trkpt>
      <trkpt lat="50.62961" lon="5.42095">
        <ele>176.8</ele>
      </trkpt>
      <trkpt lat="50.62995" lon="5.4211">
        <ele>176.1</ele>
      </trkpt>
      <trkpt lat="50.63085" lon="5.42173">
        <ele>175.2</ele>
      </trkpt>
      <trkpt lat="50.63228" lon="5.42257">
        <ele>175.7</ele>
      </trkpt>
      <trkpt lat="50.63473" lon="5.42382">
        <ele>182.5</ele>
      </trkpt>
      <trkpt lat="50.63665" lon="5.42487">
        <ele>185</ele>
      </trkpt>
      <trkpt lat="50.63664" lon="5.42499">
        <ele>185</ele>
      </trkpt>
      <trkpt lat="50.63665" lon="5.42509">
        <ele>185.3</ele>
      </trkpt>
      <trkpt lat="50.63668" lon="5.42516">
        <ele>185.6</ele>
      </trkpt>
      <trkpt lat="50.63676" lon="5.42526">
        <ele>186</ele>
      </trkpt>
      <trkpt lat="50.63682" lon="5.42528">
        <ele>186</ele>
      </trkpt>
      <trkpt lat="50.63687" lon="5.42527">
        <ele>186</ele>
      </trkpt>
      <trkpt lat="50.63697" lon="5.42519">
        <ele>186.4</ele>
      </trkpt>
      <trkpt lat="50.637" lon="5.4251">
        <ele>186.7</ele>
      </trkpt>
      <trkpt lat="50.63784" lon="5.42563">
        <ele>188</ele>
      </trkpt>
      <trkpt lat="50.63959" lon="5.42833">
        <ele>186</ele>
      </trkpt>
      <trkpt lat="50.6397" lon="5.42892">
        <ele>186.1</ele>
      </trkpt>
      <trkpt lat="50.63995" lon="5.42882">
        <ele>186.3</ele>
      </trkpt>
      <trkpt lat="50.63999" lon="5.42841">
        <ele>186.3</ele>
      </trkpt>
      <trkpt lat="50.6403" lon="5.4278">
        <ele>184</ele>
      </trkpt>
      <trkpt lat="50.64225" lon="5.42528">
        <ele>175.9</ele>
        <time>2022-01-16T11:15:44.000Z</time>
      </trkpt>
      <trkpt lat="50.64259" lon="5.42495">
        <ele>174.9</ele>
        <time>2022-01-16T11:15:41.000Z</time>
      </trkpt>
      <trkpt lat="50.64293" lon="5.42439">
        <ele>160.80000305176</ele>
        <time>2022-01-16T11:15:38.000Z</time>
      </trkpt>
      <trkpt lat="50.64296" lon="5.42452">
        <ele>160.60000610352</ele>
        <time>2022-01-16T11:15:36.000Z</time>
      </trkpt>
      <trkpt lat="50.64305" lon="5.42467">
        <ele>160.39999389648</ele>
        <time>2022-01-16T11:15:33.000Z</time>
      </trkpt>
      <trkpt lat="50.64334" lon="5.42511">
        <ele>159.80000305176</ele>
        <time>2022-01-16T11:15:25.000Z</time>
      </trkpt>
      <trkpt lat="50.64338" lon="5.42516">
        <ele>159.60000610352</ele>
        <time>2022-01-16T11:15:24.000Z</time>
      </trkpt>
      <trkpt lat="50.64361" lon="5.4254">
        <ele>159</ele>
        <time>2022-01-16T11:15:19.000Z</time>
      </trkpt>
      <trkpt lat="50.64371" lon="5.42545">
        <ele>158.80000305176</ele>
        <time>2022-01-16T11:15:17.000Z</time>
      </trkpt>
      <trkpt lat="50.64391" lon="5.42546">
        <ele>158.39999389648</ele>
        <time>2022-01-16T11:15:13.000Z</time>
      </trkpt>
      <trkpt lat="50.64431" lon="5.42553">
        <ele>157.19999694824</ele>
        <time>2022-01-16T11:15:04.000Z</time>
      </trkpt>
      <trkpt lat="50.64441" lon="5.42557">
        <ele>157.19999694824</ele>
        <time>2022-01-16T11:15:02.000Z</time>
      </trkpt>
      <trkpt lat="50.64477" lon="5.42581">
        <ele>157</ele>
        <time>2022-01-16T11:14:56.000Z</time>
      </trkpt>
      <trkpt lat="50.64482" lon="5.42585">
        <ele>157</ele>
        <time>2022-01-16T11:14:55.000Z</time>
      </trkpt>
      <trkpt lat="50.64534" lon="5.4262">
        <ele>155.60000610352</ele>
        <time>2022-01-16T11:14:45.000Z</time>
      </trkpt>
      <trkpt lat="50.64559" lon="5.42643">
        <ele>155.19999694824</ele>
        <time>2022-01-16T11:14:40.000Z</time>
      </trkpt>
      <trkpt lat="50.64579" lon="5.42664">
        <ele>155</ele>
        <time>2022-01-16T11:14:36.000Z</time>
      </trkpt>
      <trkpt lat="50.64615" lon="5.42713">
        <ele>154.80000305176</ele>
        <time>2022-01-16T11:14:28.000Z</time>
      </trkpt>
      <trkpt lat="50.64619" lon="5.42719">
        <ele>154.80000305176</ele>
        <time>2022-01-16T11:14:27.000Z</time>
      </trkpt>
      <trkpt lat="50.64631" lon="5.42737">
        <ele>154.80000305176</ele>
        <time>2022-01-16T11:14:24.000Z</time>
      </trkpt>
      <trkpt lat="50.64635" lon="5.42742">
        <ele>154.80000305176</ele>
        <time>2022-01-16T11:14:23.000Z</time>
      </trkpt>
      <trkpt lat="50.64639" lon="5.42748">
        <ele>154.80000305176</ele>
        <time>2022-01-16T11:14:22.000Z</time>
      </trkpt>
      <trkpt lat="50.64644" lon="5.42752">
        <ele>154.80000305176</ele>
        <time>2022-01-16T11:14:21.000Z</time>
      </trkpt>
      <trkpt lat="50.64654" lon="5.42755">
        <ele>154.60000610352</ele>
        <time>2022-01-16T11:14:19.000Z</time>
      </trkpt>
      <trkpt lat="50.64664" lon="5.4275">
        <ele>154.60000610352</ele>
        <time>2022-01-16T11:14:17.000Z</time>
      </trkpt>
      <trkpt lat="50.64676" lon="5.42735">
        <ele>154.19999694824</ele>
        <time>2022-01-16T11:14:14.000Z</time>
      </trkpt>
      <trkpt lat="50.64687" lon="5.42719">
        <ele>154</ele>
        <time>2022-01-16T11:14:11.000Z</time>
      </trkpt>
      <trkpt lat="50.64694" lon="5.42711">
        <ele>154</ele>
        <time>2022-01-16T11:14:09.000Z</time>
      </trkpt>
      <trkpt lat="50.64698" lon="5.42708">
        <ele>153.80000305176</ele>
        <time>2022-01-16T11:14:08.000Z</time>
      </trkpt>
      <trkpt lat="50.64706" lon="5.42709">
        <ele>153.80000305176</ele>
        <time>2022-01-16T11:14:06.000Z</time>
      </trkpt>
      <trkpt lat="50.64734" lon="5.42739">
        <ele>153.80000305176</ele>
        <time>2022-01-16T11:13:58.000Z</time>
      </trkpt>
      <trkpt lat="50.64769" lon="5.42769">
        <ele>153.19999694824</ele>
        <time>2022-01-16T11:13:50.000Z</time>
      </trkpt>
      <trkpt lat="50.64784" lon="5.42777">
        <ele>153.19999694824</ele>
        <time>2022-01-16T11:13:47.000Z</time>
      </trkpt>
      <trkpt lat="50.64811" lon="5.42787">
        <ele>152.80000305176</ele>
        <time>2022-01-16T11:13:42.000Z</time>
      </trkpt>
      <trkpt lat="50.64816" lon="5.42788">
        <ele>152.80000305176</ele>
        <time>2022-01-16T11:13:41.000Z</time>
      </trkpt>
      <trkpt lat="50.64871" lon="5.42798">
        <ele>152.19999694824</ele>
        <time>2022-01-16T11:13:31.000Z</time>
      </trkpt>
      <trkpt lat="50.64916" lon="5.42802">
        <ele>151.80000305176</ele>
        <time>2022-01-16T11:13:23.000Z</time>
      </trkpt>
      <trkpt lat="50.64921" lon="5.42802">
        <ele>151.60000610352</ele>
        <time>2022-01-16T11:13:22.000Z</time>
      </trkpt>
      <trkpt lat="50.64976" lon="5.42796">
        <ele>151</ele>
        <time>2022-01-16T11:13:12.000Z</time>
      </trkpt>
      <trkpt lat="50.64982" lon="5.42795">
        <ele>151</ele>
        <time>2022-01-16T11:13:11.000Z</time>
      </trkpt>
      <trkpt lat="50.65013" lon="5.42809">
        <ele>150.80000305176</ele>
        <time>2022-01-16T11:13:05.000Z</time>
      </trkpt>
      <trkpt lat="50.65024" lon="5.42816">
        <ele>150.80000305176</ele>
        <time>2022-01-16T11:13:03.000Z</time>
      </trkpt>
      <trkpt lat="50.65059" lon="5.42838">
        <ele>151</ele>
        <time>2022-01-16T11:12:56.000Z</time>
      </trkpt>
      <trkpt lat="50.65096" lon="5.42858">
        <ele>150.39999389648</ele>
        <time>2022-01-16T11:12:49.000Z</time>
      </trkpt>
      <trkpt lat="50.65138" lon="5.42871">
        <ele>150</ele>
        <time>2022-01-16T11:12:41.000Z</time>
      </trkpt>
      <trkpt lat="50.65166" lon="5.42879">
        <ele>150</ele>
        <time>2022-01-16T11:12:36.000Z</time>
      </trkpt>
      <trkpt lat="50.6519" lon="5.42886">
        <ele>150</ele>
        <time>2022-01-16T11:12:32.000Z</time>
      </trkpt>
      <trkpt lat="50.65202" lon="5.4289">
        <ele>150</ele>
        <time>2022-01-16T11:12:30.000Z</time>
      </trkpt>
      <trkpt lat="50.65226" lon="5.4289">
        <ele>150</ele>
        <time>2022-01-16T11:12:26.000Z</time>
      </trkpt>
      <trkpt lat="50.65244" lon="5.4289">
        <ele>150</ele>
        <time>2022-01-16T11:12:23.000Z</time>
      </trkpt>
      <trkpt lat="50.65282" lon="5.42889">
        <ele>150</ele>
        <time>2022-01-16T11:12:17.000Z</time>
      </trkpt>
      <trkpt lat="50.65308" lon="5.42894">
        <ele>150</ele>
        <time>2022-01-16T11:12:13.000Z</time>
      </trkpt>
      <trkpt lat="50.65314" lon="5.42896">
        <ele>150</ele>
        <time>2022-01-16T11:12:12.000Z</time>
      </trkpt>
      <trkpt lat="50.65327" lon="5.429">
        <ele>150</ele>
        <time>2022-01-16T11:12:10.000Z</time>
      </trkpt>
      <trkpt lat="50.65352" lon="5.42905">
        <ele>150</ele>
        <time>2022-01-16T11:12:06.000Z</time>
      </trkpt>
      <trkpt lat="50.65364" lon="5.42906">
        <ele>150.19999694824</ele>
        <time>2022-01-16T11:12:04.000Z</time>
      </trkpt>
      <trkpt lat="50.65387" lon="5.42905">
        <ele>150.19999694824</ele>
        <time>2022-01-16T11:12:00.000Z</time>
      </trkpt>
      <trkpt lat="50.65424" lon="5.42902">
        <ele>150.60000610352</ele>
        <time>2022-01-16T11:11:53.000Z</time>
      </trkpt>
      <trkpt lat="50.65429" lon="5.42901">
        <ele>150.60000610352</ele>
        <time>2022-01-16T11:11:52.000Z</time>
      </trkpt>
      <trkpt lat="50.65438" lon="5.42894">
        <ele>150.80000305176</ele>
        <time>2022-01-16T11:11:50.000Z</time>
      </trkpt>
      <trkpt lat="50.6547" lon="5.42835">
        <ele>162.9</ele>
        <time>2022-01-16T11:11:44.000Z</time>
      </trkpt>
      <trkpt lat="50.65552" lon="5.42691">
        <ele>155.19999694824</ele>
        <time>2022-01-16T11:11:09.000Z</time>
      </trkpt>
      <trkpt lat="50.65577" lon="5.42653">
        <ele>156.19999694824</ele>
        <time>2022-01-16T11:11:04.000Z</time>
      </trkpt>
      <trkpt lat="50.65583" lon="5.42646">
        <ele>156.19999694824</ele>
        <time>2022-01-16T11:11:03.000Z</time>
      </trkpt>
      <trkpt lat="50.65593" lon="5.42632">
        <ele>156.39999389648</ele>
        <time>2022-01-16T11:11:01.000Z</time>
      </trkpt>
      <trkpt lat="50.65618" lon="5.42601">
        <ele>156.80000305176</ele>
        <time>2022-01-16T11:10:56.000Z</time>
      </trkpt>
      <trkpt lat="50.65622" lon="5.42595">
        <ele>156.60000610352</ele>
        <time>2022-01-16T11:10:55.000Z</time>
      </trkpt>
      <trkpt lat="50.65638" lon="5.42559">
        <ele>156.60000610352</ele>
        <time>2022-01-16T11:10:50.000Z</time>
      </trkpt>
      <trkpt lat="50.65647" lon="5.42538">
        <ele>156.19999694824</ele>
        <time>2022-01-16T11:10:47.000Z</time>
      </trkpt>
      <trkpt lat="50.6566" lon="5.42507">
        <ele>155.80000305176</ele>
        <time>2022-01-16T11:10:43.000Z</time>
      </trkpt>
      <trkpt lat="50.65667" lon="5.4249">
        <ele>155.60000610352</ele>
        <time>2022-01-16T11:10:41.000Z</time>
      </trkpt>
      <trkpt lat="50.6568" lon="5.4246">
        <ele>155</ele>
        <time>2022-01-16T11:10:37.000Z</time>
      </trkpt>
      <trkpt lat="50.65683" lon="5.42453">
        <ele>154.80000305176</ele>
        <time>2022-01-16T11:10:36.000Z</time>
      </trkpt>
      <trkpt lat="50.65686" lon="5.42445">
        <ele>154.60000610352</ele>
        <time>2022-01-16T11:10:35.000Z</time>
      </trkpt>
      <trkpt lat="50.657" lon="5.42403">
        <ele>154.19999694824</ele>
        <time>2022-01-16T11:10:30.000Z</time>
      </trkpt>
      <trkpt lat="50.65703" lon="5.42394">
        <ele>154.19999694824</ele>
        <time>2022-01-16T11:10:29.000Z</time>
      </trkpt>
      <trkpt lat="50.65705" lon="5.42384">
        <ele>154</ele>
        <time>2022-01-16T11:10:28.000Z</time>
      </trkpt>
      <trkpt lat="50.65722" lon="5.42302">
        <ele>153.19999694824</ele>
        <time>2022-01-16T11:10:19.000Z</time>
      </trkpt>
      <trkpt lat="50.65725" lon="5.42285">
        <ele>153</ele>
        <time>2022-01-16T11:10:17.000Z</time>
      </trkpt>
      <trkpt lat="50.65733" lon="5.42236">
        <ele>152.80000305176</ele>
        <time>2022-01-16T11:10:12.000Z</time>
      </trkpt>
      <trkpt lat="50.65745" lon="5.42186">
        <ele>152</ele>
        <time>2022-01-16T11:10:06.000Z</time>
      </trkpt>
      <trkpt lat="50.65747" lon="5.42178">
        <ele>152</ele>
        <time>2022-01-16T11:10:05.000Z</time>
      </trkpt>
      <trkpt lat="50.65758" lon="5.42132">
        <ele>151.80000305176</ele>
        <time>2022-01-16T11:09:59.000Z</time>
      </trkpt>
      <trkpt lat="50.65762" lon="5.42106">
        <ele>151.80000305176</ele>
        <time>2022-01-16T11:09:56.000Z</time>
      </trkpt>
      <trkpt lat="50.65766" lon="5.42088">
        <ele>151.60000610352</ele>
        <time>2022-01-16T11:09:54.000Z</time>
      </trkpt>
      <trkpt lat="50.65774" lon="5.42049">
        <ele>152</ele>
        <time>2022-01-16T11:09:50.000Z</time>
      </trkpt>
      <trkpt lat="50.65786" lon="5.41988">
        <ele>152.60000610352</ele>
        <time>2022-01-16T11:09:44.000Z</time>
      </trkpt>
      <trkpt lat="50.65799" lon="5.41908">
        <ele>152.80000305176</ele>
        <time>2022-01-16T11:09:36.000Z</time>
      </trkpt>
      <trkpt lat="50.6581" lon="5.41845">
        <ele>153.60000610352</ele>
        <time>2022-01-16T11:09:29.000Z</time>
      </trkpt>
      <trkpt lat="50.65816" lon="5.41815">
        <ele>153.80000305176</ele>
        <time>2022-01-16T11:09:26.000Z</time>
      </trkpt>
      <trkpt lat="50.65825" lon="5.41776">
        <ele>154.39999389648</ele>
        <time>2022-01-16T11:09:22.000Z</time>
      </trkpt>
      <trkpt lat="50.65844" lon="5.41697">
        <ele>155.60000610352</ele>
        <time>2022-01-16T11:09:14.000Z</time>
      </trkpt>
      <trkpt lat="50.65849" lon="5.41678">
        <ele>155.60000610352</ele>
        <time>2022-01-16T11:09:12.000Z</time>
      </trkpt>
      <trkpt lat="50.65865" lon="5.41614">
        <ele>155.80000305176</ele>
        <time>2022-01-16T11:09:05.000Z</time>
      </trkpt>
      <trkpt lat="50.65874" lon="5.41578">
        <ele>155.80000305176</ele>
        <time>2022-01-16T11:09:01.000Z</time>
      </trkpt>
      <trkpt lat="50.65893" lon="5.41501">
        <ele>154.80000305176</ele>
        <time>2022-01-16T11:08:52.000Z</time>
      </trkpt>
      <trkpt lat="50.65911" lon="5.41433">
        <ele>154.39999389648</ele>
        <time>2022-01-16T11:08:44.000Z</time>
      </trkpt>
      <trkpt lat="50.65915" lon="5.41416">
        <ele>154.19999694824</ele>
        <time>2022-01-16T11:08:42.000Z</time>
      </trkpt>
      <trkpt lat="50.65917" lon="5.41408">
        <ele>154</ele>
        <time>2022-01-16T11:08:41.000Z</time>
      </trkpt>
      <trkpt lat="50.65938" lon="5.41324">
        <ele>152.80000305176</ele>
        <time>2022-01-16T11:08:31.000Z</time>
      </trkpt>
      <trkpt lat="50.65963" lon="5.41244">
        <ele>152.39999389648</ele>
        <time>2022-01-16T11:08:21.000Z</time>
      </trkpt>
      <trkpt lat="50.65965" lon="5.41236">
        <ele>152.19999694824</ele>
        <time>2022-01-16T11:08:20.000Z</time>
      </trkpt>
      <trkpt lat="50.65978" lon="5.41196">
        <ele>151.80000305176</ele>
        <time>2022-01-16T11:08:15.000Z</time>
      </trkpt>
      <trkpt lat="50.65996" lon="5.41141">
        <ele>150.19999694824</ele>
        <time>2022-01-16T11:08:08.000Z</time>
      </trkpt>
      <trkpt lat="50.66011" lon="5.41093">
        <ele>150</ele>
        <time>2022-01-16T11:08:02.000Z</time>
      </trkpt>
      <trkpt lat="50.66024" lon="5.41054">
        <ele>149.60000610352</ele>
        <time>2022-01-16T11:07:57.000Z</time>
      </trkpt>
      <trkpt lat="50.66027" lon="5.41046">
        <ele>149.60000610352</ele>
        <time>2022-01-16T11:07:56.000Z</time>
      </trkpt>
      <trkpt lat="50.66046" lon="5.40982">
        <ele>148.80000305176</ele>
        <time>2022-01-16T11:07:48.000Z</time>
      </trkpt>
      <trkpt lat="50.66062" lon="5.40907">
        <ele>148</ele>
        <time>2022-01-16T11:07:39.000Z</time>
      </trkpt>
      <trkpt lat="50.66066" lon="5.4089">
        <ele>148</ele>
        <time>2022-01-16T11:07:37.000Z</time>
      </trkpt>
      <trkpt lat="50.66083" lon="5.40809">
        <ele>146</ele>
        <time>2022-01-16T11:07:27.000Z</time>
      </trkpt>
      <trkpt lat="50.66087" lon="5.40787">
        <ele>145.80000305176</ele>
        <time>2022-01-16T11:07:24.000Z</time>
      </trkpt>
      <trkpt lat="50.66091" lon="5.40771">
        <ele>145.80000305176</ele>
        <time>2022-01-16T11:07:22.000Z</time>
      </trkpt>
      <trkpt lat="50.661" lon="5.40741">
        <ele>145.80000305176</ele>
        <time>2022-01-16T11:07:18.000Z</time>
      </trkpt>
      <trkpt lat="50.66131" lon="5.40663">
        <ele>146</ele>
        <time>2022-01-16T11:07:08.000Z</time>
      </trkpt>
      <trkpt lat="50.66162" lon="5.4059">
        <ele>145.80000305176</ele>
        <time>2022-01-16T11:06:59.000Z</time>
      </trkpt>
      <trkpt lat="50.66172" lon="5.40565">
        <ele>145.60000610352</ele>
        <time>2022-01-16T11:06:56.000Z</time>
      </trkpt>
      <trkpt lat="50.66179" lon="5.40548">
        <ele>145.80000305176</ele>
        <time>2022-01-16T11:06:54.000Z</time>
      </trkpt>
      <trkpt lat="50.6619" lon="5.40524">
        <ele>145.60000610352</ele>
        <time>2022-01-16T11:06:51.000Z</time>
      </trkpt>
      <trkpt lat="50.66196" lon="5.40508">
        <ele>145.60000610352</ele>
        <time>2022-01-16T11:06:49.000Z</time>
      </trkpt>
      <trkpt lat="50.66218" lon="5.40442">
        <ele>145.60000610352</ele>
        <time>2022-01-16T11:06:41.000Z</time>
      </trkpt>
      <trkpt lat="50.66221" lon="5.40434">
        <ele>145.39999389648</ele>
        <time>2022-01-16T11:06:40.000Z</time>
      </trkpt>
      <trkpt lat="50.66244" lon="5.40356">
        <ele>145.19999694824</ele>
        <time>2022-01-16T11:06:31.000Z</time>
      </trkpt>
      <trkpt lat="50.6626" lon="5.40293">
        <ele>145.39999389648</ele>
        <time>2022-01-16T11:06:24.000Z</time>
      </trkpt>
      <trkpt lat="50.66262" lon="5.40284">
        <ele>145.19999694824</ele>
        <time>2022-01-16T11:06:23.000Z</time>
      </trkpt>
      <trkpt lat="50.66258" lon="5.40194">
        <ele>145.19999694824</ele>
        <time>2022-01-16T11:06:14.000Z</time>
      </trkpt>
      <trkpt lat="50.66257" lon="5.40184">
        <ele>145.19999694824</ele>
        <time>2022-01-16T11:06:13.000Z</time>
      </trkpt>
      <trkpt lat="50.6625" lon="5.40096">
        <ele>145.60000610352</ele>
        <time>2022-01-16T11:06:04.000Z</time>
      </trkpt>
      <trkpt lat="50.66249" lon="5.40087">
        <ele>145.80000305176</ele>
        <time>2022-01-16T11:06:03.000Z</time>
      </trkpt>
      <trkpt lat="50.66241" lon="5.4">
        <ele>146.80000305176</ele>
        <time>2022-01-16T11:05:54.000Z</time>
      </trkpt>
      <trkpt lat="50.66238" lon="5.39971">
        <ele>146.80000305176</ele>
        <time>2022-01-16T11:05:51.000Z</time>
      </trkpt>
      <trkpt lat="50.66236" lon="5.39934">
        <ele>147</ele>
        <time>2022-01-16T11:05:47.000Z</time>
      </trkpt>
      <trkpt lat="50.66236" lon="5.39918">
        <ele>146.60000610352</ele>
        <time>2022-01-16T11:05:45.000Z</time>
      </trkpt>
      <trkpt lat="50.66236" lon="5.39895">
        <ele>146.19999694824</ele>
        <time>2022-01-16T11:05:42.000Z</time>
      </trkpt>
      <trkpt lat="50.66239" lon="5.39878">
        <ele>145.80000305176</ele>
        <time>2022-01-16T11:05:39.000Z</time>
      </trkpt>
      <trkpt lat="50.66249" lon="5.39873">
        <ele>145.80000305176</ele>
        <time>2022-01-16T11:05:36.000Z</time>
      </trkpt>
      <trkpt lat="50.66258" lon="5.39873">
        <ele>145.60000610352</ele>
        <time>2022-01-16T11:05:34.000Z</time>
      </trkpt>
      <trkpt lat="50.66263" lon="5.39873">
        <ele>145.60000610352</ele>
        <time>2022-01-16T11:05:33.000Z</time>
      </trkpt>
      <trkpt lat="50.66291" lon="5.3987">
        <ele>145.60000610352</ele>
        <time>2022-01-16T11:05:27.000Z</time>
      </trkpt>
      <trkpt lat="50.6633" lon="5.39857">
        <ele>145.39999389648</ele>
        <time>2022-01-16T11:05:19.000Z</time>
      </trkpt>
      <trkpt lat="50.66372" lon="5.39857">
        <ele>144.80000305176</ele>
        <time>2022-01-16T11:05:11.000Z</time>
      </trkpt>
      <trkpt lat="50.66378" lon="5.39858">
        <ele>144.60000610352</ele>
        <time>2022-01-16T11:05:10.000Z</time>
      </trkpt>
      <trkpt lat="50.66407" lon="5.3987">
        <ele>144.39999389648</ele>
        <time>2022-01-16T11:05:04.000Z</time>
      </trkpt>
      <trkpt lat="50.66452" lon="5.39895">
        <ele>144.60000610352</ele>
        <time>2022-01-16T11:04:55.000Z</time>
      </trkpt>
      <trkpt lat="50.66487" lon="5.3992">
        <ele>145</ele>
        <time>2022-01-16T11:04:48.000Z</time>
      </trkpt>
      <trkpt lat="50.66511" lon="5.3994">
        <ele>145.60000610352</ele>
        <time>2022-01-16T11:04:43.000Z</time>
      </trkpt>
      <trkpt lat="50.66522" lon="5.39942">
        <ele>145.60000610352</ele>
        <time>2022-01-16T11:04:41.000Z</time>
      </trkpt>
      <trkpt lat="50.66527" lon="5.3994">
        <ele>145.60000610352</ele>
        <time>2022-01-16T11:04:40.000Z</time>
      </trkpt>
      <trkpt lat="50.66532" lon="5.39937">
        <ele>145.60000610352</ele>
        <time>2022-01-16T11:04:39.000Z</time>
      </trkpt>
      <trkpt lat="50.66558" lon="5.39891">
        <ele>145</ele>
        <time>2022-01-16T11:04:31.000Z</time>
      </trkpt>
      <trkpt lat="50.66562" lon="5.39885">
        <ele>145</ele>
        <time>2022-01-16T11:04:30.000Z</time>
      </trkpt>
      <trkpt lat="50.6657" lon="5.39875">
        <ele>144.60000610352</ele>
        <time>2022-01-16T11:04:28.000Z</time>
      </trkpt>
      <trkpt lat="50.66574" lon="5.39871">
        <ele>144.60000610352</ele>
        <time>2022-01-16T11:04:27.000Z</time>
      </trkpt>
      <trkpt lat="50.66578" lon="5.39868">
        <ele>144.60000610352</ele>
        <time>2022-01-16T11:04:26.000Z</time>
      </trkpt>
      <trkpt lat="50.66588" lon="5.39864">
        <ele>144.60000610352</ele>
        <time>2022-01-16T11:04:24.000Z</time>
      </trkpt>
      <trkpt lat="50.66607" lon="5.39862">
        <ele>144.60000610352</ele>
        <time>2022-01-16T11:04:20.000Z</time>
      </trkpt>
      <trkpt lat="50.66612" lon="5.39861">
        <ele>144.60000610352</ele>
        <time>2022-01-16T11:04:19.000Z</time>
      </trkpt>
      <trkpt lat="50.66622" lon="5.39857">
        <ele>144.60000610352</ele>
        <time>2022-01-16T11:04:17.000Z</time>
      </trkpt>
      <trkpt lat="50.66627" lon="5.39853">
        <ele>144.80000305176</ele>
        <time>2022-01-16T11:04:16.000Z</time>
      </trkpt>
      <trkpt lat="50.66631" lon="5.39847">
        <ele>144.80000305176</ele>
        <time>2022-01-16T11:04:15.000Z</time>
      </trkpt>
      <trkpt lat="50.66634" lon="5.39841">
        <ele>144.80000305176</ele>
        <time>2022-01-16T11:04:14.000Z</time>
      </trkpt>
      <trkpt lat="50.66637" lon="5.39834">
        <ele>144.80000305176</ele>
        <time>2022-01-16T11:04:13.000Z</time>
      </trkpt>
      <trkpt lat="50.66639" lon="5.39826">
        <ele>144.80000305176</ele>
        <time>2022-01-16T11:04:12.000Z</time>
      </trkpt>
      <trkpt lat="50.66641" lon="5.39818">
        <ele>144.80000305176</ele>
        <time>2022-01-16T11:04:11.000Z</time>
      </trkpt>
      <trkpt lat="50.66641" lon="5.39809">
        <ele>144.80000305176</ele>
        <time>2022-01-16T11:04:10.000Z</time>
      </trkpt>
      <trkpt lat="50.6664" lon="5.39801">
        <ele>145</ele>
        <time>2022-01-16T11:04:09.000Z</time>
      </trkpt>
      <trkpt lat="50.66637" lon="5.39785">
        <ele>144.80000305176</ele>
        <time>2022-01-16T11:04:07.000Z</time>
      </trkpt>
      <trkpt lat="50.66632" lon="5.39769">
        <ele>144.39999389648</ele>
        <time>2022-01-16T11:04:05.000Z</time>
      </trkpt>
      <trkpt lat="50.66627" lon="5.39753">
        <ele>144</ele>
        <time>2022-01-16T11:04:03.000Z</time>
      </trkpt>
      <trkpt lat="50.66625" lon="5.39746">
        <ele>144</ele>
        <time>2022-01-16T11:04:02.000Z</time>
      </trkpt>
      <trkpt lat="50.66624" lon="5.39737">
        <ele>144</ele>
        <time>2022-01-16T11:04:01.000Z</time>
      </trkpt>
      <trkpt lat="50.66624" lon="5.39721">
        <ele>143.39999389648</ele>
        <time>2022-01-16T11:03:59.000Z</time>
      </trkpt>
      <trkpt lat="50.66625" lon="5.39706">
        <ele>143.39999389648</ele>
        <time>2022-01-16T11:03:57.000Z</time>
      </trkpt>
      <trkpt lat="50.66635" lon="5.39663">
        <ele>142.39999389648</ele>
        <time>2022-01-16T11:03:51.000Z</time>
      </trkpt>
      <trkpt lat="50.66641" lon="5.39636">
        <ele>141.19999694824</ele>
        <time>2022-01-16T11:03:47.000Z</time>
      </trkpt>
      <trkpt lat="50.66653" lon="5.39594">
        <ele>140.80000305176</ele>
        <time>2022-01-16T11:03:41.000Z</time>
      </trkpt>
      <trkpt lat="50.66655" lon="5.39588">
        <ele>140.60000610352</ele>
        <time>2022-01-16T11:03:40.000Z</time>
      </trkpt>
      <trkpt lat="50.66658" lon="5.39582">
        <ele>140.39999389648</ele>
        <time>2022-01-16T11:03:39.000Z</time>
      </trkpt>
      <trkpt lat="50.6666" lon="5.39576">
        <ele>140.19999694824</ele>
        <time>2022-01-16T11:03:38.000Z</time>
      </trkpt>
      <trkpt lat="50.66677" lon="5.39551">
        <ele>139.39999389648</ele>
        <time>2022-01-16T11:03:33.000Z</time>
      </trkpt>
      <trkpt lat="50.66707" lon="5.39514">
        <ele>138.19999694824</ele>
        <time>2022-01-16T11:03:25.000Z</time>
      </trkpt>
      <trkpt lat="50.66722" lon="5.39496">
        <ele>137.60000610352</ele>
        <time>2022-01-16T11:03:21.000Z</time>
      </trkpt>
      <trkpt lat="50.66744" lon="5.39469">
        <ele>137</ele>
        <time>2022-01-16T11:03:15.000Z</time>
      </trkpt>
      <trkpt lat="50.66759" lon="5.39451">
        <ele>136.60000610352</ele>
        <time>2022-01-16T11:03:11.000Z</time>
      </trkpt>
      <trkpt lat="50.66781" lon="5.39423">
        <ele>134.19999694824</ele>
        <time>2022-01-16T11:03:05.000Z</time>
      </trkpt>
      <trkpt lat="50.66798" lon="5.39404">
        <ele>133.80000305176</ele>
        <time>2022-01-16T11:03:01.000Z</time>
      </trkpt>
      <trkpt lat="50.66802" lon="5.394">
        <ele>133.60000610352</ele>
        <time>2022-01-16T11:03:00.000Z</time>
      </trkpt>
      <trkpt lat="50.66806" lon="5.39395">
        <ele>133.60000610352</ele>
        <time>2022-01-16T11:02:59.000Z</time>
      </trkpt>
      <trkpt lat="50.6683" lon="5.39381">
        <ele>132.80000305176</ele>
        <time>2022-01-16T11:02:54.000Z</time>
      </trkpt>
      <trkpt lat="50.66856" lon="5.39368">
        <ele>132.19999694824</ele>
        <time>2022-01-16T11:02:49.000Z</time>
      </trkpt>
      <trkpt lat="50.66872" lon="5.39361">
        <ele>132</ele>
        <time>2022-01-16T11:02:46.000Z</time>
      </trkpt>
      <trkpt lat="50.66882" lon="5.39356">
        <ele>131.60000610352</ele>
        <time>2022-01-16T11:02:44.000Z</time>
      </trkpt>
      <trkpt lat="50.66909" lon="5.39343">
        <ele>130.80000305176</ele>
        <time>2022-01-16T11:02:39.000Z</time>
      </trkpt>
      <trkpt lat="50.66936" lon="5.3933">
        <ele>130.39999389648</ele>
        <time>2022-01-16T11:02:34.000Z</time>
      </trkpt>
      <trkpt lat="50.66952" lon="5.39323">
        <ele>130.39999389648</ele>
        <time>2022-01-16T11:02:31.000Z</time>
      </trkpt>
      <trkpt lat="50.66983" lon="5.39308">
        <ele>130.19999694824</ele>
        <time>2022-01-16T11:02:25.000Z</time>
      </trkpt>
      <trkpt lat="50.67037" lon="5.39282">
        <ele>129.80000305176</ele>
        <time>2022-01-16T11:02:15.000Z</time>
      </trkpt>
      <trkpt lat="50.67047" lon="5.39277">
        <ele>129.80000305176</ele>
        <time>2022-01-16T11:02:13.000Z</time>
      </trkpt>
      <trkpt lat="50.67067" lon="5.39268">
        <ele>130.19999694824</ele>
        <time>2022-01-16T11:02:09.000Z</time>
      </trkpt>
      <trkpt lat="50.67104" lon="5.39251">
        <ele>129.80000305176</ele>
        <time>2022-01-16T11:02:02.000Z</time>
      </trkpt>
      <trkpt lat="50.67109" lon="5.39248">
        <ele>129.60000610352</ele>
        <time>2022-01-16T11:02:01.000Z</time>
      </trkpt>
      <trkpt lat="50.67163" lon="5.39223">
        <ele>129.60000610352</ele>
        <time>2022-01-16T11:01:51.000Z</time>
      </trkpt>
      <trkpt lat="50.67203" lon="5.39205">
        <ele>129.80000305176</ele>
        <time>2022-01-16T11:01:44.000Z</time>
      </trkpt>
      <trkpt lat="50.6722" lon="5.39196">
        <ele>130</ele>
        <time>2022-01-16T11:01:41.000Z</time>
      </trkpt>
      <trkpt lat="50.67226" lon="5.39193">
        <ele>130.19999694824</ele>
        <time>2022-01-16T11:01:40.000Z</time>
      </trkpt>
      <trkpt lat="50.67282" lon="5.39167">
        <ele>131.39999389648</ele>
        <time>2022-01-16T11:01:31.000Z</time>
      </trkpt>
      <trkpt lat="50.67314" lon="5.39151">
        <ele>133.60000610352</ele>
        <time>2022-01-16T11:01:26.000Z</time>
      </trkpt>
      <trkpt lat="50.67341" lon="5.39139">
        <ele>134.80000305176</ele>
        <time>2022-01-16T11:01:22.000Z</time>
      </trkpt>
      <trkpt lat="50.67367" lon="5.39127">
        <ele>136.60000610352</ele>
        <time>2022-01-16T11:01:18.000Z</time>
      </trkpt>
      <trkpt lat="50.67394" lon="5.39114">
        <ele>138.19999694824</ele>
        <time>2022-01-16T11:01:14.000Z</time>
      </trkpt>
      <trkpt lat="50.67401" lon="5.39111">
        <ele>138.60000610352</ele>
        <time>2022-01-16T11:01:13.000Z</time>
      </trkpt>
      <trkpt lat="50.67407" lon="5.39108">
        <ele>138.80000305176</ele>
        <time>2022-01-16T11:01:12.000Z</time>
      </trkpt>
      <trkpt lat="50.67432" lon="5.39096">
        <ele>139.80000305176</ele>
        <time>2022-01-16T11:01:08.000Z</time>
      </trkpt>
      <trkpt lat="50.6745" lon="5.39087">
        <ele>140.39999389648</ele>
        <time>2022-01-16T11:01:05.000Z</time>
      </trkpt>
      <trkpt lat="50.67455" lon="5.39083">
        <ele>140.80000305176</ele>
        <time>2022-01-16T11:01:04.000Z</time>
      </trkpt>
      <trkpt lat="50.67487" lon="5.39057">
        <ele>140.80000305176</ele>
        <time>2022-01-16T11:00:58.000Z</time>
      </trkpt>
      <trkpt lat="50.67492" lon="5.39052">
        <ele>140.80000305176</ele>
        <time>2022-01-16T11:00:57.000Z</time>
      </trkpt>
      <trkpt lat="50.67513" lon="5.39024">
        <ele>139.60000610352</ele>
        <time>2022-01-16T11:00:52.000Z</time>
      </trkpt>
      <trkpt lat="50.67538" lon="5.38983">
        <ele>138.19999694824</ele>
        <time>2022-01-16T11:00:45.000Z</time>
      </trkpt>
      <trkpt lat="50.67541" lon="5.38978">
        <ele>138</ele>
        <time>2022-01-16T11:00:44.000Z</time>
      </trkpt>
      <trkpt lat="50.67545" lon="5.38972">
        <ele>138.19999694824</ele>
        <time>2022-01-16T11:00:43.000Z</time>
      </trkpt>
      <trkpt lat="50.67562" lon="5.38944">
        <ele>138.19999694824</ele>
        <time>2022-01-16T11:00:39.000Z</time>
      </trkpt>
      <trkpt lat="50.67567" lon="5.38937">
        <ele>138.19999694824</ele>
        <time>2022-01-16T11:00:38.000Z</time>
      </trkpt>
      <trkpt lat="50.67599" lon="5.38884">
        <ele>140.39999389648</ele>
        <time>2022-01-16T11:00:31.000Z</time>
      </trkpt>
      <trkpt lat="50.67604" lon="5.38876">
        <ele>140.80000305176</ele>
        <time>2022-01-16T11:00:30.000Z</time>
      </trkpt>
      <trkpt lat="50.67613" lon="5.3886">
        <ele>141.19999694824</ele>
        <time>2022-01-16T11:00:28.000Z</time>
      </trkpt>
      <trkpt lat="50.67622" lon="5.38843">
        <ele>141.19999694824</ele>
        <time>2022-01-16T11:00:26.000Z</time>
      </trkpt>
      <trkpt lat="50.67627" lon="5.38835">
        <ele>141.19999694824</ele>
        <time>2022-01-16T11:00:25.000Z</time>
      </trkpt>
      <trkpt lat="50.67638" lon="5.38816">
        <ele>141.19999694824</ele>
        <time>2022-01-16T11:00:22.000Z</time>
      </trkpt>
      <trkpt lat="50.67643" lon="5.38806">
        <ele>141.19999694824</ele>
        <time>2022-01-16T11:00:20.000Z</time>
      </trkpt>
      <trkpt lat="50.6765" lon="5.38794">
        <ele>141.19999694824</ele>
        <time>2022-01-16T11:00:17.000Z</time>
      </trkpt>
      <trkpt lat="50.67658" lon="5.38781">
        <ele>141</ele>
        <time>2022-01-16T11:00:13.000Z</time>
      </trkpt>
      <trkpt lat="50.6766" lon="5.38778">
        <ele>140.80000305176</ele>
        <time>2022-01-16T11:00:12.000Z</time>
      </trkpt>
      <trkpt lat="50.67671" lon="5.38759">
        <ele>139.60000610352</ele>
        <time>2022-01-16T11:00:07.000Z</time>
      </trkpt>
      <trkpt lat="50.67692" lon="5.38726">
        <ele>138.80000305176</ele>
        <time>2022-01-16T11:00:00.000Z</time>
      </trkpt>
      <trkpt lat="50.67715" lon="5.3869">
        <ele>139.19999694824</ele>
        <time>2022-01-16T10:59:54.000Z</time>
      </trkpt>
      <trkpt lat="50.67719" lon="5.38684">
        <ele>139.19999694824</ele>
        <time>2022-01-16T10:59:53.000Z</time>
      </trkpt>
      <trkpt lat="50.67732" lon="5.38664">
        <ele>139.60000610352</ele>
        <time>2022-01-16T10:59:50.000Z</time>
      </trkpt>
      <trkpt lat="50.67737" lon="5.38656">
        <ele>140</ele>
        <time>2022-01-16T10:59:49.000Z</time>
      </trkpt>
      <trkpt lat="50.67753" lon="5.38631">
        <ele>140.60000610352</ele>
        <time>2022-01-16T10:59:46.000Z</time>
      </trkpt>
      <trkpt lat="50.67759" lon="5.38623">
        <ele>140.80000305176</ele>
        <time>2022-01-16T10:59:45.000Z</time>
      </trkpt>
      <trkpt lat="50.67781" lon="5.38583">
        <ele>140.80000305176</ele>
        <time>2022-01-16T10:59:40.000Z</time>
      </trkpt>
      <trkpt lat="50.67785" lon="5.38577">
        <ele>140.80000305176</ele>
        <time>2022-01-16T10:59:39.000Z</time>
      </trkpt>
      <trkpt lat="50.6781" lon="5.3853">
        <ele>140.60000610352</ele>
        <time>2022-01-16T10:59:32.000Z</time>
      </trkpt>
      <trkpt lat="50.6783" lon="5.38488">
        <ele>140.39999389648</ele>
        <time>2022-01-16T10:59:26.000Z</time>
      </trkpt>
      <trkpt lat="50.67838" lon="5.38466">
        <ele>140.60000610352</ele>
        <time>2022-01-16T10:59:23.000Z</time>
      </trkpt>
      <trkpt lat="50.67846" lon="5.38443">
        <ele>140.39999389648</ele>
        <time>2022-01-16T10:59:20.000Z</time>
      </trkpt>
      <trkpt lat="50.67862" lon="5.38398">
        <ele>140</ele>
        <time>2022-01-16T10:59:14.000Z</time>
      </trkpt>
      <trkpt lat="50.67879" lon="5.38346">
        <ele>138.60000610352</ele>
        <time>2022-01-16T10:59:07.000Z</time>
      </trkpt>
      <trkpt lat="50.67881" lon="5.38339">
        <ele>138.80000305176</ele>
        <time>2022-01-16T10:59:06.000Z</time>
      </trkpt>
      <trkpt lat="50.67883" lon="5.38331">
        <ele>138.39999389648</ele>
        <time>2022-01-16T10:59:05.000Z</time>
      </trkpt>
      <trkpt lat="50.67898" lon="5.38288">
        <ele>138</ele>
        <time>2022-01-16T10:58:59.000Z</time>
      </trkpt>
      <trkpt lat="50.67903" lon="5.38273">
        <ele>137.60000610352</ele>
        <time>2022-01-16T10:58:57.000Z</time>
      </trkpt>
      <trkpt lat="50.67906" lon="5.38266">
        <ele>137.60000610352</ele>
        <time>2022-01-16T10:58:56.000Z</time>
      </trkpt>
      <trkpt lat="50.67925" lon="5.38219">
        <ele>135.19999694824</ele>
        <time>2022-01-16T10:58:49.000Z</time>
      </trkpt>
      <trkpt lat="50.67928" lon="5.38214">
        <ele>135</ele>
        <time>2022-01-16T10:58:48.000Z</time>
      </trkpt>
      <trkpt lat="50.67936" lon="5.38197">
        <ele>134.80000305176</ele>
        <time>2022-01-16T10:58:45.000Z</time>
      </trkpt>
      <trkpt lat="50.67941" lon="5.38186">
        <ele>134.60000610352</ele>
        <time>2022-01-16T10:58:43.000Z</time>
      </trkpt>
      <trkpt lat="50.67946" lon="5.38175">
        <ele>134.19999694824</ele>
        <time>2022-01-16T10:58:41.000Z</time>
      </trkpt>
      <trkpt lat="50.67949" lon="5.3817">
        <ele>134.19999694824</ele>
        <time>2022-01-16T10:58:40.000Z</time>
      </trkpt>
      <trkpt lat="50.67954" lon="5.38158">
        <ele>134</ele>
        <time>2022-01-16T10:58:38.000Z</time>
      </trkpt>
      <trkpt lat="50.67966" lon="5.38133">
        <ele>133.19999694824</ele>
        <time>2022-01-16T10:58:34.000Z</time>
      </trkpt>
      <trkpt lat="50.67972" lon="5.38121">
        <ele>132.80000305176</ele>
        <time>2022-01-16T10:58:32.000Z</time>
      </trkpt>
      <trkpt lat="50.67978" lon="5.38108">
        <ele>132.39999389648</ele>
        <time>2022-01-16T10:58:30.000Z</time>
      </trkpt>
      <trkpt lat="50.67994" lon="5.38074">
        <ele>132</ele>
        <time>2022-01-16T10:58:25.000Z</time>
      </trkpt>
      <trkpt lat="50.68003" lon="5.38055">
        <ele>131.80000305176</ele>
        <time>2022-01-16T10:58:22.000Z</time>
      </trkpt>
      <trkpt lat="50.68006" lon="5.38048">
        <ele>131.60000610352</ele>
        <time>2022-01-16T10:58:21.000Z</time>
      </trkpt>
      <trkpt lat="50.68012" lon="5.38034">
        <ele>131.60000610352</ele>
        <time>2022-01-16T10:58:19.000Z</time>
      </trkpt>
      <trkpt lat="50.68022" lon="5.38012">
        <ele>131.39999389648</ele>
        <time>2022-01-16T10:58:16.000Z</time>
      </trkpt>
      <trkpt lat="50.68029" lon="5.37998">
        <ele>131.39999389648</ele>
        <time>2022-01-16T10:58:14.000Z</time>
      </trkpt>
      <trkpt lat="50.68032" lon="5.3799">
        <ele>131.39999389648</ele>
        <time>2022-01-16T10:58:13.000Z</time>
      </trkpt>
      <trkpt lat="50.68041" lon="5.37968">
        <ele>131.19999694824</ele>
        <time>2022-01-16T10:58:10.000Z</time>
      </trkpt>
      <trkpt lat="50.68049" lon="5.37947">
        <ele>131</ele>
        <time>2022-01-16T10:58:07.000Z</time>
      </trkpt>
      <trkpt lat="50.68065" lon="5.37905">
        <ele>130.19999694824</ele>
        <time>2022-01-16T10:58:01.000Z</time>
      </trkpt>
      <trkpt lat="50.6807" lon="5.37891">
        <ele>130</ele>
        <time>2022-01-16T10:57:59.000Z</time>
      </trkpt>
      <trkpt lat="50.68073" lon="5.37884">
        <ele>129.80000305176</ele>
        <time>2022-01-16T10:57:58.000Z</time>
      </trkpt>
      <trkpt lat="50.68083" lon="5.37856">
        <ele>129.60000610352</ele>
        <time>2022-01-16T10:57:54.000Z</time>
      </trkpt>
      <trkpt lat="50.68088" lon="5.37842">
        <ele>129.19999694824</ele>
        <time>2022-01-16T10:57:52.000Z</time>
      </trkpt>
      <trkpt lat="50.68093" lon="5.37829">
        <ele>128.60000610352</ele>
        <time>2022-01-16T10:57:50.000Z</time>
      </trkpt>
      <trkpt lat="50.68106" lon="5.37793">
        <ele>128</ele>
        <time>2022-01-16T10:57:45.000Z</time>
      </trkpt>
      <trkpt lat="50.68109" lon="5.37786">
        <ele>128</ele>
        <time>2022-01-16T10:57:44.000Z</time>
      </trkpt>
      <trkpt lat="50.68123" lon="5.37756">
        <ele>127.40000152588</ele>
        <time>2022-01-16T10:57:40.000Z</time>
      </trkpt>
      <trkpt lat="50.68132" lon="5.37743">
        <ele>127.40000152588</ele>
        <time>2022-01-16T10:57:38.000Z</time>
      </trkpt>
      <trkpt lat="50.68137" lon="5.37738">
        <ele>127.40000152588</ele>
        <time>2022-01-16T10:57:37.000Z</time>
      </trkpt>
      <trkpt lat="50.68142" lon="5.37734">
        <ele>127.40000152588</ele>
        <time>2022-01-16T10:57:36.000Z</time>
      </trkpt>
      <trkpt lat="50.68152" lon="5.37727">
        <ele>127.19999694824</ele>
        <time>2022-01-16T10:57:34.000Z</time>
      </trkpt>
      <trkpt lat="50.68177" lon="5.37712">
        <ele>126.59999847412</ele>
        <time>2022-01-16T10:57:29.000Z</time>
      </trkpt>
      <trkpt lat="50.68187" lon="5.37706">
        <ele>126.59999847412</ele>
        <time>2022-01-16T10:57:27.000Z</time>
      </trkpt>
      <trkpt lat="50.68191" lon="5.37702">
        <ele>126.19999694824</ele>
        <time>2022-01-16T10:57:26.000Z</time>
      </trkpt>
      <trkpt lat="50.68194" lon="5.37697">
        <ele>126.40000152588</ele>
        <time>2022-01-16T10:57:25.000Z</time>
      </trkpt>
      <trkpt lat="50.68196" lon="5.37691">
        <ele>126</ele>
        <time>2022-01-16T10:57:24.000Z</time>
      </trkpt>
      <trkpt lat="50.68197" lon="5.37684">
        <ele>125.80000305176</ele>
        <time>2022-01-16T10:57:23.000Z</time>
      </trkpt>
      <trkpt lat="50.68211" lon="5.37632">
        <ele>125.59999847412</ele>
        <time>2022-01-16T10:57:16.000Z</time>
      </trkpt>
      <trkpt lat="50.68217" lon="5.37616">
        <ele>125.40000152588</ele>
        <time>2022-01-16T10:57:14.000Z</time>
      </trkpt>
      <trkpt lat="50.68241" lon="5.37539">
        <ele>125.19999694824</ele>
        <time>2022-01-16T10:57:05.000Z</time>
      </trkpt>
      <trkpt lat="50.68256" lon="5.37488">
        <ele>125.40000152588</ele>
        <time>2022-01-16T10:56:59.000Z</time>
      </trkpt>
      <trkpt lat="50.68276" lon="5.37419">
        <ele>125.59999847412</ele>
        <time>2022-01-16T10:56:51.000Z</time>
      </trkpt>
      <trkpt lat="50.68279" lon="5.37412">
        <ele>126</ele>
        <time>2022-01-16T10:56:50.000Z</time>
      </trkpt>
      <trkpt lat="50.68305" lon="5.37363">
        <ele>127.40000152588</ele>
        <time>2022-01-16T10:56:43.000Z</time>
      </trkpt>
      <trkpt lat="50.68321" lon="5.37333">
        <ele>128</ele>
        <time>2022-01-16T10:56:39.000Z</time>
      </trkpt>
      <trkpt lat="50.68334" lon="5.3731">
        <ele>128.39999389648</ele>
        <time>2022-01-16T10:56:36.000Z</time>
      </trkpt>
      <trkpt lat="50.68342" lon="5.37294">
        <ele>128.60000610352</ele>
        <time>2022-01-16T10:56:34.000Z</time>
      </trkpt>
      <trkpt lat="50.68366" lon="5.37249">
        <ele>129</ele>
        <time>2022-01-16T10:56:28.000Z</time>
      </trkpt>
      <trkpt lat="50.68386" lon="5.37195">
        <ele>128.39999389648</ele>
        <time>2022-01-16T10:56:21.000Z</time>
      </trkpt>
      <trkpt lat="50.684" lon="5.37147">
        <ele>127.40000152588</ele>
        <time>2022-01-16T10:56:14.000Z</time>
      </trkpt>
      <trkpt lat="50.6841" lon="5.37116">
        <ele>127</ele>
        <time>2022-01-16T10:56:09.000Z</time>
      </trkpt>
      <trkpt lat="50.68417" lon="5.37095">
        <ele>126.19999694824</ele>
        <time>2022-01-16T10:56:06.000Z</time>
      </trkpt>
      <trkpt lat="50.68425" lon="5.37065">
        <ele>126</ele>
        <time>2022-01-16T10:56:02.000Z</time>
      </trkpt>
      <trkpt lat="50.68434" lon="5.37028">
        <ele>124.80000305176</ele>
        <time>2022-01-16T10:55:57.000Z</time>
      </trkpt>
      <trkpt lat="50.68442" lon="5.36989">
        <ele>123.59999847412</ele>
        <time>2022-01-16T10:55:52.000Z</time>
      </trkpt>
      <trkpt lat="50.68449" lon="5.36958">
        <ele>123.19999694824</ele>
        <time>2022-01-16T10:55:48.000Z</time>
      </trkpt>
      <trkpt lat="50.68453" lon="5.36941">
        <ele>123</ele>
        <time>2022-01-16T10:55:46.000Z</time>
      </trkpt>
      <trkpt lat="50.68463" lon="5.36894">
        <ele>122.40000152588</ele>
        <time>2022-01-16T10:55:40.000Z</time>
      </trkpt>
      <trkpt lat="50.6848" lon="5.36808">
        <ele>121.80000305176</ele>
        <time>2022-01-16T10:55:30.000Z</time>
      </trkpt>
      <trkpt lat="50.68481" lon="5.36798">
        <ele>121.59999847412</ele>
        <time>2022-01-16T10:55:29.000Z</time>
      </trkpt>
      <trkpt lat="50.68497" lon="5.36714">
        <ele>120.80000305176</ele>
        <time>2022-01-16T10:55:20.000Z</time>
      </trkpt>
      <trkpt lat="50.685" lon="5.36695">
        <ele>120.40000152588</ele>
        <time>2022-01-16T10:55:18.000Z</time>
      </trkpt>
      <trkpt lat="50.68512" lon="5.36629">
        <ele>119.40000152588</ele>
        <time>2022-01-16T10:55:11.000Z</time>
      </trkpt>
      <trkpt lat="50.68514" lon="5.3662">
        <ele>119.19999694824</ele>
        <time>2022-01-16T10:55:10.000Z</time>
      </trkpt>
      <trkpt lat="50.6853" lon="5.36537">
        <ele>118.19999694824</ele>
        <time>2022-01-16T10:55:01.000Z</time>
      </trkpt>
      <trkpt lat="50.68533" lon="5.36519">
        <ele>118.19999694824</ele>
        <time>2022-01-16T10:54:59.000Z</time>
      </trkpt>
      <trkpt lat="50.68543" lon="5.36466">
        <ele>118.40000152588</ele>
        <time>2022-01-16T10:54:53.000Z</time>
      </trkpt>
      <trkpt lat="50.6855" lon="5.36428">
        <ele>118.40000152588</ele>
        <time>2022-01-16T10:54:49.000Z</time>
      </trkpt>
      <trkpt lat="50.68554" lon="5.36408">
        <ele>118.40000152588</ele>
        <time>2022-01-16T10:54:47.000Z</time>
      </trkpt>
      <trkpt lat="50.6856" lon="5.36377">
        <ele>118.19999694824</ele>
        <time>2022-01-16T10:54:44.000Z</time>
      </trkpt>
      <trkpt lat="50.68562" lon="5.36367">
        <ele>118</ele>
        <time>2022-01-16T10:54:43.000Z</time>
      </trkpt>
      <trkpt lat="50.68566" lon="5.36346">
        <ele>118</ele>
        <time>2022-01-16T10:54:41.000Z</time>
      </trkpt>
      <trkpt lat="50.68572" lon="5.36314">
        <ele>118</ele>
        <time>2022-01-16T10:54:38.000Z</time>
      </trkpt>
      <trkpt lat="50.68574" lon="5.36303">
        <ele>118</ele>
        <time>2022-01-16T10:54:37.000Z</time>
      </trkpt>
      <trkpt lat="50.68578" lon="5.36282">
        <ele>117.80000305176</ele>
        <time>2022-01-16T10:54:35.000Z</time>
      </trkpt>
      <trkpt lat="50.68584" lon="5.36252">
        <ele>118</ele>
        <time>2022-01-16T10:54:32.000Z</time>
      </trkpt>
      <trkpt lat="50.68594" lon="5.362">
        <ele>118</ele>
        <time>2022-01-16T10:54:27.000Z</time>
      </trkpt>
      <trkpt lat="50.68607" lon="5.36126">
        <ele>119.59999847412</ele>
        <time>2022-01-16T10:54:20.000Z</time>
      </trkpt>
      <trkpt lat="50.68623" lon="5.36046">
        <ele>121.59999847412</ele>
        <time>2022-01-16T10:54:13.000Z</time>
      </trkpt>
      <trkpt lat="50.68633" lon="5.36013">
        <ele>122.59999847412</ele>
        <time>2022-01-16T10:54:10.000Z</time>
      </trkpt>
      <trkpt lat="50.68644" lon="5.3598">
        <ele>123.59999847412</ele>
        <time>2022-01-16T10:54:07.000Z</time>
      </trkpt>
      <trkpt lat="50.68648" lon="5.35969">
        <ele>123.80000305176</ele>
        <time>2022-01-16T10:54:06.000Z</time>
      </trkpt>
      <trkpt lat="50.68664" lon="5.35927">
        <ele>125.19999694824</ele>
        <time>2022-01-16T10:54:02.000Z</time>
      </trkpt>
      <trkpt lat="50.68671" lon="5.35907">
        <ele>125.59999847412</ele>
        <time>2022-01-16T10:54:00.000Z</time>
      </trkpt>
      <trkpt lat="50.68679" lon="5.35886">
        <ele>126</ele>
        <time>2022-01-16T10:53:58.000Z</time>
      </trkpt>
      <trkpt lat="50.68687" lon="5.35866">
        <ele>126.19999694824</ele>
        <time>2022-01-16T10:53:56.000Z</time>
      </trkpt>
      <trkpt lat="50.68705" lon="5.35819">
        <ele>126.40000152588</ele>
        <time>2022-01-16T10:53:51.000Z</time>
      </trkpt>
      <trkpt lat="50.68709" lon="5.3581">
        <ele>126.40000152588</ele>
        <time>2022-01-16T10:53:50.000Z</time>
      </trkpt>
      <trkpt lat="50.68733" lon="5.35744">
        <ele>127</ele>
        <time>2022-01-16T10:53:42.000Z</time>
      </trkpt>
      <trkpt lat="50.68736" lon="5.35736">
        <ele>127.19999694824</ele>
        <time>2022-01-16T10:53:41.000Z</time>
      </trkpt>
      <trkpt lat="50.68755" lon="5.3566">
        <ele>126.59999847412</ele>
        <time>2022-01-16T10:53:32.000Z</time>
      </trkpt>
      <trkpt lat="50.68768" lon="5.35606">
        <ele>125.19999694824</ele>
        <time>2022-01-16T10:53:25.000Z</time>
      </trkpt>
      <trkpt lat="50.68774" lon="5.35585">
        <ele>124.59999847412</ele>
        <time>2022-01-16T10:53:22.000Z</time>
      </trkpt>
      <trkpt lat="50.68781" lon="5.35565">
        <ele>123.80000305176</ele>
        <time>2022-01-16T10:53:19.000Z</time>
      </trkpt>
      <trkpt lat="50.68797" lon="5.35517">
        <ele>123</ele>
        <time>2022-01-16T10:53:12.000Z</time>
      </trkpt>
      <trkpt lat="50.68799" lon="5.3551">
        <ele>122.80000305176</ele>
        <time>2022-01-16T10:53:11.000Z</time>
      </trkpt>
      <trkpt lat="50.68819" lon="5.35445">
        <ele>120.80000305176</ele>
        <time>2022-01-16T10:53:02.000Z</time>
      </trkpt>
      <trkpt lat="50.68825" lon="5.35423">
        <ele>120.40000152588</ele>
        <time>2022-01-16T10:52:59.000Z</time>
      </trkpt>
      <trkpt lat="50.68827" lon="5.35415">
        <ele>120.19999694824</ele>
        <time>2022-01-16T10:52:58.000Z</time>
      </trkpt>
      <trkpt lat="50.68838" lon="5.35376">
        <ele>118.80000305176</ele>
        <time>2022-01-16T10:52:53.000Z</time>
      </trkpt>
      <trkpt lat="50.6885" lon="5.35327">
        <ele>118</ele>
        <time>2022-01-16T10:52:47.000Z</time>
      </trkpt>
      <trkpt lat="50.68854" lon="5.3531">
        <ele>117.59999847412</ele>
        <time>2022-01-16T10:52:45.000Z</time>
      </trkpt>
      <trkpt lat="50.68866" lon="5.35246">
        <ele>116</ele>
        <time>2022-01-16T10:52:38.000Z</time>
      </trkpt>
      <trkpt lat="50.68868" lon="5.35237">
        <ele>115.80000305176</ele>
        <time>2022-01-16T10:52:37.000Z</time>
      </trkpt>
      <trkpt lat="50.68873" lon="5.35209">
        <ele>115.40000152588</ele>
        <time>2022-01-16T10:52:34.000Z</time>
      </trkpt>
      <trkpt lat="50.68886" lon="5.35132">
        <ele>114.80000305176</ele>
        <time>2022-01-16T10:52:26.000Z</time>
      </trkpt>
      <trkpt lat="50.68888" lon="5.35122">
        <ele>114.59999847412</ele>
        <time>2022-01-16T10:52:25.000Z</time>
      </trkpt>
      <trkpt lat="50.68896" lon="5.35081">
        <ele>114.40000152588</ele>
        <time>2022-01-16T10:52:21.000Z</time>
      </trkpt>
      <trkpt lat="50.6891" lon="5.34997">
        <ele>114.59999847412</ele>
        <time>2022-01-16T10:52:13.000Z</time>
      </trkpt>
      <trkpt lat="50.68916" lon="5.34966">
        <ele>114.59999847412</ele>
        <time>2022-01-16T10:52:10.000Z</time>
      </trkpt>
      <trkpt lat="50.68921" lon="5.34935">
        <ele>115</ele>
        <time>2022-01-16T10:52:07.000Z</time>
      </trkpt>
      <trkpt lat="50.68923" lon="5.34925">
        <ele>115</ele>
        <time>2022-01-16T10:52:06.000Z</time>
      </trkpt>
      <trkpt lat="50.68925" lon="5.34914">
        <ele>115.19999694824</ele>
        <time>2022-01-16T10:52:05.000Z</time>
      </trkpt>
      <trkpt lat="50.68929" lon="5.34893">
        <ele>115.40000152588</ele>
        <time>2022-01-16T10:52:03.000Z</time>
      </trkpt>
      <trkpt lat="50.68938" lon="5.3484">
        <ele>116.59999847412</ele>
        <time>2022-01-16T10:51:58.000Z</time>
      </trkpt>
      <trkpt lat="50.68947" lon="5.34787">
        <ele>117</ele>
        <time>2022-01-16T10:51:53.000Z</time>
      </trkpt>
      <trkpt lat="50.68951" lon="5.34765">
        <ele>117.19999694824</ele>
        <time>2022-01-16T10:51:51.000Z</time>
      </trkpt>
      <trkpt lat="50.68965" lon="5.34676">
        <ele>118.19999694824</ele>
        <time>2022-01-16T10:51:43.000Z</time>
      </trkpt>
      <trkpt lat="50.68967" lon="5.34664">
        <ele>118.40000152588</ele>
        <time>2022-01-16T10:51:42.000Z</time>
      </trkpt>
      <trkpt lat="50.68971" lon="5.34641">
        <ele>118.59999847412</ele>
        <time>2022-01-16T10:51:40.000Z</time>
      </trkpt>
      <trkpt lat="50.68985" lon="5.3455">
        <ele>119.40000152588</ele>
        <time>2022-01-16T10:51:32.000Z</time>
      </trkpt>
      <trkpt lat="50.68987" lon="5.34539">
        <ele>119.59999847412</ele>
        <time>2022-01-16T10:51:31.000Z</time>
      </trkpt>
      <trkpt lat="50.68997" lon="5.34456">
        <ele>120.59999847412</ele>
        <time>2022-01-16T10:51:23.000Z</time>
      </trkpt>
      <trkpt lat="50.69001" lon="5.34425">
        <ele>121</ele>
        <time>2022-01-16T10:51:20.000Z</time>
      </trkpt>
      <trkpt lat="50.69005" lon="5.34395">
        <ele>121.80000305176</ele>
        <time>2022-01-16T10:51:17.000Z</time>
      </trkpt>
      <trkpt lat="50.6901" lon="5.34366">
        <ele>121.80000305176</ele>
        <time>2022-01-16T10:51:14.000Z</time>
      </trkpt>
      <trkpt lat="50.69013" lon="5.34358">
        <ele>121.80000305176</ele>
        <time>2022-01-16T10:51:13.000Z</time>
      </trkpt>
      <trkpt lat="50.69018" lon="5.34341">
        <ele>122</ele>
        <time>2022-01-16T10:51:11.000Z</time>
      </trkpt>
      <trkpt lat="50.6903" lon="5.34313">
        <ele>122</ele>
        <time>2022-01-16T10:51:07.000Z</time>
      </trkpt>
      <trkpt lat="50.69054" lon="5.3425">
        <ele>121</ele>
        <time>2022-01-16T10:50:58.000Z</time>
      </trkpt>
      <trkpt lat="50.69072" lon="5.34192">
        <ele>119.59999847412</ele>
        <time>2022-01-16T10:50:51.000Z</time>
      </trkpt>
      <trkpt lat="50.69074" lon="5.34183">
        <ele>119.40000152588</ele>
        <time>2022-01-16T10:50:50.000Z</time>
      </trkpt>
      <trkpt lat="50.69081" lon="5.34156">
        <ele>119.40000152588</ele>
        <time>2022-01-16T10:50:47.000Z</time>
      </trkpt>
      <trkpt lat="50.69098" lon="5.34094">
        <ele>118.80000305176</ele>
        <time>2022-01-16T10:50:40.000Z</time>
      </trkpt>
      <trkpt lat="50.69105" lon="5.34067">
        <ele>118.59999847412</ele>
        <time>2022-01-16T10:50:37.000Z</time>
      </trkpt>
      <trkpt lat="50.69114" lon="5.34033">
        <ele>118.19999694824</ele>
        <time>2022-01-16T10:50:33.000Z</time>
      </trkpt>
      <trkpt lat="50.69118" lon="5.34016">
        <ele>117.59999847412</ele>
        <time>2022-01-16T10:50:31.000Z</time>
      </trkpt>
      <trkpt lat="50.69122" lon="5.33998">
        <ele>117.40000152588</ele>
        <time>2022-01-16T10:50:29.000Z</time>
      </trkpt>
      <trkpt lat="50.69133" lon="5.33942">
        <ele>117.40000152588</ele>
        <time>2022-01-16T10:50:23.000Z</time>
      </trkpt>
      <trkpt lat="50.69135" lon="5.33924">
        <ele>117.19999694824</ele>
        <time>2022-01-16T10:50:21.000Z</time>
      </trkpt>
      <trkpt lat="50.69136" lon="5.33907">
        <ele>117.40000152588</ele>
        <time>2022-01-16T10:50:19.000Z</time>
      </trkpt>
      <trkpt lat="50.69132" lon="5.33891">
        <ele>117.40000152588</ele>
        <time>2022-01-16T10:50:17.000Z</time>
      </trkpt>
      <trkpt lat="50.69114" lon="5.33858">
        <ele>117.40000152588</ele>
        <time>2022-01-16T10:50:12.000Z</time>
      </trkpt>
      <trkpt lat="50.69081" lon="5.33803">
        <ele>116.80000305176</ele>
        <time>2022-01-16T10:50:03.000Z</time>
      </trkpt>
      <trkpt lat="50.69053" lon="5.33758">
        <ele>115</ele>
        <time>2022-01-16T10:49:55.000Z</time>
      </trkpt>
      <trkpt lat="50.69038" lon="5.33736">
        <ele>114.59999847412</ele>
        <time>2022-01-16T10:49:51.000Z</time>
      </trkpt>
      <trkpt lat="50.69027" lon="5.33719">
        <ele>113.40000152588</ele>
        <time>2022-01-16T10:49:48.000Z</time>
      </trkpt>
      <trkpt lat="50.69011" lon="5.33696">
        <ele>112.59999847412</ele>
        <time>2022-01-16T10:49:44.000Z</time>
      </trkpt>
      <trkpt lat="50.68999" lon="5.33678">
        <ele>111.80000305176</ele>
        <time>2022-01-16T10:49:41.000Z</time>
      </trkpt>
      <trkpt lat="50.68995" lon="5.33672">
        <ele>111.59999847412</ele>
        <time>2022-01-16T10:49:40.000Z</time>
      </trkpt>
      <trkpt lat="50.68992" lon="5.33665">
        <ele>111.40000152588</ele>
        <time>2022-01-16T10:49:39.000Z</time>
      </trkpt>
      <trkpt lat="50.68989" lon="5.33658">
        <ele>111.19999694824</ele>
        <time>2022-01-16T10:49:38.000Z</time>
      </trkpt>
      <trkpt lat="50.68983" lon="5.33643">
        <ele>110.40000152588</ele>
        <time>2022-01-16T10:49:36.000Z</time>
      </trkpt>
      <trkpt lat="50.68977" lon="5.33619">
        <ele>110</ele>
        <time>2022-01-16T10:49:33.000Z</time>
      </trkpt>
      <trkpt lat="50.68967" lon="5.33578">
        <ele>109</ele>
        <time>2022-01-16T10:49:28.000Z</time>
      </trkpt>
      <trkpt lat="50.68962" lon="5.33553">
        <ele>109</ele>
        <time>2022-01-16T10:49:25.000Z</time>
      </trkpt>
      <trkpt lat="50.68953" lon="5.33519">
        <ele>109</ele>
        <time>2022-01-16T10:49:21.000Z</time>
      </trkpt>
      <trkpt lat="50.6895" lon="5.33511">
        <ele>109</ele>
        <time>2022-01-16T10:49:20.000Z</time>
      </trkpt>
      <trkpt lat="50.68947" lon="5.33504">
        <ele>109</ele>
        <time>2022-01-16T10:49:19.000Z</time>
      </trkpt>
      <trkpt lat="50.68937" lon="5.33493">
        <ele>109.19999694824</ele>
        <time>2022-01-16T10:49:17.000Z</time>
      </trkpt>
      <trkpt lat="50.68931" lon="5.3349">
        <ele>109.19999694824</ele>
        <time>2022-01-16T10:49:16.000Z</time>
      </trkpt>
      <trkpt lat="50.68908" lon="5.33478">
        <ele>109.40000152588</ele>
        <time>2022-01-16T10:49:12.000Z</time>
      </trkpt>
      <trkpt lat="50.68899" lon="5.33467">
        <ele>109.40000152588</ele>
        <time>2022-01-16T10:49:10.000Z</time>
      </trkpt>
      <trkpt lat="50.6889" lon="5.33447">
        <ele>109.59999847412</ele>
        <time>2022-01-16T10:49:07.000Z</time>
      </trkpt>
      <trkpt lat="50.68889" lon="5.33433">
        <ele>109.40000152588</ele>
        <time>2022-01-16T10:49:05.000Z</time>
      </trkpt>
      <trkpt lat="50.68892" lon="5.3342">
        <ele>109.80000305176</ele>
        <time>2022-01-16T10:49:03.000Z</time>
      </trkpt>
      <trkpt lat="50.68904" lon="5.33385">
        <ele>110.40000152588</ele>
        <time>2022-01-16T10:48:58.000Z</time>
      </trkpt>
      <trkpt lat="50.68918" lon="5.33342">
        <ele>111.19999694824</ele>
        <time>2022-01-16T10:48:53.000Z</time>
      </trkpt>
      <trkpt lat="50.68926" lon="5.33315">
        <ele>111.59999847412</ele>
        <time>2022-01-16T10:48:50.000Z</time>
      </trkpt>
      <trkpt lat="50.68936" lon="5.33277">
        <ele>111.59999847412</ele>
        <time>2022-01-16T10:48:46.000Z</time>
      </trkpt>
      <trkpt lat="50.68944" lon="5.33237">
        <ele>112.40000152588</ele>
        <time>2022-01-16T10:48:42.000Z</time>
      </trkpt>
      <trkpt lat="50.68957" lon="5.33179">
        <ele>113.19999694824</ele>
        <time>2022-01-16T10:48:36.000Z</time>
      </trkpt>
      <trkpt lat="50.68959" lon="5.3317">
        <ele>113.19999694824</ele>
        <time>2022-01-16T10:48:35.000Z</time>
      </trkpt>
      <trkpt lat="50.68958" lon="5.33153">
        <ele>113.40000152588</ele>
        <time>2022-01-16T10:48:33.000Z</time>
      </trkpt>
      <trkpt lat="50.68948" lon="5.33129">
        <ele>114.19999694824</ele>
        <time>2022-01-16T10:48:29.000Z</time>
      </trkpt>
      <trkpt lat="50.68948" lon="5.33117">
        <ele>114.80000305176</ele>
        <time>2022-01-16T10:48:27.000Z</time>
      </trkpt>
      <trkpt lat="50.68953" lon="5.33105">
        <ele>115.59999847412</ele>
        <time>2022-01-16T10:48:25.000Z</time>
      </trkpt>
      <trkpt lat="50.68956" lon="5.33099">
        <ele>116.19999694824</ele>
        <time>2022-01-16T10:48:24.000Z</time>
      </trkpt>
      <trkpt lat="50.68966" lon="5.33065">
        <ele>117.19999694824</ele>
        <time>2022-01-16T10:48:20.000Z</time>
      </trkpt>
      <trkpt lat="50.68969" lon="5.33056">
        <ele>117.59999847412</ele>
        <time>2022-01-16T10:48:19.000Z</time>
      </trkpt>
      <trkpt lat="50.68974" lon="5.33036">
        <ele>118.59999847412</ele>
        <time>2022-01-16T10:48:17.000Z</time>
      </trkpt>
      <trkpt lat="50.68982" lon="5.33007">
        <ele>119.59999847412</ele>
        <time>2022-01-16T10:48:14.000Z</time>
      </trkpt>
      <trkpt lat="50.68989" lon="5.32978">
        <ele>119.80000305176</ele>
        <time>2022-01-16T10:48:11.000Z</time>
      </trkpt>
      <trkpt lat="50.68994" lon="5.3296">
        <ele>119.80000305176</ele>
        <time>2022-01-16T10:48:09.000Z</time>
      </trkpt>
      <trkpt lat="50.68999" lon="5.32943">
        <ele>119.80000305176</ele>
        <time>2022-01-16T10:48:07.000Z</time>
      </trkpt>
      <trkpt lat="50.69004" lon="5.32928">
        <ele>119.59999847412</ele>
        <time>2022-01-16T10:48:05.000Z</time>
      </trkpt>
      <trkpt lat="50.69022" lon="5.32864">
        <ele>117.80000305176</ele>
        <time>2022-01-16T10:47:56.000Z</time>
      </trkpt>
      <trkpt lat="50.69029" lon="5.32842">
        <ele>117.19999694824</ele>
        <time>2022-01-16T10:47:53.000Z</time>
      </trkpt>
      <trkpt lat="50.69043" lon="5.32792">
        <ele>116.19999694824</ele>
        <time>2022-01-16T10:47:47.000Z</time>
      </trkpt>
      <trkpt lat="50.69045" lon="5.32784">
        <ele>116</ele>
        <time>2022-01-16T10:47:46.000Z</time>
      </trkpt>
      <trkpt lat="50.69054" lon="5.32728">
        <ele>114.80000305176</ele>
        <time>2022-01-16T10:47:40.000Z</time>
      </trkpt>
      <trkpt lat="50.69055" lon="5.32709">
        <ele>114.40000152588</ele>
        <time>2022-01-16T10:47:38.000Z</time>
      </trkpt>
      <trkpt lat="50.69056" lon="5.32652">
        <ele>113.59999847412</ele>
        <time>2022-01-16T10:47:32.000Z</time>
      </trkpt>
      <trkpt lat="50.69052" lon="5.32574">
        <ele>112.80000305176</ele>
        <time>2022-01-16T10:47:24.000Z</time>
      </trkpt>
      <trkpt lat="50.69051" lon="5.32544">
        <ele>112.59999847412</ele>
        <time>2022-01-16T10:47:21.000Z</time>
      </trkpt>
      <trkpt lat="50.69051" lon="5.32534">
        <ele>112.59999847412</ele>
        <time>2022-01-16T10:47:20.000Z</time>
      </trkpt>
      <trkpt lat="50.69052" lon="5.32443">
        <ele>111.40000152588</ele>
        <time>2022-01-16T10:47:11.000Z</time>
      </trkpt>
      <trkpt lat="50.69054" lon="5.32393">
        <ele>111.19999694824</ele>
        <time>2022-01-16T10:47:06.000Z</time>
      </trkpt>
      <trkpt lat="50.69059" lon="5.32332">
        <ele>110.59999847412</ele>
        <time>2022-01-16T10:47:00.000Z</time>
      </trkpt>
      <trkpt lat="50.69062" lon="5.32311">
        <ele>110.80000305176</ele>
        <time>2022-01-16T10:46:58.000Z</time>
      </trkpt>
      <trkpt lat="50.69075" lon="5.32219">
        <ele>110.59999847412</ele>
        <time>2022-01-16T10:46:49.000Z</time>
      </trkpt>
      <trkpt lat="50.69078" lon="5.322">
        <ele>110.80000305176</ele>
        <time>2022-01-16T10:46:47.000Z</time>
      </trkpt>
      <trkpt lat="50.69094" lon="5.32111">
        <ele>111.19999694824</ele>
        <time>2022-01-16T10:46:38.000Z</time>
      </trkpt>
      <trkpt lat="50.69103" lon="5.32038">
        <ele>111.40000152588</ele>
        <time>2022-01-16T10:46:31.000Z</time>
      </trkpt>
      <trkpt lat="50.69104" lon="5.32027">
        <ele>111.40000152588</ele>
        <time>2022-01-16T10:46:30.000Z</time>
      </trkpt>
      <trkpt lat="50.69104" lon="5.31933">
        <ele>111.80000305176</ele>
        <time>2022-01-16T10:46:21.000Z</time>
      </trkpt>
      <trkpt lat="50.69104" lon="5.31922">
        <ele>112</ele>
        <time>2022-01-16T10:46:20.000Z</time>
      </trkpt>
      <trkpt lat="50.69104" lon="5.3189">
        <ele>112</ele>
        <time>2022-01-16T10:46:17.000Z</time>
      </trkpt>
      <trkpt lat="50.69103" lon="5.31797">
        <ele>112.19999694824</ele>
        <time>2022-01-16T10:46:08.000Z</time>
      </trkpt>
      <trkpt lat="50.69103" lon="5.31786">
        <ele>112.40000152588</ele>
        <time>2022-01-16T10:46:07.000Z</time>
      </trkpt>
      <trkpt lat="50.69103" lon="5.31695">
        <ele>112.40000152588</ele>
        <time>2022-01-16T10:45:58.000Z</time>
      </trkpt>
      <trkpt lat="50.69102" lon="5.3161">
        <ele>112.80000305176</ele>
        <time>2022-01-16T10:45:50.000Z</time>
      </trkpt>
      <trkpt lat="50.69102" lon="5.316">
        <ele>112.80000305176</ele>
        <time>2022-01-16T10:45:49.000Z</time>
      </trkpt>
      <trkpt lat="50.69101" lon="5.31513">
        <ele>113.40000152588</ele>
        <time>2022-01-16T10:45:41.000Z</time>
      </trkpt>
      <trkpt lat="50.69101" lon="5.31502">
        <ele>113.80000305176</ele>
        <time>2022-01-16T10:45:40.000Z</time>
      </trkpt>
      <trkpt lat="50.69101" lon="5.3149">
        <ele>113.80000305176</ele>
        <time>2022-01-16T10:45:39.000Z</time>
      </trkpt>
      <trkpt lat="50.69101" lon="5.31401">
        <ele>114.19999694824</ele>
        <time>2022-01-16T10:45:31.000Z</time>
      </trkpt>
      <trkpt lat="50.691" lon="5.31369">
        <ele>114.40000152588</ele>
        <time>2022-01-16T10:45:28.000Z</time>
      </trkpt>
      <trkpt lat="50.69099" lon="5.3136">
        <ele>114.40000152588</ele>
        <time>2022-01-16T10:45:27.000Z</time>
      </trkpt>
      <trkpt lat="50.69097" lon="5.31351">
        <ele>114.59999847412</ele>
        <time>2022-01-16T10:45:26.000Z</time>
      </trkpt>
      <trkpt lat="50.69097" lon="5.31335">
        <ele>114.80000305176</ele>
        <time>2022-01-16T10:45:24.000Z</time>
      </trkpt>
      <trkpt lat="50.691" lon="5.31319">
        <ele>115</ele>
        <time>2022-01-16T10:45:22.000Z</time>
      </trkpt>
      <trkpt lat="50.69101" lon="5.31303">
        <ele>115.19999694824</ele>
        <time>2022-01-16T10:45:20.000Z</time>
      </trkpt>
      <trkpt lat="50.69102" lon="5.31294">
        <ele>115.59999847412</ele>
        <time>2022-01-16T10:45:19.000Z</time>
      </trkpt>
      <trkpt lat="50.69102" lon="5.31275">
        <ele>116.19999694824</ele>
        <time>2022-01-16T10:45:17.000Z</time>
      </trkpt>
      <trkpt lat="50.69102" lon="5.31214">
        <ele>117.80000305176</ele>
        <time>2022-01-16T10:45:11.000Z</time>
      </trkpt>
      <trkpt lat="50.69102" lon="5.31194">
        <ele>117.80000305176</ele>
        <time>2022-01-16T10:45:09.000Z</time>
      </trkpt>
      <trkpt lat="50.69102" lon="5.31164">
        <ele>117.80000305176</ele>
        <time>2022-01-16T10:45:06.000Z</time>
      </trkpt>
      <trkpt lat="50.691" lon="5.31118">
        <ele>117.59999847412</ele>
        <time>2022-01-16T10:45:01.000Z</time>
      </trkpt>
      <trkpt lat="50.69096" lon="5.31046">
        <ele>115.40000152588</ele>
        <time>2022-01-16T10:44:52.000Z</time>
      </trkpt>
      <trkpt lat="50.69096" lon="5.31038">
        <ele>114.80000305176</ele>
        <time>2022-01-16T10:44:51.000Z</time>
      </trkpt>
      <trkpt lat="50.69094" lon="5.30988">
        <ele>114</ele>
        <time>2022-01-16T10:44:45.000Z</time>
      </trkpt>
      <trkpt lat="50.69094" lon="5.3097">
        <ele>114</ele>
        <time>2022-01-16T10:44:43.000Z</time>
      </trkpt>
      <trkpt lat="50.69095" lon="5.30961">
        <ele>113.80000305176</ele>
        <time>2022-01-16T10:44:42.000Z</time>
      </trkpt>
      <trkpt lat="50.69093" lon="5.30888">
        <ele>112.80000305176</ele>
        <time>2022-01-16T10:44:34.000Z</time>
      </trkpt>
      <trkpt lat="50.69093" lon="5.3086">
        <ele>112.80000305176</ele>
        <time>2022-01-16T10:44:31.000Z</time>
      </trkpt>
      <trkpt lat="50.69093" lon="5.3085">
        <ele>112.59999847412</ele>
        <time>2022-01-16T10:44:30.000Z</time>
      </trkpt>
      <trkpt lat="50.69091" lon="5.30764">
        <ele>111.80000305176</ele>
        <time>2022-01-16T10:44:21.000Z</time>
      </trkpt>
      <trkpt lat="50.69091" lon="5.307">
        <ele>111.19999694824</ele>
        <time>2022-01-16T10:44:14.000Z</time>
      </trkpt>
      <trkpt lat="50.69091" lon="5.30681">
        <ele>111.19999694824</ele>
        <time>2022-01-16T10:44:12.000Z</time>
      </trkpt>
      <trkpt lat="50.69088" lon="5.30646">
        <ele>111</ele>
        <time>2022-01-16T10:44:08.000Z</time>
      </trkpt>
      <trkpt lat="50.69088" lon="5.30629">
        <ele>110.80000305176</ele>
        <time>2022-01-16T10:44:06.000Z</time>
      </trkpt>
      <trkpt lat="50.69093" lon="5.30604">
        <ele>110.80000305176</ele>
        <time>2022-01-16T10:44:03.000Z</time>
      </trkpt>
      <trkpt lat="50.69107" lon="5.30541">
        <ele>112.40000152588</ele>
        <time>2022-01-16T10:43:56.000Z</time>
      </trkpt>
      <trkpt lat="50.69109" lon="5.30531">
        <ele>112.80000305176</ele>
        <time>2022-01-16T10:43:55.000Z</time>
      </trkpt>
      <trkpt lat="50.69127" lon="5.30471">
        <ele>113.80000305176</ele>
        <time>2022-01-16T10:43:49.000Z</time>
      </trkpt>
      <trkpt lat="50.6913" lon="5.3046">
        <ele>114</ele>
        <time>2022-01-16T10:43:48.000Z</time>
      </trkpt>
      <trkpt lat="50.69142" lon="5.3042">
        <ele>115.80000305176</ele>
        <time>2022-01-16T10:43:44.000Z</time>
      </trkpt>
      <trkpt lat="50.69156" lon="5.30369">
        <ele>117.19999694824</ele>
        <time>2022-01-16T10:43:39.000Z</time>
      </trkpt>
      <trkpt lat="50.69166" lon="5.30327">
        <ele>118.40000152588</ele>
        <time>2022-01-16T10:43:35.000Z</time>
      </trkpt>
      <trkpt lat="50.69171" lon="5.30306">
        <ele>118.59999847412</ele>
        <time>2022-01-16T10:43:33.000Z</time>
      </trkpt>
      <trkpt lat="50.69173" lon="5.30296">
        <ele>119</ele>
        <time>2022-01-16T10:43:32.000Z</time>
      </trkpt>
      <trkpt lat="50.69179" lon="5.3026">
        <ele>119.40000152588</ele>
        <time>2022-01-16T10:43:28.000Z</time>
      </trkpt>
      <trkpt lat="50.69181" lon="5.30252">
        <ele>119.40000152588</ele>
        <time>2022-01-16T10:43:27.000Z</time>
      </trkpt>
      <trkpt lat="50.69183" lon="5.30237">
        <ele>119.40000152588</ele>
        <time>2022-01-16T10:43:25.000Z</time>
      </trkpt>
      <trkpt lat="50.69185" lon="5.30231">
        <ele>119.40000152588</ele>
        <time>2022-01-16T10:43:24.000Z</time>
      </trkpt>
      <trkpt lat="50.69188" lon="5.30216">
        <ele>119.40000152588</ele>
        <time>2022-01-16T10:43:22.000Z</time>
      </trkpt>
      <trkpt lat="50.69197" lon="5.3017">
        <ele>117.80000305176</ele>
        <time>2022-01-16T10:43:16.000Z</time>
      </trkpt>
      <trkpt lat="50.69202" lon="5.30122">
        <ele>116.80000305176</ele>
        <time>2022-01-16T10:43:10.000Z</time>
      </trkpt>
      <trkpt lat="50.69202" lon="5.30106">
        <ele>116.19999694824</ele>
        <time>2022-01-16T10:43:08.000Z</time>
      </trkpt>
      <trkpt lat="50.69205" lon="5.30045">
        <ele>115.19999694824</ele>
        <time>2022-01-16T10:43:01.000Z</time>
      </trkpt>
      <trkpt lat="50.69206" lon="5.30035">
        <ele>115.19999694824</ele>
        <time>2022-01-16T10:43:00.000Z</time>
      </trkpt>
      <trkpt lat="50.69208" lon="5.29979">
        <ele>114.59999847412</ele>
        <time>2022-01-16T10:42:54.000Z</time>
      </trkpt>
      <trkpt lat="50.69209" lon="5.29952">
        <ele>113.59999847412</ele>
        <time>2022-01-16T10:42:51.000Z</time>
      </trkpt>
      <trkpt lat="50.69212" lon="5.29899">
        <ele>112.40000152588</ele>
        <time>2022-01-16T10:42:44.000Z</time>
      </trkpt>
      <trkpt lat="50.69212" lon="5.29892">
        <ele>112.40000152588</ele>
        <time>2022-01-16T10:42:43.000Z</time>
      </trkpt>
      <trkpt lat="50.69213" lon="5.2986">
        <ele>111.80000305176</ele>
        <time>2022-01-16T10:42:39.000Z</time>
      </trkpt>
      <trkpt lat="50.69215" lon="5.29813">
        <ele>111.40000152588</ele>
        <time>2022-01-16T10:42:34.000Z</time>
      </trkpt>
      <trkpt lat="50.69216" lon="5.29804">
        <ele>111.19999694824</ele>
        <time>2022-01-16T10:42:33.000Z</time>
      </trkpt>
      <trkpt lat="50.69215" lon="5.29728">
        <ele>110.19999694824</ele>
        <time>2022-01-16T10:42:25.000Z</time>
      </trkpt>
      <trkpt lat="50.69214" lon="5.29708">
        <ele>110.19999694824</ele>
        <time>2022-01-16T10:42:23.000Z</time>
      </trkpt>
      <trkpt lat="50.69207" lon="5.29646">
        <ele>109.40000152588</ele>
        <time>2022-01-16T10:42:17.000Z</time>
      </trkpt>
      <trkpt lat="50.69197" lon="5.29582">
        <ele>108.19999694824</ele>
        <time>2022-01-16T10:42:11.000Z</time>
      </trkpt>
      <trkpt lat="50.69191" lon="5.2954">
        <ele>108</ele>
        <time>2022-01-16T10:42:07.000Z</time>
      </trkpt>
      <trkpt lat="50.69188" lon="5.29519">
        <ele>107.59999847412</ele>
        <time>2022-01-16T10:42:05.000Z</time>
      </trkpt>
      <trkpt lat="50.69178" lon="5.29447">
        <ele>107</ele>
        <time>2022-01-16T10:41:58.000Z</time>
      </trkpt>
      <trkpt lat="50.69174" lon="5.29393">
        <ele>107</ele>
        <time>2022-01-16T10:41:53.000Z</time>
      </trkpt>
      <trkpt lat="50.69173" lon="5.2937">
        <ele>107</ele>
        <time>2022-01-16T10:41:51.000Z</time>
      </trkpt>
      <trkpt lat="50.69176" lon="5.29293">
        <ele>107.80000305176</ele>
        <time>2022-01-16T10:41:44.000Z</time>
      </trkpt>
      <trkpt lat="50.69177" lon="5.29283">
        <ele>107.80000305176</ele>
        <time>2022-01-16T10:41:43.000Z</time>
      </trkpt>
      <trkpt lat="50.6918" lon="5.29257">
        <ele>107.80000305176</ele>
        <time>2022-01-16T10:41:40.000Z</time>
      </trkpt>
      <trkpt lat="50.69182" lon="5.29242">
        <ele>108</ele>
        <time>2022-01-16T10:41:38.000Z</time>
      </trkpt>
      <trkpt lat="50.69192" lon="5.29185">
        <ele>108.59999847412</ele>
        <time>2022-01-16T10:41:32.000Z</time>
      </trkpt>
      <trkpt lat="50.69194" lon="5.29175">
        <ele>108.40000152588</ele>
        <time>2022-01-16T10:41:31.000Z</time>
      </trkpt>
      <trkpt lat="50.69202" lon="5.29133">
        <ele>108.59999847412</ele>
        <time>2022-01-16T10:41:27.000Z</time>
      </trkpt>
      <trkpt lat="50.69213" lon="5.2908">
        <ele>109.59999847412</ele>
        <time>2022-01-16T10:41:22.000Z</time>
      </trkpt>
      <trkpt lat="50.69215" lon="5.29069">
        <ele>109.80000305176</ele>
        <time>2022-01-16T10:41:21.000Z</time>
      </trkpt>
      <trkpt lat="50.69229" lon="5.28999">
        <ele>111.40000152588</ele>
        <time>2022-01-16T10:41:14.000Z</time>
      </trkpt>
      <trkpt lat="50.69232" lon="5.2899">
        <ele>111.59999847412</ele>
        <time>2022-01-16T10:41:13.000Z</time>
      </trkpt>
      <trkpt lat="50.69241" lon="5.28949">
        <ele>111.80000305176</ele>
        <time>2022-01-16T10:41:08.000Z</time>
      </trkpt>
      <trkpt lat="50.69254" lon="5.28888">
        <ele>112.59999847412</ele>
        <time>2022-01-16T10:41:00.000Z</time>
      </trkpt>
      <trkpt lat="50.69257" lon="5.28871">
        <ele>112.59999847412</ele>
        <time>2022-01-16T10:40:58.000Z</time>
      </trkpt>
      <trkpt lat="50.6927" lon="5.28815">
        <ele>112.19999694824</ele>
        <time>2022-01-16T10:40:52.000Z</time>
      </trkpt>
      <trkpt lat="50.69284" lon="5.28748">
        <ele>109.59999847412</ele>
        <time>2022-01-16T10:40:44.000Z</time>
      </trkpt>
      <trkpt lat="50.69286" lon="5.28739">
        <ele>109.40000152588</ele>
        <time>2022-01-16T10:40:43.000Z</time>
      </trkpt>
      <trkpt lat="50.69291" lon="5.28715">
        <ele>108.80000305176</ele>
        <time>2022-01-16T10:40:40.000Z</time>
      </trkpt>
      <trkpt lat="50.69298" lon="5.28683">
        <ele>107.19999694824</ele>
        <time>2022-01-16T10:40:36.000Z</time>
      </trkpt>
      <trkpt lat="50.693" lon="5.28675">
        <ele>107.19999694824</ele>
        <time>2022-01-16T10:40:35.000Z</time>
      </trkpt>
      <trkpt lat="50.6931" lon="5.28635">
        <ele>107</ele>
        <time>2022-01-16T10:40:30.000Z</time>
      </trkpt>
      <trkpt lat="50.69314" lon="5.28618">
        <ele>106.80000305176</ele>
        <time>2022-01-16T10:40:28.000Z</time>
      </trkpt>
      <trkpt lat="50.69317" lon="5.28609">
        <ele>106.80000305176</ele>
        <time>2022-01-16T10:40:27.000Z</time>
      </trkpt>
      <trkpt lat="50.69339" lon="5.28527">
        <ele>106</ele>
        <time>2022-01-16T10:40:18.000Z</time>
      </trkpt>
      <trkpt lat="50.69359" lon="5.28453">
        <ele>105.59999847412</ele>
        <time>2022-01-16T10:40:10.000Z</time>
      </trkpt>
      <trkpt lat="50.69363" lon="5.28435">
        <ele>105.40000152588</ele>
        <time>2022-01-16T10:40:08.000Z</time>
      </trkpt>
      <trkpt lat="50.69384" lon="5.28355">
        <ele>104.59999847412</ele>
        <time>2022-01-16T10:40:00.000Z</time>
      </trkpt>
      <trkpt lat="50.69396" lon="5.28305">
        <ele>104.40000152588</ele>
        <time>2022-01-16T10:39:55.000Z</time>
      </trkpt>
      <trkpt lat="50.69406" lon="5.28266">
        <ele>104.40000152588</ele>
        <time>2022-01-16T10:39:51.000Z</time>
      </trkpt>
      <trkpt lat="50.69411" lon="5.28247">
        <ele>104.40000152588</ele>
        <time>2022-01-16T10:39:49.000Z</time>
      </trkpt>
      <trkpt lat="50.69415" lon="5.28228">
        <ele>104.59999847412</ele>
        <time>2022-01-16T10:39:47.000Z</time>
      </trkpt>
      <trkpt lat="50.69428" lon="5.2818">
        <ele>104.80000305176</ele>
        <time>2022-01-16T10:39:42.000Z</time>
      </trkpt>
      <trkpt lat="50.6943" lon="5.2817">
        <ele>104.80000305176</ele>
        <time>2022-01-16T10:39:41.000Z</time>
      </trkpt>
      <trkpt lat="50.69437" lon="5.28141">
        <ele>104.80000305176</ele>
        <time>2022-01-16T10:39:38.000Z</time>
      </trkpt>
      <trkpt lat="50.6944" lon="5.28131">
        <ele>104.80000305176</ele>
        <time>2022-01-16T10:39:37.000Z</time>
      </trkpt>
      <trkpt lat="50.69447" lon="5.28101">
        <ele>104.80000305176</ele>
        <time>2022-01-16T10:39:34.000Z</time>
      </trkpt>
      <trkpt lat="50.69467" lon="5.28022">
        <ele>105.19999694824</ele>
        <time>2022-01-16T10:39:26.000Z</time>
      </trkpt>
      <trkpt lat="50.69469" lon="5.28012">
        <ele>105.19999694824</ele>
        <time>2022-01-16T10:39:25.000Z</time>
      </trkpt>
      <trkpt lat="50.69492" lon="5.27926">
        <ele>105.59999847412</ele>
        <time>2022-01-16T10:39:16.000Z</time>
      </trkpt>
      <trkpt lat="50.69497" lon="5.27906">
        <ele>105.59999847412</ele>
        <time>2022-01-16T10:39:14.000Z</time>
      </trkpt>
      <trkpt lat="50.69519" lon="5.27826">
        <ele>106</ele>
        <time>2022-01-16T10:39:06.000Z</time>
      </trkpt>
      <trkpt lat="50.69541" lon="5.27742">
        <ele>107.19999694824</ele>
        <time>2022-01-16T10:38:58.000Z</time>
      </trkpt>
      <trkpt lat="50.69544" lon="5.27731">
        <ele>107.19999694824</ele>
        <time>2022-01-16T10:38:57.000Z</time>
      </trkpt>
      <trkpt lat="50.6955" lon="5.27709">
        <ele>107.59999847412</ele>
        <time>2022-01-16T10:38:55.000Z</time>
      </trkpt>
      <trkpt lat="50.69559" lon="5.27663">
        <ele>108.59999847412</ele>
        <time>2022-01-16T10:38:51.000Z</time>
      </trkpt>
      <trkpt lat="50.69564" lon="5.27593">
        <ele>109.59999847412</ele>
        <time>2022-01-16T10:38:45.000Z</time>
      </trkpt>
      <trkpt lat="50.69565" lon="5.27582">
        <ele>109.80000305176</ele>
        <time>2022-01-16T10:38:44.000Z</time>
      </trkpt>
      <trkpt lat="50.69566" lon="5.27551">
        <ele>111</ele>
        <time>2022-01-16T10:38:41.000Z</time>
      </trkpt>
      <trkpt lat="50.69568" lon="5.27509">
        <ele>111.59999847412</ele>
        <time>2022-01-16T10:38:37.000Z</time>
      </trkpt>
      <trkpt lat="50.6957" lon="5.27465">
        <ele>112</ele>
        <time>2022-01-16T10:38:33.000Z</time>
      </trkpt>
      <trkpt lat="50.69569" lon="5.27443">
        <ele>112.19999694824</ele>
        <time>2022-01-16T10:38:31.000Z</time>
      </trkpt>
      <trkpt lat="50.69568" lon="5.27421">
        <ele>112.40000152588</ele>
        <time>2022-01-16T10:38:29.000Z</time>
      </trkpt>
      <trkpt lat="50.69565" lon="5.27381">
        <ele>112.40000152588</ele>
        <time>2022-01-16T10:38:25.000Z</time>
      </trkpt>
      <trkpt lat="50.69562" lon="5.27303">
        <ele>111.59999847412</ele>
        <time>2022-01-16T10:38:16.000Z</time>
      </trkpt>
      <trkpt lat="50.69562" lon="5.27246">
        <ele>110.59999847412</ele>
        <time>2022-01-16T10:38:09.000Z</time>
      </trkpt>
      <trkpt lat="50.69563" lon="5.27229">
        <ele>110.59999847412</ele>
        <time>2022-01-16T10:38:07.000Z</time>
      </trkpt>
      <trkpt lat="50.69567" lon="5.27179">
        <ele>109.19999694824</ele>
        <time>2022-01-16T10:38:01.000Z</time>
      </trkpt>
      <trkpt lat="50.69573" lon="5.27119">
        <ele>108.19999694824</ele>
        <time>2022-01-16T10:37:54.000Z</time>
      </trkpt>
      <trkpt lat="50.69574" lon="5.27102">
        <ele>108.19999694824</ele>
        <time>2022-01-16T10:37:52.000Z</time>
      </trkpt>
      <trkpt lat="50.69575" lon="5.27093">
        <ele>108.19999694824</ele>
        <time>2022-01-16T10:37:51.000Z</time>
      </trkpt>
      <trkpt lat="50.69582" lon="5.27012">
        <ele>107.40000152588</ele>
        <time>2022-01-16T10:37:42.000Z</time>
      </trkpt>
      <trkpt lat="50.69584" lon="5.26985">
        <ele>107.19999694824</ele>
        <time>2022-01-16T10:37:39.000Z</time>
      </trkpt>
      <trkpt lat="50.69589" lon="5.26911">
        <ele>106.40000152588</ele>
        <time>2022-01-16T10:37:31.000Z</time>
      </trkpt>
      <trkpt lat="50.69594" lon="5.26845">
        <ele>105.59999847412</ele>
        <time>2022-01-16T10:37:24.000Z</time>
      </trkpt>
      <trkpt lat="50.69597" lon="5.26826">
        <ele>105.40000152588</ele>
        <time>2022-01-16T10:37:22.000Z</time>
      </trkpt>
      <trkpt lat="50.69602" lon="5.26789">
        <ele>104.80000305176</ele>
        <time>2022-01-16T10:37:18.000Z</time>
      </trkpt>
      <trkpt lat="50.69607" lon="5.26761">
        <ele>104.40000152588</ele>
        <time>2022-01-16T10:37:15.000Z</time>
      </trkpt>
      <trkpt lat="50.69611" lon="5.26733">
        <ele>104.19999694824</ele>
        <time>2022-01-16T10:37:12.000Z</time>
      </trkpt>
      <trkpt lat="50.69613" lon="5.26724">
        <ele>104.19999694824</ele>
        <time>2022-01-16T10:37:11.000Z</time>
      </trkpt>
      <trkpt lat="50.69622" lon="5.26679">
        <ele>103.40000152588</ele>
        <time>2022-01-16T10:37:06.000Z</time>
      </trkpt>
      <trkpt lat="50.69628" lon="5.26652">
        <ele>103.80000305176</ele>
        <time>2022-01-16T10:37:03.000Z</time>
      </trkpt>
      <trkpt lat="50.69633" lon="5.26635">
        <ele>103.80000305176</ele>
        <time>2022-01-16T10:37:01.000Z</time>
      </trkpt>
      <trkpt lat="50.6965" lon="5.26562">
        <ele>103.59999847412</ele>
        <time>2022-01-16T10:36:53.000Z</time>
      </trkpt>
      <trkpt lat="50.69655" lon="5.26543">
        <ele>103.59999847412</ele>
        <time>2022-01-16T10:36:51.000Z</time>
      </trkpt>
      <trkpt lat="50.69659" lon="5.26523">
        <ele>103.59999847412</ele>
        <time>2022-01-16T10:36:49.000Z</time>
      </trkpt>
      <trkpt lat="50.69678" lon="5.26445">
        <ele>103.19999694824</ele>
        <time>2022-01-16T10:36:41.000Z</time>
      </trkpt>
      <trkpt lat="50.69701" lon="5.26359">
        <ele>103.59999847412</ele>
        <time>2022-01-16T10:36:32.000Z</time>
      </trkpt>
      <trkpt lat="50.69718" lon="5.26303">
        <ele>104.19999694824</ele>
        <time>2022-01-16T10:36:26.000Z</time>
      </trkpt>
      <trkpt lat="50.69721" lon="5.26293">
        <ele>104.40000152588</ele>
        <time>2022-01-16T10:36:25.000Z</time>
      </trkpt>
      <trkpt lat="50.69726" lon="5.26275">
        <ele>104.59999847412</ele>
        <time>2022-01-16T10:36:23.000Z</time>
      </trkpt>
      <trkpt lat="50.69737" lon="5.26241">
        <ele>104.59999847412</ele>
        <time>2022-01-16T10:36:19.000Z</time>
      </trkpt>
      <trkpt lat="50.69745" lon="5.26216">
        <ele>104.59999847412</ele>
        <time>2022-01-16T10:36:16.000Z</time>
      </trkpt>
      <trkpt lat="50.69768" lon="5.26144">
        <ele>105</ele>
        <time>2022-01-16T10:36:07.000Z</time>
      </trkpt>
      <trkpt lat="50.69777" lon="5.26115">
        <ele>105.19999694824</ele>
        <time>2022-01-16T10:36:03.000Z</time>
      </trkpt>
      <trkpt lat="50.69781" lon="5.26101">
        <ele>105.19999694824</ele>
        <time>2022-01-16T10:36:01.000Z</time>
      </trkpt>
      <trkpt lat="50.69786" lon="5.26088">
        <ele>105.19999694824</ele>
        <time>2022-01-16T10:35:59.000Z</time>
      </trkpt>
      <trkpt lat="50.69788" lon="5.26081">
        <ele>105</ele>
        <time>2022-01-16T10:35:58.000Z</time>
      </trkpt>
      <trkpt lat="50.69791" lon="5.26066">
        <ele>105</ele>
        <time>2022-01-16T10:35:56.000Z</time>
      </trkpt>
      <trkpt lat="50.69795" lon="5.26052">
        <ele>105</ele>
        <time>2022-01-16T10:35:54.000Z</time>
      </trkpt>
      <trkpt lat="50.69801" lon="5.2604">
        <ele>104.59999847412</ele>
        <time>2022-01-16T10:35:52.000Z</time>
      </trkpt>
      <trkpt lat="50.69805" lon="5.26036">
        <ele>104.59999847412</ele>
        <time>2022-01-16T10:35:51.000Z</time>
      </trkpt>
      <trkpt lat="50.69808" lon="5.26034">
        <ele>104.80000305176</ele>
        <time>2022-01-16T10:35:50.000Z</time>
      </trkpt>
      <trkpt lat="50.69814" lon="5.26038">
        <ele>104.59999847412</ele>
        <time>2022-01-16T10:35:48.000Z</time>
      </trkpt>
      <trkpt lat="50.69816" lon="5.26043">
        <ele>104.59999847412</ele>
        <time>2022-01-16T10:35:47.000Z</time>
      </trkpt>
      <trkpt lat="50.69816" lon="5.26049">
        <ele>104.19999694824</ele>
        <time>2022-01-16T10:35:46.000Z</time>
      </trkpt>
      <trkpt lat="50.69814" lon="5.26061">
        <ele>104</ele>
        <time>2022-01-16T10:35:44.000Z</time>
      </trkpt>
      <trkpt lat="50.69813" lon="5.26074">
        <ele>103.80000305176</ele>
        <time>2022-01-16T10:35:42.000Z</time>
      </trkpt>
      <trkpt lat="50.69816" lon="5.26097">
        <ele>103.40000152588</ele>
        <time>2022-01-16T10:35:38.000Z</time>
      </trkpt>
      <trkpt lat="50.69822" lon="5.26139">
        <ele>102.59999847412</ele>
        <time>2022-01-16T10:35:31.000Z</time>
      </trkpt>
      <trkpt lat="50.69824" lon="5.2616">
        <ele>102.40000152588</ele>
        <time>2022-01-16T10:35:28.000Z</time>
      </trkpt>
      <trkpt lat="50.69829" lon="5.26193">
        <ele>102.40000152588</ele>
        <time>2022-01-16T10:35:24.000Z</time>
      </trkpt>
      <trkpt lat="50.69837" lon="5.26247">
        <ele>102.19999694824</ele>
        <time>2022-01-16T10:35:18.000Z</time>
      </trkpt>
      <trkpt lat="50.69853" lon="5.26307">
        <ele>102.19999694824</ele>
        <time>2022-01-16T10:35:11.000Z</time>
      </trkpt>
      <trkpt lat="50.6988" lon="5.26388">
        <ele>102.40000152588</ele>
        <time>2022-01-16T10:35:01.000Z</time>
      </trkpt>
      <trkpt lat="50.69904" lon="5.26458">
        <ele>102.80000305176</ele>
        <time>2022-01-16T10:34:52.000Z</time>
      </trkpt>
      <trkpt lat="50.69911" lon="5.26481">
        <ele>103.19999694824</ele>
        <time>2022-01-16T10:34:49.000Z</time>
      </trkpt>
      <trkpt lat="50.69924" lon="5.2652">
        <ele>103.80000305176</ele>
        <time>2022-01-16T10:34:44.000Z</time>
      </trkpt>
      <trkpt lat="50.69942" lon="5.26557">
        <ele>104.19999694824</ele>
        <time>2022-01-16T10:34:39.000Z</time>
      </trkpt>
      <trkpt lat="50.69954" lon="5.26578">
        <ele>104.19999694824</ele>
        <time>2022-01-16T10:34:36.000Z</time>
      </trkpt>
      <trkpt lat="50.69981" lon="5.26625">
        <ele>104.40000152588</ele>
        <time>2022-01-16T10:34:29.000Z</time>
      </trkpt>
      <trkpt lat="50.69989" lon="5.26638">
        <ele>104.40000152588</ele>
        <time>2022-01-16T10:34:27.000Z</time>
      </trkpt>
      <trkpt lat="50.70016" lon="5.26686">
        <ele>105</ele>
        <time>2022-01-16T10:34:20.000Z</time>
      </trkpt>
      <trkpt lat="50.7002" lon="5.26693">
        <ele>105.19999694824</ele>
        <time>2022-01-16T10:34:19.000Z</time>
      </trkpt>
      <trkpt lat="50.70038" lon="5.2672">
        <ele>105.59999847412</ele>
        <time>2022-01-16T10:34:15.000Z</time>
      </trkpt>
      <trkpt lat="50.70048" lon="5.26732">
        <ele>105.80000305176</ele>
        <time>2022-01-16T10:34:13.000Z</time>
      </trkpt>
      <trkpt lat="50.70058" lon="5.26742">
        <ele>105.80000305176</ele>
        <time>2022-01-16T10:34:11.000Z</time>
      </trkpt>
      <trkpt lat="50.70099" lon="5.26774">
        <ele>106.80000305176</ele>
        <time>2022-01-16T10:34:03.000Z</time>
      </trkpt>
      <trkpt lat="50.70115" lon="5.26786">
        <ele>106.80000305176</ele>
        <time>2022-01-16T10:34:00.000Z</time>
      </trkpt>
      <trkpt lat="50.70151" lon="5.26814">
        <ele>107.40000152588</ele>
        <time>2022-01-16T10:33:53.000Z</time>
      </trkpt>
      <trkpt lat="50.70183" lon="5.26838">
        <ele>107.40000152588</ele>
        <time>2022-01-16T10:33:47.000Z</time>
      </trkpt>
      <trkpt lat="50.70209" lon="5.26858">
        <ele>107.19999694824</ele>
        <time>2022-01-16T10:33:42.000Z</time>
      </trkpt>
      <trkpt lat="50.70219" lon="5.26867">
        <ele>107</ele>
        <time>2022-01-16T10:33:40.000Z</time>
      </trkpt>
      <trkpt lat="50.70245" lon="5.26896">
        <ele>106.80000305176</ele>
        <time>2022-01-16T10:33:34.000Z</time>
      </trkpt>
      <trkpt lat="50.70278" lon="5.26946">
        <ele>106.19999694824</ele>
        <time>2022-01-16T10:33:25.000Z</time>
      </trkpt>
      <trkpt lat="50.70285" lon="5.26957">
        <ele>105.80000305176</ele>
        <time>2022-01-16T10:33:23.000Z</time>
      </trkpt>
      <trkpt lat="50.70325" lon="5.27019">
        <ele>105.40000152588</ele>
        <time>2022-01-16T10:33:12.000Z</time>
      </trkpt>
      <trkpt lat="50.70329" lon="5.27024">
        <ele>105</ele>
        <time>2022-01-16T10:33:11.000Z</time>
      </trkpt>
      <trkpt lat="50.70351" lon="5.27053">
        <ele>105.19999694824</ele>
        <time>2022-01-16T10:33:06.000Z</time>
      </trkpt>
      <trkpt lat="50.70399" lon="5.27099">
        <ele>107.59999847412</ele>
        <time>2022-01-16T10:32:57.000Z</time>
      </trkpt>
      <trkpt lat="50.70411" lon="5.2711">
        <ele>109</ele>
        <time>2022-01-16T10:32:55.000Z</time>
      </trkpt>
      <trkpt lat="50.70436" lon="5.27134">
        <ele>110</ele>
        <time>2022-01-16T10:32:51.000Z</time>
      </trkpt>
      <trkpt lat="50.70449" lon="5.27147">
        <ele>110.80000305176</ele>
        <time>2022-01-16T10:32:49.000Z</time>
      </trkpt>
      <trkpt lat="50.70456" lon="5.27153">
        <ele>111</ele>
        <time>2022-01-16T10:32:48.000Z</time>
      </trkpt>
      <trkpt lat="50.70467" lon="5.27164">
        <ele>111.19999694824</ele>
        <time>2022-01-16T10:32:46.000Z</time>
      </trkpt>
      <trkpt lat="50.70488" lon="5.27185">
        <ele>111.80000305176</ele>
        <time>2022-01-16T10:32:42.000Z</time>
      </trkpt>
      <trkpt lat="50.70498" lon="5.27195">
        <ele>111.80000305176</ele>
        <time>2022-01-16T10:32:40.000Z</time>
      </trkpt>
      <trkpt lat="50.70523" lon="5.27219">
        <ele>111.80000305176</ele>
        <time>2022-01-16T10:32:34.000Z</time>
      </trkpt>
      <trkpt lat="50.70562" lon="5.27257">
        <ele>111.40000152588</ele>
        <time>2022-01-16T10:32:23.000Z</time>
      </trkpt>
      <trkpt lat="50.70592" lon="5.27286">
        <ele>110.40000152588</ele>
        <time>2022-01-16T10:32:13.000Z</time>
      </trkpt>
      <trkpt lat="50.70611" lon="5.27304">
        <ele>109.40000152588</ele>
        <time>2022-01-16T10:32:06.000Z</time>
      </trkpt>
      <trkpt lat="50.70616" lon="5.2731">
        <ele>108.80000305176</ele>
        <time>2022-01-16T10:32:04.000Z</time>
      </trkpt>
      <trkpt lat="50.70627" lon="5.2732">
        <ele>108.19999694824</ele>
        <time>2022-01-16T10:32:00.000Z</time>
      </trkpt>
      <trkpt lat="50.70641" lon="5.27334">
        <ele>106.59999847412</ele>
        <time>2022-01-16T10:31:55.000Z</time>
      </trkpt>
      <trkpt lat="50.70644" lon="5.27337">
        <ele>106.19999694824</ele>
        <time>2022-01-16T10:31:54.000Z</time>
      </trkpt>
      <trkpt lat="50.70665" lon="5.27357">
        <ele>105.19999694824</ele>
        <time>2022-01-16T10:31:47.000Z</time>
      </trkpt>
      <trkpt lat="50.70669" lon="5.2736">
        <ele>104.80000305176</ele>
        <time>2022-01-16T10:31:46.000Z</time>
      </trkpt>
      <trkpt lat="50.70675" lon="5.27367">
        <ele>104.40000152588</ele>
        <time>2022-01-16T10:31:44.000Z</time>
      </trkpt>
      <trkpt lat="50.70691" lon="5.27386">
        <ele>103</ele>
        <time>2022-01-16T10:31:39.000Z</time>
      </trkpt>
      <trkpt lat="50.70694" lon="5.2739">
        <ele>103</ele>
        <time>2022-01-16T10:31:38.000Z</time>
      </trkpt>
      <trkpt lat="50.70711" lon="5.27412">
        <ele>102.19999694824</ele>
        <time>2022-01-16T10:31:33.000Z</time>
      </trkpt>
      <trkpt lat="50.7072" lon="5.27427">
        <ele>101.59999847412</ele>
        <time>2022-01-16T10:31:30.000Z</time>
      </trkpt>
      <trkpt lat="50.70732" lon="5.2745">
        <ele>101</ele>
        <time>2022-01-16T10:31:26.000Z</time>
      </trkpt>
      <trkpt lat="50.70749" lon="5.27481">
        <ele>100.40000152588</ele>
        <time>2022-01-16T10:31:20.000Z</time>
      </trkpt>
      <trkpt lat="50.70757" lon="5.27498">
        <ele>100</ele>
        <time>2022-01-16T10:31:17.000Z</time>
      </trkpt>
      <trkpt lat="50.7077" lon="5.27538">
        <ele>99.800003051758</ele>
        <time>2022-01-16T10:31:11.000Z</time>
      </trkpt>
      <trkpt lat="50.70775" lon="5.27552">
        <ele>99.599998474121</ele>
        <time>2022-01-16T10:31:09.000Z</time>
      </trkpt>
      <trkpt lat="50.70792" lon="5.27591">
        <ele>99.199996948242</ele>
        <time>2022-01-16T10:31:03.000Z</time>
      </trkpt>
      <trkpt lat="50.70796" lon="5.27597">
        <ele>99.199996948242</ele>
        <time>2022-01-16T10:31:02.000Z</time>
      </trkpt>
      <trkpt lat="50.70819" lon="5.27628">
        <ele>99</ele>
        <time>2022-01-16T10:30:56.000Z</time>
      </trkpt>
      <trkpt lat="50.70839" lon="5.27652">
        <ele>98.599998474121</ele>
        <time>2022-01-16T10:30:51.000Z</time>
      </trkpt>
      <trkpt lat="50.70862" lon="5.2768">
        <ele>98.199996948242</ele>
        <time>2022-01-16T10:30:45.000Z</time>
      </trkpt>
      <trkpt lat="50.70895" lon="5.27721">
        <ele>97.800003051758</ele>
        <time>2022-01-16T10:30:36.000Z</time>
      </trkpt>
      <trkpt lat="50.7093" lon="5.27752">
        <ele>97.400001525879</ele>
        <time>2022-01-16T10:30:27.000Z</time>
      </trkpt>
      <trkpt lat="50.70958" lon="5.27776">
        <ele>97</ele>
        <time>2022-01-16T10:30:19.000Z</time>
      </trkpt>
      <trkpt lat="50.70981" lon="5.27804">
        <ele>96.800003051758</ele>
        <time>2022-01-16T10:30:11.000Z</time>
      </trkpt>
      <trkpt lat="50.70998" lon="5.27824">
        <ele>96.800003051758</ele>
        <time>2022-01-16T10:30:04.000Z</time>
      </trkpt>
      <trkpt lat="50.71001" lon="5.27827">
        <ele>96.800003051758</ele>
        <time>2022-01-16T10:30:02.000Z</time>
      </trkpt>
      <trkpt lat="50.71015" lon="5.27839">
        <ele>95.800003051758</ele>
        <time>2022-01-16T10:02:04.000Z</time>
      </trkpt>
      <trkpt lat="50.71026" lon="5.27852">
        <ele>95.800003051758</ele>
        <time>2022-01-16T10:01:58.000Z</time>
      </trkpt>
      <trkpt lat="50.71042" lon="5.27876">
        <ele>95.800003051758</ele>
        <time>2022-01-16T10:01:53.000Z</time>
      </trkpt>
      <trkpt lat="50.71068" lon="5.27912">
        <ele>96</ele>
        <time>2022-01-16T10:01:47.000Z</time>
      </trkpt>
      <trkpt lat="50.71102" lon="5.27939">
        <ele>96.800003051758</ele>
        <time>2022-01-16T10:01:41.000Z</time>
      </trkpt>
      <trkpt lat="50.71148" lon="5.27962">
        <ele>98.800003051758</ele>
        <time>2022-01-16T10:01:34.000Z</time>
      </trkpt>
      <trkpt lat="50.71162" lon="5.27968">
        <ele>100</ele>
        <time>2022-01-16T10:01:32.000Z</time>
      </trkpt>
      <trkpt lat="50.71184" lon="5.27979">
        <ele>101.19999694824</ele>
        <time>2022-01-16T10:01:29.000Z</time>
      </trkpt>
      <trkpt lat="50.71198" lon="5.27987">
        <ele>101.80000305176</ele>
        <time>2022-01-16T10:01:27.000Z</time>
      </trkpt>
      <trkpt lat="50.7121" lon="5.27999">
        <ele>102.40000152588</ele>
        <time>2022-01-16T10:01:25.000Z</time>
      </trkpt>
      <trkpt lat="50.71215" lon="5.28007">
        <ele>102.80000305176</ele>
        <time>2022-01-16T10:01:24.000Z</time>
      </trkpt>
      <trkpt lat="50.71219" lon="5.28017">
        <ele>102.80000305176</ele>
        <time>2022-01-16T10:01:23.000Z</time>
      </trkpt>
      <trkpt lat="50.71226" lon="5.28047">
        <ele>103.40000152588</ele>
        <time>2022-01-16T10:01:20.000Z</time>
      </trkpt>
      <trkpt lat="50.7123" lon="5.28066">
        <ele>103.80000305176</ele>
        <time>2022-01-16T10:01:18.000Z</time>
      </trkpt>
      <trkpt lat="50.71233" lon="5.28084">
        <ele>104</ele>
        <time>2022-01-16T10:01:16.000Z</time>
      </trkpt>
      <trkpt lat="50.71241" lon="5.28115">
        <ele>104.19999694824</ele>
        <time>2022-01-16T10:01:12.000Z</time>
      </trkpt>
      <trkpt lat="50.71245" lon="5.28129">
        <ele>104.59999847412</ele>
        <time>2022-01-16T10:01:10.000Z</time>
      </trkpt>
      <trkpt lat="50.71251" lon="5.28142">
        <ele>104.80000305176</ele>
        <time>2022-01-16T10:01:08.000Z</time>
      </trkpt>
      <trkpt lat="50.71254" lon="5.28147">
        <ele>104.80000305176</ele>
        <time>2022-01-16T10:01:07.000Z</time>
      </trkpt>
      <trkpt lat="50.71259" lon="5.28148">
        <ele>104.80000305176</ele>
        <time>2022-01-16T10:01:06.000Z</time>
      </trkpt>
      <trkpt lat="50.71274" lon="5.28145">
        <ele>105.40000152588</ele>
        <time>2022-01-16T10:01:03.000Z</time>
      </trkpt>
      <trkpt lat="50.71279" lon="5.28144">
        <ele>105.59999847412</ele>
        <time>2022-01-16T10:01:02.000Z</time>
      </trkpt>
      <trkpt lat="50.71326" lon="5.28133">
        <ele>107.59999847412</ele>
        <time>2022-01-16T10:00:54.000Z</time>
      </trkpt>
      <trkpt lat="50.71338" lon="5.2813">
        <ele>107.80000305176</ele>
        <time>2022-01-16T10:00:52.000Z</time>
      </trkpt>
      <trkpt lat="50.7139" lon="5.28119">
        <ele>109.59999847412</ele>
        <time>2022-01-16T10:00:43.000Z</time>
      </trkpt>
      <trkpt lat="50.71401" lon="5.28117">
        <ele>109.59999847412</ele>
        <time>2022-01-16T10:00:41.000Z</time>
      </trkpt>
      <trkpt lat="50.71413" lon="5.28118">
        <ele>109.59999847412</ele>
        <time>2022-01-16T10:00:39.000Z</time>
      </trkpt>
      <trkpt lat="50.71422" lon="5.28122">
        <ele>109.59999847412</ele>
        <time>2022-01-16T10:00:37.000Z</time>
      </trkpt>
      <trkpt lat="50.7143" lon="5.2813">
        <ele>109.40000152588</ele>
        <time>2022-01-16T10:00:35.000Z</time>
      </trkpt>
      <trkpt lat="50.71435" lon="5.28142">
        <ele>109.19999694824</ele>
        <time>2022-01-16T10:00:33.000Z</time>
      </trkpt>
      <trkpt lat="50.71439" lon="5.28171">
        <ele>108.59999847412</ele>
        <time>2022-01-16T10:00:29.000Z</time>
      </trkpt>
      <trkpt lat="50.71443" lon="5.28228">
        <ele>108.40000152588</ele>
        <time>2022-01-16T10:00:22.000Z</time>
      </trkpt>
      <trkpt lat="50.71445" lon="5.28293">
        <ele>108.59999847412</ele>
        <time>2022-01-16T10:00:15.000Z</time>
      </trkpt>
      <trkpt lat="50.71449" lon="5.28352">
        <ele>108.80000305176</ele>
        <time>2022-01-16T10:00:09.000Z</time>
      </trkpt>
      <trkpt lat="50.71453" lon="5.2837">
        <ele>108.59999847412</ele>
        <time>2022-01-16T10:00:07.000Z</time>
      </trkpt>
      <trkpt lat="50.71455" lon="5.28378">
        <ele>108.59999847412</ele>
        <time>2022-01-16T10:00:06.000Z</time>
      </trkpt>
      <trkpt lat="50.71464" lon="5.28401">
        <ele>108.59999847412</ele>
        <time>2022-01-16T10:00:03.000Z</time>
      </trkpt>
      <trkpt lat="50.7148" lon="5.28426">
        <ele>107.59999847412</ele>
        <time>2022-01-16T09:59:59.000Z</time>
      </trkpt>
      <trkpt lat="50.71488" lon="5.28436">
        <ele>107.19999694824</ele>
        <time>2022-01-16T09:59:57.000Z</time>
      </trkpt>
      <trkpt lat="50.71518" lon="5.28464">
        <ele>105.40000152588</ele>
        <time>2022-01-16T09:59:50.000Z</time>
      </trkpt>
      <trkpt lat="50.71527" lon="5.28473">
        <ele>105.19999694824</ele>
        <time>2022-01-16T09:59:48.000Z</time>
      </trkpt>
      <trkpt lat="50.71545" lon="5.2849">
        <ele>105</ele>
        <time>2022-01-16T09:59:44.000Z</time>
      </trkpt>
      <trkpt lat="50.71575" lon="5.28519">
        <ele>105.19999694824</ele>
        <time>2022-01-16T09:59:38.000Z</time>
      </trkpt>
      <trkpt lat="50.71612" lon="5.28561">
        <ele>105.40000152588</ele>
        <time>2022-01-16T09:59:31.000Z</time>
      </trkpt>
      <trkpt lat="50.71639" lon="5.28611">
        <ele>105.40000152588</ele>
        <time>2022-01-16T09:59:24.000Z</time>
      </trkpt>
      <trkpt lat="50.71643" lon="5.28618">
        <ele>105.40000152588</ele>
        <time>2022-01-16T09:59:23.000Z</time>
      </trkpt>
      <trkpt lat="50.71679" lon="5.28691">
        <ele>105.80000305176</ele>
        <time>2022-01-16T09:59:14.000Z</time>
      </trkpt>
      <trkpt lat="50.71704" lon="5.28741">
        <ele>107.59999847412</ele>
        <time>2022-01-16T09:59:08.000Z</time>
      </trkpt>
      <trkpt lat="50.71716" lon="5.28767">
        <ele>108.40000152588</ele>
        <time>2022-01-16T09:59:05.000Z</time>
      </trkpt>
      <trkpt lat="50.7173" lon="5.28794">
        <ele>108.80000305176</ele>
        <time>2022-01-16T09:59:02.000Z</time>
      </trkpt>
      <trkpt lat="50.71745" lon="5.28821">
        <ele>109.59999847412</ele>
        <time>2022-01-16T09:58:59.000Z</time>
      </trkpt>
      <trkpt lat="50.71751" lon="5.2883">
        <ele>109.80000305176</ele>
        <time>2022-01-16T09:58:58.000Z</time>
      </trkpt>
      <trkpt lat="50.71778" lon="5.28867">
        <ele>111.40000152588</ele>
        <time>2022-01-16T09:58:53.000Z</time>
      </trkpt>
      <trkpt lat="50.71795" lon="5.28883">
        <ele>112.40000152588</ele>
        <time>2022-01-16T09:58:50.000Z</time>
      </trkpt>
      <trkpt lat="50.71812" lon="5.28893">
        <ele>112.40000152588</ele>
        <time>2022-01-16T09:58:47.000Z</time>
      </trkpt>
      <trkpt lat="50.71828" lon="5.28901">
        <ele>112.40000152588</ele>
        <time>2022-01-16T09:58:44.000Z</time>
      </trkpt>
      <trkpt lat="50.71853" lon="5.28915">
        <ele>112.59999847412</ele>
        <time>2022-01-16T09:58:39.000Z</time>
      </trkpt>
      <trkpt lat="50.71864" lon="5.28921">
        <ele>112.40000152588</ele>
        <time>2022-01-16T09:58:37.000Z</time>
      </trkpt>
      <trkpt lat="50.71881" lon="5.28934">
        <ele>112.19999694824</ele>
        <time>2022-01-16T09:58:34.000Z</time>
      </trkpt>
      <trkpt lat="50.71897" lon="5.28952">
        <ele>112.19999694824</ele>
        <time>2022-01-16T09:58:31.000Z</time>
      </trkpt>
      <trkpt lat="50.71913" lon="5.28969">
        <ele>112</ele>
        <time>2022-01-16T09:58:28.000Z</time>
      </trkpt>
      <trkpt lat="50.71925" lon="5.28983">
        <ele>111.59999847412</ele>
        <time>2022-01-16T09:58:25.000Z</time>
      </trkpt>
      <trkpt lat="50.71931" lon="5.28991">
        <ele>111.19999694824</ele>
        <time>2022-01-16T09:58:23.000Z</time>
      </trkpt>
      <trkpt lat="50.71934" lon="5.28994">
        <ele>111</ele>
        <time>2022-01-16T09:58:22.000Z</time>
      </trkpt>
      <trkpt lat="50.71953" lon="5.29017">
        <ele>111.19999694824</ele>
        <time>2022-01-16T09:58:16.000Z</time>
      </trkpt>
      <trkpt lat="50.71957" lon="5.29021">
        <ele>111.19999694824</ele>
        <time>2022-01-16T09:58:15.000Z</time>
      </trkpt>
      <trkpt lat="50.71978" lon="5.29054">
        <ele>111.80000305176</ele>
        <time>2022-01-16T09:58:09.000Z</time>
      </trkpt>
      <trkpt lat="50.72004" lon="5.29125">
        <ele>112.59999847412</ele>
        <time>2022-01-16T09:57:59.000Z</time>
      </trkpt>
      <trkpt lat="50.72009" lon="5.29139">
        <ele>112.80000305176</ele>
        <time>2022-01-16T09:57:57.000Z</time>
      </trkpt>
      <trkpt lat="50.72025" lon="5.2917">
        <ele>112.59999847412</ele>
        <time>2022-01-16T09:57:52.000Z</time>
      </trkpt>
      <trkpt lat="50.72028" lon="5.29175">
        <ele>112.40000152588</ele>
        <time>2022-01-16T09:57:51.000Z</time>
      </trkpt>
      <trkpt lat="50.72044" lon="5.29199">
        <ele>112.40000152588</ele>
        <time>2022-01-16T09:57:46.000Z</time>
      </trkpt>
      <trkpt lat="50.72061" lon="5.29222">
        <ele>111.59999847412</ele>
        <time>2022-01-16T09:57:41.000Z</time>
      </trkpt>
      <trkpt lat="50.72067" lon="5.2923">
        <ele>111</ele>
        <time>2022-01-16T09:57:39.000Z</time>
      </trkpt>
      <trkpt lat="50.72084" lon="5.29251">
        <ele>110</ele>
        <time>2022-01-16T09:57:34.000Z</time>
      </trkpt>
      <trkpt lat="50.72098" lon="5.29267">
        <ele>108.59999847412</ele>
        <time>2022-01-16T09:57:30.000Z</time>
      </trkpt>
      <trkpt lat="50.72105" lon="5.29275">
        <ele>108</ele>
        <time>2022-01-16T09:57:28.000Z</time>
      </trkpt>
      <trkpt lat="50.7212" lon="5.29289">
        <ele>107.19999694824</ele>
        <time>2022-01-16T09:57:24.000Z</time>
      </trkpt>
      <trkpt lat="50.72136" lon="5.29303">
        <ele>106.59999847412</ele>
        <time>2022-01-16T09:57:20.000Z</time>
      </trkpt>
      <trkpt lat="50.72167" lon="5.29338">
        <ele>105.59999847412</ele>
        <time>2022-01-16T09:57:12.000Z</time>
      </trkpt>
      <trkpt lat="50.72205" lon="5.294">
        <ele>105.40000152588</ele>
        <time>2022-01-16T09:57:01.000Z</time>
      </trkpt>
      <trkpt lat="50.72216" lon="5.29417">
        <ele>105.59999847412</ele>
        <time>2022-01-16T09:56:58.000Z</time>
      </trkpt>
      <trkpt lat="50.7226" lon="5.29474">
        <ele>105.19999694824</ele>
        <time>2022-01-16T09:56:47.000Z</time>
      </trkpt>
      <trkpt lat="50.72292" lon="5.29513">
        <ele>104.59999847412</ele>
        <time>2022-01-16T09:56:39.000Z</time>
      </trkpt>
      <trkpt lat="50.72296" lon="5.29517">
        <ele>104.59999847412</ele>
        <time>2022-01-16T09:56:38.000Z</time>
      </trkpt>
      <trkpt lat="50.72323" lon="5.29564">
        <ele>104.80000305176</ele>
        <time>2022-01-16T09:56:30.000Z</time>
      </trkpt>
      <trkpt lat="50.72343" lon="5.29615">
        <ele>105.40000152588</ele>
        <time>2022-01-16T09:56:23.000Z</time>
      </trkpt>
      <trkpt lat="50.72354" lon="5.29644">
        <ele>105.80000305176</ele>
        <time>2022-01-16T09:56:19.000Z</time>
      </trkpt>
      <trkpt lat="50.72372" lon="5.29689">
        <ele>106.40000152588</ele>
        <time>2022-01-16T09:56:13.000Z</time>
      </trkpt>
      <trkpt lat="50.72376" lon="5.29696">
        <ele>106.40000152588</ele>
        <time>2022-01-16T09:56:12.000Z</time>
      </trkpt>
      <trkpt lat="50.72407" lon="5.2977">
        <ele>107.59999847412</ele>
        <time>2022-01-16T09:56:02.000Z</time>
      </trkpt>
      <trkpt lat="50.7241" lon="5.29777">
        <ele>107.80000305176</ele>
        <time>2022-01-16T09:56:01.000Z</time>
      </trkpt>
      <trkpt lat="50.72413" lon="5.29785">
        <ele>107.80000305176</ele>
        <time>2022-01-16T09:56:00.000Z</time>
      </trkpt>
      <trkpt lat="50.72445" lon="5.2986">
        <ele>109.80000305176</ele>
        <time>2022-01-16T09:55:50.000Z</time>
      </trkpt>
      <trkpt lat="50.72458" lon="5.2989">
        <ele>110.19999694824</ele>
        <time>2022-01-16T09:55:46.000Z</time>
      </trkpt>
      <trkpt lat="50.72471" lon="5.2992">
        <ele>110.59999847412</ele>
        <time>2022-01-16T09:55:42.000Z</time>
      </trkpt>
      <trkpt lat="50.72475" lon="5.29928">
        <ele>110.59999847412</ele>
        <time>2022-01-16T09:55:41.000Z</time>
      </trkpt>
      <trkpt lat="50.72487" lon="5.29947">
        <ele>111</ele>
        <time>2022-01-16T09:55:38.000Z</time>
      </trkpt>
      <trkpt lat="50.72498" lon="5.29955">
        <ele>111.59999847412</ele>
        <time>2022-01-16T09:55:36.000Z</time>
      </trkpt>
      <trkpt lat="50.72509" lon="5.2996">
        <ele>112</ele>
        <time>2022-01-16T09:55:34.000Z</time>
      </trkpt>
      <trkpt lat="50.72515" lon="5.29962">
        <ele>112</ele>
        <time>2022-01-16T09:55:33.000Z</time>
      </trkpt>
      <trkpt lat="50.7255" lon="5.2997">
        <ele>113</ele>
        <time>2022-01-16T09:55:27.000Z</time>
      </trkpt>
      <trkpt lat="50.72572" lon="5.29974">
        <ele>113.40000152588</ele>
        <time>2022-01-16T09:55:23.000Z</time>
      </trkpt>
      <trkpt lat="50.72578" lon="5.29975">
        <ele>113.59999847412</ele>
        <time>2022-01-16T09:55:22.000Z</time>
      </trkpt>
      <trkpt lat="50.72628" lon="5.29986">
        <ele>114.80000305176</ele>
        <time>2022-01-16T09:55:12.000Z</time>
      </trkpt>
      <trkpt lat="50.72659" lon="5.29992">
        <ele>115</ele>
        <time>2022-01-16T09:55:05.000Z</time>
      </trkpt>
      <trkpt lat="50.72664" lon="5.29993">
        <ele>114.80000305176</ele>
        <time>2022-01-16T09:55:04.000Z</time>
      </trkpt>
      <trkpt lat="50.72689" lon="5.2999">
        <ele>114</ele>
        <time>2022-01-16T09:54:58.000Z</time>
      </trkpt>
      <trkpt lat="50.72714" lon="5.29974">
        <ele>112.59999847412</ele>
        <time>2022-01-16T09:54:52.000Z</time>
      </trkpt>
      <trkpt lat="50.72721" lon="5.29967">
        <ele>112.19999694824</ele>
        <time>2022-01-16T09:54:50.000Z</time>
      </trkpt>
      <trkpt lat="50.72735" lon="5.29953">
        <ele>111.40000152588</ele>
        <time>2022-01-16T09:54:46.000Z</time>
      </trkpt>
      <trkpt lat="50.7275" lon="5.2994">
        <ele>110.59999847412</ele>
        <time>2022-01-16T09:54:42.000Z</time>
      </trkpt>
      <trkpt lat="50.72769" lon="5.29924">
        <ele>109.19999694824</ele>
        <time>2022-01-16T09:54:37.000Z</time>
      </trkpt>
      <trkpt lat="50.7279" lon="5.29909">
        <ele>108.40000152588</ele>
        <time>2022-01-16T09:54:32.000Z</time>
      </trkpt>
      <trkpt lat="50.72802" lon="5.29899">
        <ele>107.59999847412</ele>
        <time>2022-01-16T09:54:29.000Z</time>
      </trkpt>
      <trkpt lat="50.7283" lon="5.29878">
        <ele>105.59999847412</ele>
        <time>2022-01-16T09:54:22.000Z</time>
      </trkpt>
      <trkpt lat="50.72835" lon="5.29875">
        <ele>105.40000152588</ele>
        <time>2022-01-16T09:54:21.000Z</time>
      </trkpt>
      <trkpt lat="50.72848" lon="5.29864">
        <ele>104.80000305176</ele>
        <time>2022-01-16T09:54:18.000Z</time>
      </trkpt>
      <trkpt lat="50.72861" lon="5.29855">
        <ele>104</ele>
        <time>2022-01-16T09:54:15.000Z</time>
      </trkpt>
      <trkpt lat="50.72869" lon="5.29848">
        <ele>103.59999847412</ele>
        <time>2022-01-16T09:54:13.000Z</time>
      </trkpt>
      <trkpt lat="50.72886" lon="5.29836">
        <ele>102.80000305176</ele>
        <time>2022-01-16T09:54:09.000Z</time>
      </trkpt>
      <trkpt lat="50.72903" lon="5.29822">
        <ele>101.40000152588</ele>
        <time>2022-01-16T09:54:05.000Z</time>
      </trkpt>
      <trkpt lat="50.72916" lon="5.29811">
        <ele>101</ele>
        <time>2022-01-16T09:54:02.000Z</time>
      </trkpt>
      <trkpt lat="50.72934" lon="5.29796">
        <ele>100.59999847412</ele>
        <time>2022-01-16T09:53:58.000Z</time>
      </trkpt>
      <trkpt lat="50.72943" lon="5.2979">
        <ele>100.40000152588</ele>
        <time>2022-01-16T09:53:56.000Z</time>
      </trkpt>
      <trkpt lat="50.72965" lon="5.29775">
        <ele>99.599998474121</ele>
        <time>2022-01-16T09:53:51.000Z</time>
      </trkpt>
      <trkpt lat="50.72983" lon="5.29762">
        <ele>99</ele>
        <time>2022-01-16T09:53:47.000Z</time>
      </trkpt>
      <trkpt lat="50.72999" lon="5.29749">
        <ele>98.599998474121</ele>
        <time>2022-01-16T09:53:43.000Z</time>
      </trkpt>
      <trkpt lat="50.73025" lon="5.29729">
        <ele>96</ele>
        <time>2022-01-16T09:53:37.000Z</time>
      </trkpt>
      <trkpt lat="50.73042" lon="5.29716">
        <ele>95.199996948242</ele>
        <time>2022-01-16T09:53:33.000Z</time>
      </trkpt>
      <trkpt lat="50.73055" lon="5.29706">
        <ele>94.800003051758</ele>
        <time>2022-01-16T09:53:30.000Z</time>
      </trkpt>
      <trkpt lat="50.73059" lon="5.29703">
        <ele>95</ele>
        <time>2022-01-16T09:53:29.000Z</time>
      </trkpt>
      <trkpt lat="50.73068" lon="5.29697">
        <ele>94.800003051758</ele>
        <time>2022-01-16T09:53:27.000Z</time>
      </trkpt>
      <trkpt lat="50.73081" lon="5.29689">
        <ele>94.400001525879</ele>
        <time>2022-01-16T09:53:24.000Z</time>
      </trkpt>
      <trkpt lat="50.73109" lon="5.29679">
        <ele>93.599998474121</ele>
        <time>2022-01-16T09:53:18.000Z</time>
      </trkpt>
      <trkpt lat="50.73132" lon="5.29665">
        <ele>93.400001525879</ele>
        <time>2022-01-16T09:53:13.000Z</time>
      </trkpt>
      <trkpt lat="50.73151" lon="5.29653">
        <ele>93</ele>
        <time>2022-01-16T09:53:09.000Z</time>
      </trkpt>
      <trkpt lat="50.73166" lon="5.29643">
        <ele>92.599998474121</ele>
        <time>2022-01-16T09:53:06.000Z</time>
      </trkpt>
      <trkpt lat="50.73195" lon="5.29625">
        <ele>91.599998474121</ele>
        <time>2022-01-16T09:53:00.000Z</time>
      </trkpt>
      <trkpt lat="50.73217" lon="5.29608">
        <ele>91.400001525879</ele>
        <time>2022-01-16T09:52:55.000Z</time>
      </trkpt>
      <trkpt lat="50.73226" lon="5.296">
        <ele>91.199996948242</ele>
        <time>2022-01-16T09:52:53.000Z</time>
      </trkpt>
      <trkpt lat="50.73262" lon="5.29563">
        <ele>90.400001525879</ele>
        <time>2022-01-16T09:52:45.000Z</time>
      </trkpt>
      <trkpt lat="50.73275" lon="5.29548">
        <ele>89.599998474121</ele>
        <time>2022-01-16T09:52:42.000Z</time>
      </trkpt>
      <trkpt lat="50.73307" lon="5.29515">
        <ele>88.199996948242</ele>
        <time>2022-01-16T09:52:35.000Z</time>
      </trkpt>
      <trkpt lat="50.73311" lon="5.29511">
        <ele>88.199996948242</ele>
        <time>2022-01-16T09:52:34.000Z</time>
      </trkpt>
      <trkpt lat="50.73339" lon="5.29486">
        <ele>87.199996948242</ele>
        <time>2022-01-16T09:52:28.000Z</time>
      </trkpt>
      <trkpt lat="50.73353" lon="5.29476">
        <ele>87</ele>
        <time>2022-01-16T09:52:25.000Z</time>
      </trkpt>
      <trkpt lat="50.73368" lon="5.29467">
        <ele>86.800003051758</ele>
        <time>2022-01-16T09:52:22.000Z</time>
      </trkpt>
      <trkpt lat="50.73397" lon="5.2945">
        <ele>86.800003051758</ele>
        <time>2022-01-16T09:52:16.000Z</time>
      </trkpt>
      <trkpt lat="50.73402" lon="5.29448">
        <ele>86.800003051758</ele>
        <time>2022-01-16T09:52:15.000Z</time>
      </trkpt>
      <trkpt lat="50.73412" lon="5.29443">
        <ele>86.800003051758</ele>
        <time>2022-01-16T09:52:13.000Z</time>
      </trkpt>
      <trkpt lat="50.73449" lon="5.2943">
        <ele>87.400001525879</ele>
        <time>2022-01-16T09:52:06.000Z</time>
      </trkpt>
      <trkpt lat="50.73465" lon="5.29424">
        <ele>87.400001525879</ele>
        <time>2022-01-16T09:52:03.000Z</time>
      </trkpt>
      <trkpt lat="50.73508" lon="5.29408">
        <ele>86.400001525879</ele>
        <time>2022-01-16T09:51:55.000Z</time>
      </trkpt>
      <trkpt lat="50.73546" lon="5.29395">
        <ele>85.800003051758</ele>
        <time>2022-01-16T09:51:48.000Z</time>
      </trkpt>
      <trkpt lat="50.73552" lon="5.29393">
        <ele>85.800003051758</ele>
        <time>2022-01-16T09:51:47.000Z</time>
      </trkpt>
      <trkpt lat="50.73563" lon="5.29391">
        <ele>86</ele>
        <time>2022-01-16T09:51:45.000Z</time>
      </trkpt>
      <trkpt lat="50.73569" lon="5.2939">
        <ele>86</ele>
        <time>2022-01-16T09:51:44.000Z</time>
      </trkpt>
      <trkpt lat="50.73574" lon="5.2939">
        <ele>86.199996948242</ele>
        <time>2022-01-16T09:51:43.000Z</time>
      </trkpt>
      <trkpt lat="50.73586" lon="5.2939">
        <ele>86</ele>
        <time>2022-01-16T09:51:41.000Z</time>
      </trkpt>
      <trkpt lat="50.73597" lon="5.29391">
        <ele>86</ele>
        <time>2022-01-16T09:51:39.000Z</time>
      </trkpt>
      <trkpt lat="50.73609" lon="5.29391">
        <ele>86.199996948242</ele>
        <time>2022-01-16T09:51:37.000Z</time>
      </trkpt>
      <trkpt lat="50.73637" lon="5.29393">
        <ele>86.599998474121</ele>
        <time>2022-01-16T09:51:32.000Z</time>
      </trkpt>
      <trkpt lat="50.73654" lon="5.29394">
        <ele>86.400001525879</ele>
        <time>2022-01-16T09:51:29.000Z</time>
      </trkpt>
      <trkpt lat="50.73664" lon="5.29397">
        <ele>86.599998474121</ele>
        <time>2022-01-16T09:51:27.000Z</time>
      </trkpt>
      <trkpt lat="50.73688" lon="5.29411">
        <ele>85.800003051758</ele>
        <time>2022-01-16T09:51:22.000Z</time>
      </trkpt>
      <trkpt lat="50.73692" lon="5.29414">
        <ele>85.400001525879</ele>
        <time>2022-01-16T09:51:21.000Z</time>
      </trkpt>
      <trkpt lat="50.73716" lon="5.29442">
        <ele>84.599998474121</ele>
        <time>2022-01-16T09:51:15.000Z</time>
      </trkpt>
      <trkpt lat="50.73724" lon="5.29451">
        <ele>84.199996948242</ele>
        <time>2022-01-16T09:51:13.000Z</time>
      </trkpt>
      <trkpt lat="50.73728" lon="5.29456">
        <ele>84</ele>
        <time>2022-01-16T09:51:12.000Z</time>
      </trkpt>
      <trkpt lat="50.73735" lon="5.29466">
        <ele>84</ele>
        <time>2022-01-16T09:51:10.000Z</time>
      </trkpt>
      <trkpt lat="50.73757" lon="5.29497">
        <ele>82.599998474121</ele>
        <time>2022-01-16T09:51:04.000Z</time>
      </trkpt>
      <trkpt lat="50.73761" lon="5.29502">
        <ele>82.800003051758</ele>
        <time>2022-01-16T09:51:03.000Z</time>
      </trkpt>
      <trkpt lat="50.73776" lon="5.2954">
        <ele>81.199996948242</ele>
        <time>2022-01-16T09:50:57.000Z</time>
      </trkpt>
      <trkpt lat="50.73777" lon="5.29547">
        <ele>81.199996948242</ele>
        <time>2022-01-16T09:50:56.000Z</time>
      </trkpt>
      <trkpt lat="50.73791" lon="5.29595">
        <ele>79.400001525879</ele>
        <time>2022-01-16T09:50:49.000Z</time>
      </trkpt>
      <trkpt lat="50.73794" lon="5.29609">
        <ele>79</ele>
        <time>2022-01-16T09:50:47.000Z</time>
      </trkpt>
      <trkpt lat="50.73798" lon="5.29623">
        <ele>78.599998474121</ele>
        <time>2022-01-16T09:50:45.000Z</time>
      </trkpt>
      <trkpt lat="50.738" lon="5.2963">
        <ele>78.400001525879</ele>
        <time>2022-01-16T09:50:44.000Z</time>
      </trkpt>
      <trkpt lat="50.73804" lon="5.29644">
        <ele>78.199996948242</ele>
        <time>2022-01-16T09:50:42.000Z</time>
      </trkpt>
      <trkpt lat="50.7381" lon="5.29656">
        <ele>78</ele>
        <time>2022-01-16T09:50:40.000Z</time>
      </trkpt>
      <trkpt lat="50.73816" lon="5.29667">
        <ele>78</ele>
        <time>2022-01-16T09:50:38.000Z</time>
      </trkpt>
      <trkpt lat="50.73824" lon="5.29676">
        <ele>77.599998474121</ele>
        <time>2022-01-16T09:50:36.000Z</time>
      </trkpt>
      <trkpt lat="50.73829" lon="5.2968">
        <ele>77.599998474121</ele>
        <time>2022-01-16T09:50:35.000Z</time>
      </trkpt>
      <trkpt lat="50.73869" lon="5.29697">
        <ele>76.800003051758</ele>
        <time>2022-01-16T09:50:27.000Z</time>
      </trkpt>
      <trkpt lat="50.7389" lon="5.29706">
        <ele>76.800003051758</ele>
        <time>2022-01-16T09:50:23.000Z</time>
      </trkpt>
      <trkpt lat="50.73916" lon="5.29719">
        <ele>76.400001525879</ele>
        <time>2022-01-16T09:50:18.000Z</time>
      </trkpt>
      <trkpt lat="50.73941" lon="5.29739">
        <ele>76</ele>
        <time>2022-01-16T09:50:13.000Z</time>
      </trkpt>
      <trkpt lat="50.73974" lon="5.2977">
        <ele>75.599998474121</ele>
        <time>2022-01-16T09:50:06.000Z</time>
      </trkpt>
      <trkpt lat="50.73984" lon="5.29779">
        <ele>75.599998474121</ele>
        <time>2022-01-16T09:50:04.000Z</time>
      </trkpt>
      <trkpt lat="50.74032" lon="5.29822">
        <ele>75</ele>
        <time>2022-01-16T09:49:54.000Z</time>
      </trkpt>
      <trkpt lat="50.74062" lon="5.29845">
        <ele>74.599998474121</ele>
        <time>2022-01-16T09:49:48.000Z</time>
      </trkpt>
      <trkpt lat="50.74068" lon="5.29847">
        <ele>74.599998474121</ele>
        <time>2022-01-16T09:49:47.000Z</time>
      </trkpt>
      <trkpt lat="50.74101" lon="5.29856">
        <ele>74.599998474121</ele>
        <time>2022-01-16T09:49:41.000Z</time>
      </trkpt>
      <trkpt lat="50.74141" lon="5.29848">
        <ele>74.400001525879</ele>
        <time>2022-01-16T09:49:34.000Z</time>
      </trkpt>
      <trkpt lat="50.74146" lon="5.29846">
        <ele>74.199996948242</ele>
        <time>2022-01-16T09:49:33.000Z</time>
      </trkpt>
      <trkpt lat="50.74174" lon="5.2984">
        <ele>74.199996948242</ele>
        <time>2022-01-16T09:49:28.000Z</time>
      </trkpt>
      <trkpt lat="50.74202" lon="5.29846">
        <ele>74</ele>
        <time>2022-01-16T09:49:23.000Z</time>
      </trkpt>
      <trkpt lat="50.74251" lon="5.29885">
        <ele>73.400001525879</ele>
        <time>2022-01-16T09:49:13.000Z</time>
      </trkpt>
      <trkpt lat="50.74276" lon="5.29906">
        <ele>73.199996948242</ele>
        <time>2022-01-16T09:49:08.000Z</time>
      </trkpt>
      <trkpt lat="50.74315" lon="5.2994">
        <ele>73.199996948242</ele>
        <time>2022-01-16T09:49:00.000Z</time>
      </trkpt>
      <trkpt lat="50.74363" lon="5.2998">
        <ele>73.400001525879</ele>
        <time>2022-01-16T09:48:50.000Z</time>
      </trkpt>
      <trkpt lat="50.74367" lon="5.29985">
        <ele>73.400001525879</ele>
        <time>2022-01-16T09:48:49.000Z</time>
      </trkpt>
      <trkpt lat="50.74371" lon="5.29989">
        <ele>73.400001525879</ele>
        <time>2022-01-16T09:48:48.000Z</time>
      </trkpt>
      <trkpt lat="50.74384" lon="5.30003">
        <ele>73.599998474121</ele>
        <time>2022-01-16T09:48:45.000Z</time>
      </trkpt>
      <trkpt lat="50.74401" lon="5.30029">
        <ele>73.800003051758</ele>
        <time>2022-01-16T09:48:40.000Z</time>
      </trkpt>
      <trkpt lat="50.74404" lon="5.30034">
        <ele>73.800003051758</ele>
        <time>2022-01-16T09:48:39.000Z</time>
      </trkpt>
      <trkpt lat="50.74412" lon="5.30043">
        <ele>74</ele>
        <time>2022-01-16T09:48:37.000Z</time>
      </trkpt>
      <trkpt lat="50.74421" lon="5.30042">
        <ele>74</ele>
        <time>2022-01-16T09:48:35.000Z</time>
      </trkpt>
      <trkpt lat="50.74425" lon="5.30037">
        <ele>74.199996948242</ele>
        <time>2022-01-16T09:48:34.000Z</time>
      </trkpt>
      <trkpt lat="50.74429" lon="5.3003">
        <ele>74</ele>
        <time>2022-01-16T09:48:33.000Z</time>
      </trkpt>
      <trkpt lat="50.74443" lon="5.2998">
        <ele>74.599998474121</ele>
        <time>2022-01-16T09:48:27.000Z</time>
      </trkpt>
      <trkpt lat="50.74464" lon="5.29908">
        <ele>75.199996948242</ele>
        <time>2022-01-16T09:48:19.000Z</time>
      </trkpt>
      <trkpt lat="50.74467" lon="5.299">
        <ele>75</ele>
        <time>2022-01-16T09:48:18.000Z</time>
      </trkpt>
      <trkpt lat="50.74474" lon="5.29883">
        <ele>75.400001525879</ele>
        <time>2022-01-16T09:48:16.000Z</time>
      </trkpt>
      <trkpt lat="50.745" lon="5.29804">
        <ele>75.800003051758</ele>
        <time>2022-01-16T09:48:07.000Z</time>
      </trkpt>
      <trkpt lat="50.74503" lon="5.29795">
        <ele>76</ele>
        <time>2022-01-16T09:48:06.000Z</time>
      </trkpt>
      <trkpt lat="50.74527" lon="5.29715">
        <ele>76.800003051758</ele>
        <time>2022-01-16T09:47:57.000Z</time>
      </trkpt>
      <trkpt lat="50.74534" lon="5.29699">
        <ele>77.800003051758</ele>
        <time>2022-01-16T09:47:55.000Z</time>
      </trkpt>
      <trkpt lat="50.74542" lon="5.29684">
        <ele>78.199996948242</ele>
        <time>2022-01-16T09:47:53.000Z</time>
      </trkpt>
      <trkpt lat="50.74553" lon="5.29675">
        <ele>78.199996948242</ele>
        <time>2022-01-16T09:47:51.000Z</time>
      </trkpt>
      <trkpt lat="50.74565" lon="5.29671">
        <ele>78.400001525879</ele>
        <time>2022-01-16T09:47:49.000Z</time>
      </trkpt>
      <trkpt lat="50.74577" lon="5.29672">
        <ele>78.400001525879</ele>
        <time>2022-01-16T09:47:47.000Z</time>
      </trkpt>
      <trkpt lat="50.74592" lon="5.29678">
        <ele>78.199996948242</ele>
        <time>2022-01-16T09:47:44.000Z</time>
      </trkpt>
      <trkpt lat="50.74601" lon="5.29684">
        <ele>78.400001525879</ele>
        <time>2022-01-16T09:47:42.000Z</time>
      </trkpt>
      <trkpt lat="50.74614" lon="5.29691">
        <ele>78.199996948242</ele>
        <time>2022-01-16T09:47:39.000Z</time>
      </trkpt>
      <trkpt lat="50.74634" lon="5.29704">
        <ele>77</ele>
        <time>2022-01-16T09:47:34.000Z</time>
      </trkpt>
      <trkpt lat="50.74658" lon="5.29718">
        <ele>76.599998474121</ele>
        <time>2022-01-16T09:47:28.000Z</time>
      </trkpt>
      <trkpt lat="50.74662" lon="5.2972">
        <ele>76.400001525879</ele>
        <time>2022-01-16T09:47:27.000Z</time>
      </trkpt>
      <trkpt lat="50.74694" lon="5.2974">
        <ele>75.599998474121</ele>
        <time>2022-01-16T09:47:18.000Z</time>
      </trkpt>
      <trkpt lat="50.74716" lon="5.29754">
        <ele>74.400001525879</ele>
        <time>2022-01-16T09:47:12.000Z</time>
      </trkpt>
      <trkpt lat="50.74723" lon="5.29759">
        <ele>74</ele>
        <time>2022-01-16T09:47:10.000Z</time>
      </trkpt>
      <trkpt lat="50.74732" lon="5.29766">
        <ele>73.400001525879</ele>
        <time>2022-01-16T09:47:07.000Z</time>
      </trkpt>
      <trkpt lat="50.7474" lon="5.29772">
        <ele>73.400001525879</ele>
        <time>2022-01-16T09:47:05.000Z</time>
      </trkpt>
      <trkpt lat="50.74744" lon="5.29774">
        <ele>73.199996948242</ele>
        <time>2022-01-16T09:47:04.000Z</time>
      </trkpt>
      <trkpt lat="50.74766" lon="5.29795">
        <ele>73</ele>
        <time>2022-01-16T09:46:59.000Z</time>
      </trkpt>
      <trkpt lat="50.7478" lon="5.29809">
        <ele>72.800003051758</ele>
        <time>2022-01-16T09:46:56.000Z</time>
      </trkpt>
      <trkpt lat="50.74824" lon="5.29863">
        <ele>72</ele>
        <time>2022-01-16T09:46:46.000Z</time>
      </trkpt>
      <trkpt lat="50.74867" lon="5.29917">
        <ele>72</ele>
        <time>2022-01-16T09:46:36.000Z</time>
      </trkpt>
      <trkpt lat="50.749" lon="5.29954">
        <ele>71.800003051758</ele>
        <time>2022-01-16T09:46:28.000Z</time>
      </trkpt>
      <trkpt lat="50.74908" lon="5.2996">
        <ele>71.800003051758</ele>
        <time>2022-01-16T09:46:26.000Z</time>
      </trkpt>
      <trkpt lat="50.74917" lon="5.2996">
        <ele>71.599998474121</ele>
        <time>2022-01-16T09:46:24.000Z</time>
      </trkpt>
      <trkpt lat="50.74928" lon="5.29953">
        <ele>71</ele>
        <time>2022-01-16T09:46:21.000Z</time>
      </trkpt>
      <trkpt lat="50.7494" lon="5.29962">
        <ele>69.599998474121</ele>
        <time>2022-01-16T09:46:17.000Z</time>
      </trkpt>
      <trkpt lat="50.74942" lon="5.2997">
        <ele>69.199996948242</ele>
        <time>2022-01-16T09:46:15.000Z</time>
      </trkpt>
      <trkpt lat="50.74944" lon="5.29979">
        <ele>68.800003051758</ele>
        <time>2022-01-16T09:46:13.000Z</time>
      </trkpt>
      <trkpt lat="50.74948" lon="5.29987">
        <ele>68.199996948242</ele>
        <time>2022-01-16T09:46:11.000Z</time>
      </trkpt>
      <trkpt lat="50.74952" lon="5.29991">
        <ele>67.800003051758</ele>
        <time>2022-01-16T09:46:10.000Z</time>
      </trkpt>
      <trkpt lat="50.74956" lon="5.29994">
        <ele>67.400001525879</ele>
        <time>2022-01-16T09:46:09.000Z</time>
      </trkpt>
      <trkpt lat="50.74965" lon="5.30001">
        <ele>67.400001525879</ele>
        <time>2022-01-16T09:46:07.000Z</time>
      </trkpt>
      <trkpt lat="50.74979" lon="5.30013">
        <ele>67.199996948242</ele>
        <time>2022-01-16T09:46:04.000Z</time>
      </trkpt>
      <trkpt lat="50.74989" lon="5.30022">
        <ele>67.199996948242</ele>
        <time>2022-01-16T09:46:02.000Z</time>
      </trkpt>
      <trkpt lat="50.74994" lon="5.30027">
        <ele>67</ele>
        <time>2022-01-16T09:46:01.000Z</time>
      </trkpt>
      <trkpt lat="50.75013" lon="5.30046">
        <ele>66.800003051758</ele>
        <time>2022-01-16T09:45:57.000Z</time>
      </trkpt>
      <trkpt lat="50.7502" lon="5.30061">
        <ele>66.800003051758</ele>
        <time>2022-01-16T09:45:55.000Z</time>
      </trkpt>
      <trkpt lat="50.75029" lon="5.30073">
        <ele>66.800003051758</ele>
        <time>2022-01-16T09:45:53.000Z</time>
      </trkpt>
      <trkpt lat="50.75045" lon="5.30086">
        <ele>66.800003051758</ele>
        <time>2022-01-16T09:45:50.000Z</time>
      </trkpt>
      <trkpt lat="50.75055" lon="5.30094">
        <ele>66.800003051758</ele>
        <time>2022-01-16T09:45:48.000Z</time>
      </trkpt>
      <trkpt lat="50.75077" lon="5.30109">
        <ele>66.800003051758</ele>
        <time>2022-01-16T09:45:44.000Z</time>
      </trkpt>
      <trkpt lat="50.75083" lon="5.30113">
        <ele>66.800003051758</ele>
        <time>2022-01-16T09:45:43.000Z</time>
      </trkpt>
      <trkpt lat="50.75133" lon="5.30145">
        <ele>66.800003051758</ele>
        <time>2022-01-16T09:45:34.000Z</time>
      </trkpt>
      <trkpt lat="50.75167" lon="5.3016">
        <ele>66.599998474121</ele>
        <time>2022-01-16T09:45:28.000Z</time>
      </trkpt>
      <trkpt lat="50.75218" lon="5.30163">
        <ele>66</ele>
        <time>2022-01-16T09:45:19.000Z</time>
      </trkpt>
      <trkpt lat="50.75259" lon="5.30166">
        <ele>65.800003051758</ele>
        <time>2022-01-16T09:45:12.000Z</time>
      </trkpt>
      <trkpt lat="50.75265" lon="5.30168">
        <ele>65.400001525879</ele>
        <time>2022-01-16T09:45:11.000Z</time>
      </trkpt>
      <trkpt lat="50.75304" lon="5.30177">
        <ele>65.800003051758</ele>
        <time>2022-01-16T09:45:04.000Z</time>
      </trkpt>
      <trkpt lat="50.75341" lon="5.30189">
        <ele>66.599998474121</ele>
        <time>2022-01-16T09:44:57.000Z</time>
      </trkpt>
      <trkpt lat="50.75361" lon="5.30199">
        <ele>66.800003051758</ele>
        <time>2022-01-16T09:44:53.000Z</time>
      </trkpt>
      <trkpt lat="50.75365" lon="5.30202">
        <ele>66.800003051758</ele>
        <time>2022-01-16T09:44:52.000Z</time>
      </trkpt>
      <trkpt lat="50.75369" lon="5.30206">
        <ele>66.800003051758</ele>
        <time>2022-01-16T09:44:51.000Z</time>
      </trkpt>
      <trkpt lat="50.75373" lon="5.30215">
        <ele>67</ele>
        <time>2022-01-16T09:44:49.000Z</time>
      </trkpt>
      <trkpt lat="50.75371" lon="5.30235">
        <ele>67</ele>
        <time>2022-01-16T09:44:44.000Z</time>
      </trkpt>
      <trkpt lat="50.7536" lon="5.30272">
        <ele>67.400001525879</ele>
        <time>2022-01-16T09:44:38.000Z</time>
      </trkpt>
      <trkpt lat="50.75349" lon="5.30301">
        <ele>67.400001525879</ele>
        <time>2022-01-16T09:44:34.000Z</time>
      </trkpt>
      <trkpt lat="50.75336" lon="5.30329">
        <ele>67.599998474121</ele>
        <time>2022-01-16T09:44:30.000Z</time>
      </trkpt>
      <trkpt lat="50.75333" lon="5.30337">
        <ele>67.599998474121</ele>
        <time>2022-01-16T09:44:29.000Z</time>
      </trkpt>
      <trkpt lat="50.75309" lon="5.30393">
        <ele>68.199996948242</ele>
        <time>2022-01-16T09:44:22.000Z</time>
      </trkpt>
      <trkpt lat="50.75305" lon="5.30402">
        <ele>68.199996948242</ele>
        <time>2022-01-16T09:44:21.000Z</time>
      </trkpt>
      <trkpt lat="50.75301" lon="5.30411">
        <ele>68.400001525879</ele>
        <time>2022-01-16T09:44:20.000Z</time>
      </trkpt>
      <trkpt lat="50.75274" lon="5.30473">
        <ele>70.400001525879</ele>
        <time>2022-01-16T09:44:13.000Z</time>
      </trkpt>
      <trkpt lat="50.75257" lon="5.3051">
        <ele>71.199996948242</ele>
        <time>2022-01-16T09:44:09.000Z</time>
      </trkpt>
      <trkpt lat="50.75243" lon="5.3054">
        <ele>72.199996948242</ele>
        <time>2022-01-16T09:44:06.000Z</time>
      </trkpt>
      <trkpt lat="50.7523" lon="5.30569">
        <ele>72.800003051758</ele>
        <time>2022-01-16T09:44:03.000Z</time>
      </trkpt>
      <trkpt lat="50.75217" lon="5.30598">
        <ele>73.199996948242</ele>
        <time>2022-01-16T09:44:00.000Z</time>
      </trkpt>
      <trkpt lat="50.75208" lon="5.30617">
        <ele>74</ele>
        <time>2022-01-16T09:43:58.000Z</time>
      </trkpt>
      <trkpt lat="50.75189" lon="5.30664">
        <ele>75.800003051758</ele>
        <time>2022-01-16T09:43:53.000Z</time>
      </trkpt>
      <trkpt lat="50.75179" lon="5.30693">
        <ele>77.400001525879</ele>
        <time>2022-01-16T09:43:50.000Z</time>
      </trkpt>
      <trkpt lat="50.75176" lon="5.30703">
        <ele>78</ele>
        <time>2022-01-16T09:43:49.000Z</time>
      </trkpt>
      <trkpt lat="50.75166" lon="5.30732">
        <ele>78.400001525879</ele>
        <time>2022-01-16T09:43:46.000Z</time>
      </trkpt>
      <trkpt lat="50.75157" lon="5.30762">
        <ele>78.599998474121</ele>
        <time>2022-01-16T09:43:43.000Z</time>
      </trkpt>
      <trkpt lat="50.75151" lon="5.30783">
        <ele>79</ele>
        <time>2022-01-16T09:43:41.000Z</time>
      </trkpt>
      <trkpt lat="50.75143" lon="5.30814">
        <ele>79.599998474121</ele>
        <time>2022-01-16T09:43:38.000Z</time>
      </trkpt>
      <trkpt lat="50.75136" lon="5.30845">
        <ele>80.800003051758</ele>
        <time>2022-01-16T09:43:35.000Z</time>
      </trkpt>
      <trkpt lat="50.75127" lon="5.30875">
        <ele>82</ele>
        <time>2022-01-16T09:43:32.000Z</time>
      </trkpt>
      <trkpt lat="50.75123" lon="5.30884">
        <ele>82.599998474121</ele>
        <time>2022-01-16T09:43:31.000Z</time>
      </trkpt>
      <trkpt lat="50.75112" lon="5.30911">
        <ele>83.599998474121</ele>
        <time>2022-01-16T09:43:28.000Z</time>
      </trkpt>
      <trkpt lat="50.75097" lon="5.30945">
        <ele>84.400001525879</ele>
        <time>2022-01-16T09:43:24.000Z</time>
      </trkpt>
      <trkpt lat="50.75093" lon="5.30953">
        <ele>84.400001525879</ele>
        <time>2022-01-16T09:43:23.000Z</time>
      </trkpt>
      <trkpt lat="50.75089" lon="5.30961">
        <ele>84.400001525879</ele>
        <time>2022-01-16T09:43:22.000Z</time>
      </trkpt>
      <trkpt lat="50.75076" lon="5.30983">
        <ele>84.400001525879</ele>
        <time>2022-01-16T09:43:19.000Z</time>
      </trkpt>
      <trkpt lat="50.75047" lon="5.31032">
        <ele>84.599998474121</ele>
        <time>2022-01-16T09:43:12.000Z</time>
      </trkpt>
      <trkpt lat="50.75014" lon="5.31085">
        <ele>84.599998474121</ele>
        <time>2022-01-16T09:43:04.000Z</time>
      </trkpt>
      <trkpt lat="50.7501" lon="5.31092">
        <ele>84.599998474121</ele>
        <time>2022-01-16T09:43:03.000Z</time>
      </trkpt>
      <trkpt lat="50.74969" lon="5.3116">
        <ele>84.800003051758</ele>
        <time>2022-01-16T09:42:53.000Z</time>
      </trkpt>
      <trkpt lat="50.74933" lon="5.31221">
        <ele>84.800003051758</ele>
        <time>2022-01-16T09:42:44.000Z</time>
      </trkpt>
      <trkpt lat="50.74908" lon="5.31282">
        <ele>84.400001525879</ele>
        <time>2022-01-16T09:42:36.000Z</time>
      </trkpt>
      <trkpt lat="50.74895" lon="5.31339">
        <ele>84.400001525879</ele>
        <time>2022-01-16T09:42:29.000Z</time>
      </trkpt>
      <trkpt lat="50.74891" lon="5.31415">
        <ele>84.599998474121</ele>
        <time>2022-01-16T09:42:20.000Z</time>
      </trkpt>
      <trkpt lat="50.74889" lon="5.31489">
        <ele>84.400001525879</ele>
        <time>2022-01-16T09:42:11.000Z</time>
      </trkpt>
      <trkpt lat="50.74887" lon="5.3155">
        <ele>82.800003051758</ele>
        <time>2022-01-16T09:42:03.000Z</time>
      </trkpt>
      <trkpt lat="50.74886" lon="5.31565">
        <ele>82.400001525879</ele>
        <time>2022-01-16T09:42:01.000Z</time>
      </trkpt>
      <trkpt lat="50.74885" lon="5.31579">
        <ele>82.199996948242</ele>
        <time>2022-01-16T09:41:59.000Z</time>
      </trkpt>
      <trkpt lat="50.74885" lon="5.31593">
        <ele>81.400001525879</ele>
        <time>2022-01-16T09:41:57.000Z</time>
      </trkpt>
      <trkpt lat="50.74887" lon="5.3165">
        <ele>79.800003051758</ele>
        <time>2022-01-16T09:41:49.000Z</time>
      </trkpt>
      <trkpt lat="50.74887" lon="5.31657">
        <ele>79.400001525879</ele>
        <time>2022-01-16T09:41:48.000Z</time>
      </trkpt>
      <trkpt lat="50.74888" lon="5.3169">
        <ele>78.400001525879</ele>
        <time>2022-01-16T09:41:43.000Z</time>
      </trkpt>
      <trkpt lat="50.74889" lon="5.31703">
        <ele>77.400001525879</ele>
        <time>2022-01-16T09:41:41.000Z</time>
      </trkpt>
      <trkpt lat="50.74891" lon="5.31716">
        <ele>76.800003051758</ele>
        <time>2022-01-16T09:41:39.000Z</time>
      </trkpt>
      <trkpt lat="50.74896" lon="5.31755">
        <ele>75</ele>
        <time>2022-01-16T09:41:33.000Z</time>
      </trkpt>
      <trkpt lat="50.74898" lon="5.31767">
        <ele>74.199996948242</ele>
        <time>2022-01-16T09:41:31.000Z</time>
      </trkpt>
      <trkpt lat="50.74899" lon="5.31774">
        <ele>74</ele>
        <time>2022-01-16T09:41:30.000Z</time>
      </trkpt>
      <trkpt lat="50.74907" lon="5.31812">
        <ele>72.800003051758</ele>
        <time>2022-01-16T09:41:24.000Z</time>
      </trkpt>
      <trkpt lat="50.74908" lon="5.31819">
        <ele>72.400001525879</ele>
        <time>2022-01-16T09:41:23.000Z</time>
      </trkpt>
      <trkpt lat="50.7491" lon="5.31825">
        <ele>72</ele>
        <time>2022-01-16T09:41:22.000Z</time>
      </trkpt>
      <trkpt lat="50.74921" lon="5.31864">
        <ele>70.599998474121</ele>
        <time>2022-01-16T09:41:16.000Z</time>
      </trkpt>
      <trkpt lat="50.74928" lon="5.31884">
        <ele>70.199996948242</ele>
        <time>2022-01-16T09:41:13.000Z</time>
      </trkpt>
      <trkpt lat="50.7493" lon="5.3189">
        <ele>70.199996948242</ele>
        <time>2022-01-16T09:41:12.000Z</time>
      </trkpt>
      <trkpt lat="50.74957" lon="5.3195">
        <ele>69.599998474121</ele>
        <time>2022-01-16T09:41:03.000Z</time>
      </trkpt>
      <trkpt lat="50.74963" lon="5.31963">
        <ele>69.599998474121</ele>
        <time>2022-01-16T09:41:01.000Z</time>
      </trkpt>
      <trkpt lat="50.74995" lon="5.32021">
        <ele>69.400001525879</ele>
        <time>2022-01-16T09:40:52.000Z</time>
      </trkpt>
      <trkpt lat="50.75031" lon="5.32086">
        <ele>69.400001525879</ele>
        <time>2022-01-16T09:40:42.000Z</time>
      </trkpt>
      <trkpt lat="50.75064" lon="5.32156">
        <ele>69.599998474121</ele>
        <time>2022-01-16T09:40:32.000Z</time>
      </trkpt>
      <trkpt lat="50.7509" lon="5.32224">
        <ele>71</ele>
        <time>2022-01-16T09:40:23.000Z</time>
      </trkpt>
      <trkpt lat="50.75102" lon="5.32255">
        <ele>71</ele>
        <time>2022-01-16T09:40:19.000Z</time>
      </trkpt>
      <trkpt lat="50.75107" lon="5.3227">
        <ele>71</ele>
        <time>2022-01-16T09:40:17.000Z</time>
      </trkpt>
      <trkpt lat="50.75115" lon="5.32292">
        <ele>70.800003051758</ele>
        <time>2022-01-16T09:40:14.000Z</time>
      </trkpt>
      <trkpt lat="50.75137" lon="5.32348">
        <ele>70</ele>
        <time>2022-01-16T09:40:06.000Z</time>
      </trkpt>
      <trkpt lat="50.75141" lon="5.32361">
        <ele>69.599998474121</ele>
        <time>2022-01-16T09:40:04.000Z</time>
      </trkpt>
      <trkpt lat="50.75156" lon="5.32399">
        <ele>68.599998474121</ele>
        <time>2022-01-16T09:39:58.000Z</time>
      </trkpt>
      <trkpt lat="50.75158" lon="5.32405">
        <ele>68.599998474121</ele>
        <time>2022-01-16T09:39:57.000Z</time>
      </trkpt>
      <trkpt lat="50.75176" lon="5.32446">
        <ele>68.599998474121</ele>
        <time>2022-01-16T09:39:51.000Z</time>
      </trkpt>
      <trkpt lat="50.75184" lon="5.32463">
        <ele>68.599998474121</ele>
        <time>2022-01-16T09:39:49.000Z</time>
      </trkpt>
      <trkpt lat="50.75198" lon="5.32488">
        <ele>68.400001525879</ele>
        <time>2022-01-16T09:39:46.000Z</time>
      </trkpt>
      <trkpt lat="50.75202" lon="5.32496">
        <ele>68.400001525879</ele>
        <time>2022-01-16T09:39:45.000Z</time>
      </trkpt>
      <trkpt lat="50.75214" lon="5.32515">
        <ele>68</ele>
        <time>2022-01-16T09:39:42.000Z</time>
      </trkpt>
      <trkpt lat="50.7522" lon="5.32527">
        <ele>67.800003051758</ele>
        <time>2022-01-16T09:39:40.000Z</time>
      </trkpt>
      <trkpt lat="50.75238" lon="5.32557">
        <ele>67.599998474121</ele>
        <time>2022-01-16T09:39:34.000Z</time>
      </trkpt>
      <trkpt lat="50.75241" lon="5.32563">
        <ele>67.599998474121</ele>
        <time>2022-01-16T09:39:33.000Z</time>
      </trkpt>
      <trkpt lat="50.75247" lon="5.32573">
        <ele>67.599998474121</ele>
        <time>2022-01-16T09:39:31.000Z</time>
      </trkpt>
      <trkpt lat="50.75261" lon="5.32595">
        <ele>67.599998474121</ele>
        <time>2022-01-16T09:39:27.000Z</time>
      </trkpt>
      <trkpt lat="50.75281" lon="5.32629">
        <ele>67.599998474121</ele>
        <time>2022-01-16T09:39:21.000Z</time>
      </trkpt>
      <trkpt lat="50.7531" lon="5.32676">
        <ele>68</ele>
        <time>2022-01-16T09:39:14.000Z</time>
      </trkpt>
      <trkpt lat="50.75329" lon="5.32719">
        <ele>68.599998474121</ele>
        <time>2022-01-16T09:39:08.000Z</time>
      </trkpt>
      <trkpt lat="50.75343" lon="5.32769">
        <ele>69.800003051758</ele>
        <time>2022-01-16T09:39:02.000Z</time>
      </trkpt>
      <trkpt lat="50.75347" lon="5.3279">
        <ele>70</ele>
        <time>2022-01-16T09:39:00.000Z</time>
      </trkpt>
      <trkpt lat="50.75358" lon="5.32867">
        <ele>71.800003051758</ele>
        <time>2022-01-16T09:38:53.000Z</time>
      </trkpt>
      <trkpt lat="50.75368" lon="5.32946">
        <ele>74.199996948242</ele>
        <time>2022-01-16T09:38:46.000Z</time>
      </trkpt>
      <trkpt lat="50.75373" lon="5.32979">
        <ele>75</ele>
        <time>2022-01-16T09:38:43.000Z</time>
      </trkpt>
      <trkpt lat="50.75377" lon="5.33012">
        <ele>75.599998474121</ele>
        <time>2022-01-16T09:38:40.000Z</time>
      </trkpt>
      <trkpt lat="50.75385" lon="5.33053">
        <ele>75.400001525879</ele>
        <time>2022-01-16T09:38:36.000Z</time>
      </trkpt>
      <trkpt lat="50.75388" lon="5.33071">
        <ele>75.400001525879</ele>
        <time>2022-01-16T09:38:34.000Z</time>
      </trkpt>
      <trkpt lat="50.75394" lon="5.33105">
        <ele>75.199996948242</ele>
        <time>2022-01-16T09:38:30.000Z</time>
      </trkpt>
      <trkpt lat="50.75403" lon="5.33149">
        <ele>74.800003051758</ele>
        <time>2022-01-16T09:38:24.000Z</time>
      </trkpt>
      <trkpt lat="50.75406" lon="5.33164">
        <ele>74.599998474121</ele>
        <time>2022-01-16T09:38:22.000Z</time>
      </trkpt>
      <trkpt lat="50.75415" lon="5.33245">
        <ele>72.800003051758</ele>
        <time>2022-01-16T09:38:11.000Z</time>
      </trkpt>
      <trkpt lat="50.75417" lon="5.3326">
        <ele>72.400001525879</ele>
        <time>2022-01-16T09:38:09.000Z</time>
      </trkpt>
      <trkpt lat="50.75419" lon="5.33305">
        <ele>72.199996948242</ele>
        <time>2022-01-16T09:38:03.000Z</time>
      </trkpt>
      <trkpt lat="50.75419" lon="5.33313">
        <ele>72.199996948242</ele>
        <time>2022-01-16T09:38:02.000Z</time>
      </trkpt>
      <trkpt lat="50.7542" lon="5.33346">
        <ele>71.599998474121</ele>
        <time>2022-01-16T09:37:58.000Z</time>
      </trkpt>
      <trkpt lat="50.75421" lon="5.33364">
        <ele>71.400001525879</ele>
        <time>2022-01-16T09:37:56.000Z</time>
      </trkpt>
      <trkpt lat="50.75422" lon="5.3339">
        <ele>71.400001525879</ele>
        <time>2022-01-16T09:37:53.000Z</time>
      </trkpt>
      <trkpt lat="50.75426" lon="5.33454">
        <ele>71</ele>
        <time>2022-01-16T09:37:45.000Z</time>
      </trkpt>
      <trkpt lat="50.75426" lon="5.33462">
        <ele>70.800003051758</ele>
        <time>2022-01-16T09:37:44.000Z</time>
      </trkpt>
      <trkpt lat="50.75427" lon="5.3347">
        <ele>70.800003051758</ele>
        <time>2022-01-16T09:37:43.000Z</time>
      </trkpt>
      <trkpt lat="50.75434" lon="5.33554">
        <ele>69</ele>
        <time>2022-01-16T09:37:32.000Z</time>
      </trkpt>
      <trkpt lat="50.75435" lon="5.33568">
        <ele>68.400001525879</ele>
        <time>2022-01-16T09:37:30.000Z</time>
      </trkpt>
      <trkpt lat="50.75437" lon="5.3358">
        <ele>67.400001525879</ele>
        <time>2022-01-16T09:37:28.000Z</time>
      </trkpt>
      <trkpt lat="50.75447" lon="5.33586">
        <ele>66.599998474121</ele>
        <time>2022-01-16T09:37:25.000Z</time>
      </trkpt>
      <trkpt lat="50.75465" lon="5.33582">
        <ele>66.199996948242</ele>
        <time>2022-01-16T09:37:21.000Z</time>
      </trkpt>
      <trkpt lat="50.75471" lon="5.33581">
        <ele>65.800003051758</ele>
        <time>2022-01-16T09:37:20.000Z</time>
      </trkpt>
      <trkpt lat="50.7549" lon="5.33576">
        <ele>65.199996948242</ele>
        <time>2022-01-16T09:37:17.000Z</time>
      </trkpt>
      <trkpt lat="50.7551" lon="5.33572">
        <ele>65</ele>
        <time>2022-01-16T09:37:14.000Z</time>
      </trkpt>
      <trkpt lat="50.75533" lon="5.33568">
        <ele>64.599998474121</ele>
        <time>2022-01-16T09:37:10.000Z</time>
      </trkpt>
      <trkpt lat="50.75554" lon="5.33562">
        <ele>63.599998474121</ele>
        <time>2022-01-16T09:37:06.000Z</time>
      </trkpt>
      <trkpt lat="50.75584" lon="5.33558">
        <ele>62.400001525879</ele>
        <time>2022-01-16T09:37:01.000Z</time>
      </trkpt>
      <trkpt lat="50.7559" lon="5.33559">
        <ele>62.400001525879</ele>
        <time>2022-01-16T09:37:00.000Z</time>
      </trkpt>
      <trkpt lat="50.75618" lon="5.33569">
        <ele>62.400001525879</ele>
        <time>2022-01-16T09:36:56.000Z</time>
      </trkpt>
      <trkpt lat="50.75632" lon="5.33578">
        <ele>62.599998474121</ele>
        <time>2022-01-16T09:36:54.000Z</time>
      </trkpt>
      <trkpt lat="50.75645" lon="5.33591">
        <ele>62.599998474121</ele>
        <time>2022-01-16T09:36:52.000Z</time>
      </trkpt>
      <trkpt lat="50.75657" lon="5.33605">
        <ele>63</ele>
        <time>2022-01-16T09:36:50.000Z</time>
      </trkpt>
      <trkpt lat="50.75688" lon="5.3365">
        <ele>64.400001525879</ele>
        <time>2022-01-16T09:36:44.000Z</time>
      </trkpt>
      <trkpt lat="50.75693" lon="5.33656">
        <ele>65</ele>
        <time>2022-01-16T09:36:43.000Z</time>
      </trkpt>
      <trkpt lat="50.757" lon="5.33661">
        <ele>65.400001525879</ele>
        <time>2022-01-16T09:36:42.000Z</time>
      </trkpt>
      <trkpt lat="50.75714" lon="5.33668">
        <ele>66</ele>
        <time>2022-01-16T09:36:40.000Z</time>
      </trkpt>
      <trkpt lat="50.75751" lon="5.33671">
        <ele>68.400001525879</ele>
        <time>2022-01-16T09:36:35.000Z</time>
      </trkpt>
      <trkpt lat="50.75779" lon="5.33684">
        <ele>70.199996948242</ele>
        <time>2022-01-16T09:36:31.000Z</time>
      </trkpt>
      <trkpt lat="50.75786" lon="5.33689">
        <ele>71.199996948242</ele>
        <time>2022-01-16T09:36:30.000Z</time>
      </trkpt>
      <trkpt lat="50.7582" lon="5.3372">
        <ele>73.199996948242</ele>
        <time>2022-01-16T09:36:25.000Z</time>
      </trkpt>
      <trkpt lat="50.75826" lon="5.33726">
        <ele>73.599998474121</ele>
        <time>2022-01-16T09:36:24.000Z</time>
      </trkpt>
      <trkpt lat="50.75839" lon="5.33739">
        <ele>74.199996948242</ele>
        <time>2022-01-16T09:36:22.000Z</time>
      </trkpt>
      <trkpt lat="50.75845" lon="5.33744">
        <ele>74.400001525879</ele>
        <time>2022-01-16T09:36:21.000Z</time>
      </trkpt>
      <trkpt lat="50.75857" lon="5.33755">
        <ele>75</ele>
        <time>2022-01-16T09:36:19.000Z</time>
      </trkpt>
      <trkpt lat="50.75862" lon="5.33761">
        <ele>75.400001525879</ele>
        <time>2022-01-16T09:36:18.000Z</time>
      </trkpt>
      <trkpt lat="50.75878" lon="5.33781">
        <ele>76.199996948242</ele>
        <time>2022-01-16T09:36:15.000Z</time>
      </trkpt>
      <trkpt lat="50.75899" lon="5.3381">
        <ele>76.400001525879</ele>
        <time>2022-01-16T09:36:11.000Z</time>
      </trkpt>
      <trkpt lat="50.75904" lon="5.33817">
        <ele>76.599998474121</ele>
        <time>2022-01-16T09:36:10.000Z</time>
      </trkpt>
      <trkpt lat="50.75914" lon="5.3383">
        <ele>76.800003051758</ele>
        <time>2022-01-16T09:36:08.000Z</time>
      </trkpt>
      <trkpt lat="50.75932" lon="5.33855">
        <ele>76.800003051758</ele>
        <time>2022-01-16T09:36:04.000Z</time>
      </trkpt>
      <trkpt lat="50.75956" lon="5.33895">
        <ele>76.800003051758</ele>
        <time>2022-01-16T09:35:57.000Z</time>
      </trkpt>
      <trkpt lat="50.75986" lon="5.3395">
        <ele>75.599998474121</ele>
        <time>2022-01-16T09:35:47.000Z</time>
      </trkpt>
      <trkpt lat="50.76006" lon="5.33984">
        <ele>75.199996948242</ele>
        <time>2022-01-16T09:35:41.000Z</time>
      </trkpt>
      <trkpt lat="50.76026" lon="5.34016">
        <ele>75</ele>
        <time>2022-01-16T09:35:35.000Z</time>
      </trkpt>
      <trkpt lat="50.76058" lon="5.34061">
        <ele>73.800003051758</ele>
        <time>2022-01-16T09:35:26.000Z</time>
      </trkpt>
      <trkpt lat="50.76062" lon="5.34066">
        <ele>73.599998474121</ele>
        <time>2022-01-16T09:35:25.000Z</time>
      </trkpt>
      <trkpt lat="50.76076" lon="5.34084">
        <ele>73.599998474121</ele>
        <time>2022-01-16T09:35:21.000Z</time>
      </trkpt>
      <trkpt lat="50.76093" lon="5.34107">
        <ele>73.199996948242</ele>
        <time>2022-01-16T09:35:16.000Z</time>
      </trkpt>
      <trkpt lat="50.76126" lon="5.34152">
        <ele>71.400001525879</ele>
        <time>2022-01-16T09:35:06.000Z</time>
      </trkpt>
      <trkpt lat="50.76129" lon="5.34156">
        <ele>71.400001525879</ele>
        <time>2022-01-16T09:35:05.000Z</time>
      </trkpt>
      <trkpt lat="50.76143" lon="5.34172">
        <ele>70.800003051758</ele>
        <time>2022-01-16T09:35:01.000Z</time>
      </trkpt>
      <trkpt lat="50.76151" lon="5.34182">
        <ele>70.800003051758</ele>
        <time>2022-01-16T09:34:59.000Z</time>
      </trkpt>
      <trkpt lat="50.76186" lon="5.34229">
        <ele>69.800003051758</ele>
        <time>2022-01-16T09:34:50.000Z</time>
      </trkpt>
      <trkpt lat="50.76191" lon="5.34235">
        <ele>69.800003051758</ele>
        <time>2022-01-16T09:34:49.000Z</time>
      </trkpt>
      <trkpt lat="50.76203" lon="5.34251">
        <ele>69</ele>
        <time>2022-01-16T09:34:46.000Z</time>
      </trkpt>
      <trkpt lat="50.76231" lon="5.34291">
        <ele>68.599998474121</ele>
        <time>2022-01-16T09:34:39.000Z</time>
      </trkpt>
      <trkpt lat="50.76239" lon="5.34303">
        <ele>68.599998474121</ele>
        <time>2022-01-16T09:34:37.000Z</time>
      </trkpt>
      <trkpt lat="50.76268" lon="5.34349">
        <ele>67.800003051758</ele>
        <time>2022-01-16T09:34:29.000Z</time>
      </trkpt>
      <trkpt lat="50.76294" lon="5.34392">
        <ele>66.599998474121</ele>
        <time>2022-01-16T09:34:22.000Z</time>
      </trkpt>
      <trkpt lat="50.76301" lon="5.34406">
        <ele>66.199996948242</ele>
        <time>2022-01-16T09:34:20.000Z</time>
      </trkpt>
      <trkpt lat="50.76324" lon="5.34453">
        <ele>65.400001525879</ele>
        <time>2022-01-16T09:34:14.000Z</time>
      </trkpt>
      <trkpt lat="50.76346" lon="5.34493">
        <ele>65.400001525879</ele>
        <time>2022-01-16T09:34:09.000Z</time>
      </trkpt>
      <trkpt lat="50.76355" lon="5.34509">
        <ele>65.199996948242</ele>
        <time>2022-01-16T09:34:07.000Z</time>
      </trkpt>
      <trkpt lat="50.76365" lon="5.34524">
        <ele>65.599998474121</ele>
        <time>2022-01-16T09:34:05.000Z</time>
      </trkpt>
      <trkpt lat="50.764" lon="5.34568">
        <ele>65.400001525879</ele>
        <time>2022-01-16T09:33:58.000Z</time>
      </trkpt>
      <trkpt lat="50.76409" lon="5.34579">
        <ele>65.400001525879</ele>
        <time>2022-01-16T09:33:56.000Z</time>
      </trkpt>
      <trkpt lat="50.76422" lon="5.34594">
        <ele>65.599998474121</ele>
        <time>2022-01-16T09:33:53.000Z</time>
      </trkpt>
      <trkpt lat="50.76432" lon="5.34604">
        <ele>65.800003051758</ele>
        <time>2022-01-16T09:33:50.000Z</time>
      </trkpt>
      <trkpt lat="50.76443" lon="5.34617">
        <ele>66</ele>
        <time>2022-01-16T09:33:46.000Z</time>
      </trkpt>
      <trkpt lat="50.76459" lon="5.34634">
        <ele>66</ele>
        <time>2022-01-16T09:33:39.000Z</time>
      </trkpt>
      <trkpt lat="50.76466" lon="5.34648">
        <ele>66.400001525879</ele>
        <time>2022-01-16T09:33:34.000Z</time>
      </trkpt>
      <trkpt lat="50.76466" lon="5.34652">
        <ele>66.800003051758</ele>
        <time>2022-01-16T09:33:33.000Z</time>
      </trkpt>
      <trkpt lat="50.76461" lon="5.34669">
        <ele>67</ele>
        <time>2022-01-16T09:33:29.000Z</time>
      </trkpt>
      <trkpt lat="50.76459" lon="5.34674">
        <ele>67.199996948242</ele>
        <time>2022-01-16T09:33:28.000Z</time>
      </trkpt>
      <trkpt lat="50.76458" lon="5.34681">
        <ele>67.400001525879</ele>
        <time>2022-01-16T09:33:27.000Z</time>
      </trkpt>
      <trkpt lat="50.76455" lon="5.34701">
        <ele>67.599998474121</ele>
        <time>2022-01-16T09:33:24.000Z</time>
      </trkpt>
      <trkpt lat="50.76452" lon="5.34721">
        <ele>67.800003051758</ele>
        <time>2022-01-16T09:33:21.000Z</time>
      </trkpt>
      <trkpt lat="50.76447" lon="5.34774">
        <ele>68.400001525879</ele>
        <time>2022-01-16T09:33:13.000Z</time>
      </trkpt>
      <trkpt lat="50.76444" lon="5.34788">
        <ele>68.599998474121</ele>
        <time>2022-01-16T09:33:11.000Z</time>
      </trkpt>
      <trkpt lat="50.76441" lon="5.34802">
        <ele>68.599998474121</ele>
        <time>2022-01-16T09:33:09.000Z</time>
      </trkpt>
      <trkpt lat="50.76436" lon="5.34817">
        <ele>68.800003051758</ele>
        <time>2022-01-16T09:33:07.000Z</time>
      </trkpt>
      <trkpt lat="50.7643" lon="5.34832">
        <ele>69</ele>
        <time>2022-01-16T09:33:05.000Z</time>
      </trkpt>
      <trkpt lat="50.764" lon="5.34904">
        <ele>70</ele>
        <time>2022-01-16T09:32:56.000Z</time>
      </trkpt>
      <trkpt lat="50.7639" lon="5.34929">
        <ele>70</ele>
        <time>2022-01-16T09:32:53.000Z</time>
      </trkpt>
      <trkpt lat="50.76384" lon="5.34946">
        <ele>70.599998474121</ele>
        <time>2022-01-16T09:32:51.000Z</time>
      </trkpt>
      <trkpt lat="50.7637" lon="5.34978">
        <ele>71.400001525879</ele>
        <time>2022-01-16T09:32:47.000Z</time>
      </trkpt>
      <trkpt lat="50.76363" lon="5.34995">
        <ele>72</ele>
        <time>2022-01-16T09:32:45.000Z</time>
      </trkpt>
      <trkpt lat="50.76357" lon="5.3501">
        <ele>72.599998474121</ele>
        <time>2022-01-16T09:32:43.000Z</time>
      </trkpt>
      <trkpt lat="50.76343" lon="5.35042">
        <ele>73.800003051758</ele>
        <time>2022-01-16T09:32:39.000Z</time>
      </trkpt>
      <trkpt lat="50.76332" lon="5.35066">
        <ele>74.800003051758</ele>
        <time>2022-01-16T09:32:36.000Z</time>
      </trkpt>
      <trkpt lat="50.76328" lon="5.35073">
        <ele>75</ele>
        <time>2022-01-16T09:32:35.000Z</time>
      </trkpt>
      <trkpt lat="50.76311" lon="5.35109">
        <ele>75.400001525879</ele>
        <time>2022-01-16T09:32:30.000Z</time>
      </trkpt>
      <trkpt lat="50.76307" lon="5.35116">
        <ele>75.599998474121</ele>
        <time>2022-01-16T09:32:29.000Z</time>
      </trkpt>
      <trkpt lat="50.763" lon="5.3513">
        <ele>75.599998474121</ele>
        <time>2022-01-16T09:32:27.000Z</time>
      </trkpt>
      <trkpt lat="50.7627" lon="5.35185">
        <ele>75.599998474121</ele>
        <time>2022-01-16T09:32:18.000Z</time>
      </trkpt>
      <trkpt lat="50.76255" lon="5.3521">
        <ele>73.800003051758</ele>
        <time>2022-01-16T09:32:13.000Z</time>
      </trkpt>
      <trkpt lat="50.76236" lon="5.35239">
        <ele>71.599998474121</ele>
        <time>2022-01-16T09:32:06.000Z</time>
      </trkpt>
      <trkpt lat="50.76233" lon="5.35244">
        <ele>71.400001525879</ele>
        <time>2022-01-16T09:32:05.000Z</time>
      </trkpt>
      <trkpt lat="50.76214" lon="5.35272">
        <ele>70.400001525879</ele>
        <time>2022-01-16T09:32:00.000Z</time>
      </trkpt>
      <trkpt lat="50.76209" lon="5.35278">
        <ele>70</ele>
        <time>2022-01-16T09:31:59.000Z</time>
      </trkpt>
      <trkpt lat="50.76196" lon="5.35297">
        <ele>69.599998474121</ele>
        <time>2022-01-16T09:31:56.000Z</time>
      </trkpt>
      <trkpt lat="50.76178" lon="5.35323">
        <ele>69.400001525879</ele>
        <time>2022-01-16T09:31:52.000Z</time>
      </trkpt>
      <trkpt lat="50.76161" lon="5.3535">
        <ele>68.800003051758</ele>
        <time>2022-01-16T09:31:48.000Z</time>
      </trkpt>
      <trkpt lat="50.76122" lon="5.35418">
        <ele>68</ele>
        <time>2022-01-16T09:31:39.000Z</time>
      </trkpt>
      <trkpt lat="50.7611" lon="5.35441">
        <ele>67.800003051758</ele>
        <time>2022-01-16T09:31:36.000Z</time>
      </trkpt>
      <trkpt lat="50.76105" lon="5.35448">
        <ele>67.800003051758</ele>
        <time>2022-01-16T09:31:35.000Z</time>
      </trkpt>
      <trkpt lat="50.7607" lon="5.35512">
        <ele>67</ele>
        <time>2022-01-16T09:31:27.000Z</time>
      </trkpt>
      <trkpt lat="50.76036" lon="5.35551">
        <ele>66.800003051758</ele>
        <time>2022-01-16T09:31:21.000Z</time>
      </trkpt>
      <trkpt lat="50.7603" lon="5.35557">
        <ele>66.800003051758</ele>
        <time>2022-01-16T09:31:20.000Z</time>
      </trkpt>
      <trkpt lat="50.75982" lon="5.35599">
        <ele>66.800003051758</ele>
        <time>2022-01-16T09:31:12.000Z</time>
      </trkpt>
      <trkpt lat="50.75972" lon="5.3561">
        <ele>66.599998474121</ele>
        <time>2022-01-16T09:31:10.000Z</time>
      </trkpt>
      <trkpt lat="50.7596" lon="5.35633">
        <ele>66.800003051758</ele>
        <time>2022-01-16T09:31:07.000Z</time>
      </trkpt>
      <trkpt lat="50.75957" lon="5.35641">
        <ele>66.800003051758</ele>
        <time>2022-01-16T09:31:06.000Z</time>
      </trkpt>
      <trkpt lat="50.75954" lon="5.35659">
        <ele>66.800003051758</ele>
        <time>2022-01-16T09:31:04.000Z</time>
      </trkpt>
      <trkpt lat="50.75956" lon="5.35722">
        <ele>66.800003051758</ele>
        <time>2022-01-16T09:30:58.000Z</time>
      </trkpt>
      <trkpt lat="50.75956" lon="5.3581">
        <ele>68</ele>
        <time>2022-01-16T09:30:50.000Z</time>
      </trkpt>
      <trkpt lat="50.75952" lon="5.35853">
        <ele>68.400001525879</ele>
        <time>2022-01-16T09:30:46.000Z</time>
      </trkpt>
      <trkpt lat="50.75949" lon="5.35864">
        <ele>68.599998474121</ele>
        <time>2022-01-16T09:30:45.000Z</time>
      </trkpt>
      <trkpt lat="50.75943" lon="5.35884">
        <ele>68.800003051758</ele>
        <time>2022-01-16T09:30:43.000Z</time>
      </trkpt>
      <trkpt lat="50.75939" lon="5.35893">
        <ele>69.199996948242</ele>
        <time>2022-01-16T09:30:42.000Z</time>
      </trkpt>
      <trkpt lat="50.75935" lon="5.35902">
        <ele>69.400001525879</ele>
        <time>2022-01-16T09:30:41.000Z</time>
      </trkpt>
      <trkpt lat="50.75907" lon="5.35939">
        <ele>70</ele>
        <time>2022-01-16T09:30:36.000Z</time>
      </trkpt>
      <trkpt lat="50.75869" lon="5.35978">
        <ele>71.800003051758</ele>
        <time>2022-01-16T09:30:30.000Z</time>
      </trkpt>
      <trkpt lat="50.75859" lon="5.35993">
        <ele>72.400001525879</ele>
        <time>2022-01-16T09:30:28.000Z</time>
      </trkpt>
      <trkpt lat="50.75848" lon="5.3602">
        <ele>73.599998474121</ele>
        <time>2022-01-16T09:30:25.000Z</time>
      </trkpt>
      <trkpt lat="50.75844" lon="5.36029">
        <ele>73.599998474121</ele>
        <time>2022-01-16T09:30:24.000Z</time>
      </trkpt>
      <trkpt lat="50.75838" lon="5.36047">
        <ele>73.800003051758</ele>
        <time>2022-01-16T09:30:22.000Z</time>
      </trkpt>
      <trkpt lat="50.75829" lon="5.36073">
        <ele>73.800003051758</ele>
        <time>2022-01-16T09:30:19.000Z</time>
      </trkpt>
      <trkpt lat="50.75821" lon="5.36099">
        <ele>73.800003051758</ele>
        <time>2022-01-16T09:30:16.000Z</time>
      </trkpt>
      <trkpt lat="50.75819" lon="5.36107">
        <ele>73.800003051758</ele>
        <time>2022-01-16T09:30:15.000Z</time>
      </trkpt>
      <trkpt lat="50.75805" lon="5.36146">
        <ele>73.199996948242</ele>
        <time>2022-01-16T09:30:10.000Z</time>
      </trkpt>
      <trkpt lat="50.75794" lon="5.36166">
        <ele>72.199996948242</ele>
        <time>2022-01-16T09:30:07.000Z</time>
      </trkpt>
      <trkpt lat="50.75775" lon="5.36198">
        <ele>72</ele>
        <time>2022-01-16T09:30:02.000Z</time>
      </trkpt>
      <trkpt lat="50.7577" lon="5.3621">
        <ele>71.800003051758</ele>
        <time>2022-01-16T09:30:00.000Z</time>
      </trkpt>
      <trkpt lat="50.75769" lon="5.36217">
        <ele>72</ele>
        <time>2022-01-16T09:29:59.000Z</time>
      </trkpt>
      <trkpt lat="50.75769" lon="5.36223">
        <ele>72</ele>
        <time>2022-01-16T09:29:58.000Z</time>
      </trkpt>
      <trkpt lat="50.75773" lon="5.36235">
        <ele>71.599998474121</ele>
        <time>2022-01-16T09:29:56.000Z</time>
      </trkpt>
      <trkpt lat="50.75803" lon="5.36264">
        <ele>71</ele>
        <time>2022-01-16T09:29:49.000Z</time>
      </trkpt>
      <trkpt lat="50.75812" lon="5.36275">
        <ele>71</ele>
        <time>2022-01-16T09:29:47.000Z</time>
      </trkpt>
      <trkpt lat="50.75839" lon="5.36306">
        <ele>71</ele>
        <time>2022-01-16T09:29:41.000Z</time>
      </trkpt>
      <trkpt lat="50.75875" lon="5.36332">
        <ele>70.800003051758</ele>
        <time>2022-01-16T09:29:34.000Z</time>
      </trkpt>
      <trkpt lat="50.75895" lon="5.36343">
        <ele>70.400001525879</ele>
        <time>2022-01-16T09:29:30.000Z</time>
      </trkpt>
      <trkpt lat="50.75905" lon="5.3635">
        <ele>70.400001525879</ele>
        <time>2022-01-16T09:29:28.000Z</time>
      </trkpt>
      <trkpt lat="50.75913" lon="5.36358">
        <ele>70.199996948242</ele>
        <time>2022-01-16T09:29:26.000Z</time>
      </trkpt>
      <trkpt lat="50.75922" lon="5.36372">
        <ele>69.599998474121</ele>
        <time>2022-01-16T09:29:23.000Z</time>
      </trkpt>
      <trkpt lat="50.75939" lon="5.36417">
        <ele>69.199996948242</ele>
        <time>2022-01-16T09:29:16.000Z</time>
      </trkpt>
      <trkpt lat="50.75947" lon="5.3644">
        <ele>69.199996948242</ele>
        <time>2022-01-16T09:29:13.000Z</time>
      </trkpt>
      <trkpt lat="50.75962" lon="5.36482">
        <ele>69.800003051758</ele>
        <time>2022-01-16T09:29:08.000Z</time>
      </trkpt>
      <trkpt lat="50.75965" lon="5.3649">
        <ele>69.800003051758</ele>
        <time>2022-01-16T09:29:07.000Z</time>
      </trkpt>
      <trkpt lat="50.75981" lon="5.36518">
        <ele>69.800003051758</ele>
        <time>2022-01-16T09:29:03.000Z</time>
      </trkpt>
      <trkpt lat="50.75985" lon="5.36524">
        <ele>69.800003051758</ele>
        <time>2022-01-16T09:29:02.000Z</time>
      </trkpt>
      <trkpt lat="50.75989" lon="5.36538">
        <ele>69.800003051758</ele>
        <time>2022-01-16T09:29:00.000Z</time>
      </trkpt>
      <trkpt lat="50.75988" lon="5.36553">
        <ele>69.800003051758</ele>
        <time>2022-01-16T09:28:58.000Z</time>
      </trkpt>
      <trkpt lat="50.75981" lon="5.36571">
        <ele>69.400001525879</ele>
        <time>2022-01-16T09:28:55.000Z</time>
      </trkpt>
      <trkpt lat="50.75969" lon="5.36599">
        <ele>68.599998474121</ele>
        <time>2022-01-16T09:28:50.000Z</time>
      </trkpt>
      <trkpt lat="50.75967" lon="5.36604">
        <ele>68.599998474121</ele>
        <time>2022-01-16T09:28:49.000Z</time>
      </trkpt>
      <trkpt lat="50.75961" lon="5.36614">
        <ele>68.400001525879</ele>
        <time>2022-01-16T09:28:47.000Z</time>
      </trkpt>
      <trkpt lat="50.75956" lon="5.36629">
        <ele>68.400001525879</ele>
        <time>2022-01-16T09:28:44.000Z</time>
      </trkpt>
      <trkpt lat="50.75959" lon="5.36641">
        <ele>68.199996948242</ele>
        <time>2022-01-16T09:28:42.000Z</time>
      </trkpt>
      <trkpt lat="50.75974" lon="5.36666">
        <ele>68.599998474121</ele>
        <time>2022-01-16T09:28:38.000Z</time>
      </trkpt>
      <trkpt lat="50.75986" lon="5.36684">
        <ele>68.400001525879</ele>
        <time>2022-01-16T09:28:35.000Z</time>
      </trkpt>
      <trkpt lat="50.76016" lon="5.36726">
        <ele>68.599998474121</ele>
        <time>2022-01-16T09:28:28.000Z</time>
      </trkpt>
      <trkpt lat="50.76026" lon="5.36737">
        <ele>68.599998474121</ele>
        <time>2022-01-16T09:28:26.000Z</time>
      </trkpt>
      <trkpt lat="50.76031" lon="5.36741">
        <ele>68.599998474121</ele>
        <time>2022-01-16T09:28:25.000Z</time>
      </trkpt>
      <trkpt lat="50.76036" lon="5.36743">
        <ele>68.599998474121</ele>
        <time>2022-01-16T09:28:24.000Z</time>
      </trkpt>
      <trkpt lat="50.76045" lon="5.36748">
        <ele>68.599998474121</ele>
        <time>2022-01-16T09:28:22.000Z</time>
      </trkpt>
      <trkpt lat="50.76049" lon="5.36751">
        <ele>68.599998474121</ele>
        <time>2022-01-16T09:28:21.000Z</time>
      </trkpt>
      <trkpt lat="50.76051" lon="5.36755">
        <ele>68.599998474121</ele>
        <time>2022-01-16T09:28:20.000Z</time>
      </trkpt>
      <trkpt lat="50.76049" lon="5.36772">
        <ele>68.400001525879</ele>
        <time>2022-01-16T09:28:17.000Z</time>
      </trkpt>
      <trkpt lat="50.76047" lon="5.36779">
        <ele>68.199996948242</ele>
        <time>2022-01-16T09:28:16.000Z</time>
      </trkpt>
      <trkpt lat="50.76044" lon="5.36785">
        <ele>68.400001525879</ele>
        <time>2022-01-16T09:28:15.000Z</time>
      </trkpt>
      <trkpt lat="50.76028" lon="5.36812">
        <ele>68.199996948242</ele>
        <time>2022-01-16T09:28:11.000Z</time>
      </trkpt>
      <trkpt lat="50.76006" lon="5.3686">
        <ele>68</ele>
        <time>2022-01-16T09:28:05.000Z</time>
      </trkpt>
      <trkpt lat="50.76001" lon="5.36878">
        <ele>67.800003051758</ele>
        <time>2022-01-16T09:28:03.000Z</time>
      </trkpt>
      <trkpt lat="50.75977" lon="5.36961">
        <ele>67.400001525879</ele>
        <time>2022-01-16T09:27:54.000Z</time>
      </trkpt>
      <trkpt lat="50.75967" lon="5.37008">
        <ele>67.599998474121</ele>
        <time>2022-01-16T09:27:49.000Z</time>
      </trkpt>
      <trkpt lat="50.7597" lon="5.37067">
        <ele>67.800003051758</ele>
        <time>2022-01-16T09:27:43.000Z</time>
      </trkpt>
      <trkpt lat="50.75976" lon="5.37104">
        <ele>68</ele>
        <time>2022-01-16T09:27:39.000Z</time>
      </trkpt>
      <trkpt lat="50.75984" lon="5.37161">
        <ele>68.599998474121</ele>
        <time>2022-01-16T09:27:33.000Z</time>
      </trkpt>
      <trkpt lat="50.75987" lon="5.3721">
        <ele>68.400001525879</ele>
        <time>2022-01-16T09:27:28.000Z</time>
      </trkpt>
      <trkpt lat="50.75989" lon="5.37258">
        <ele>68.599998474121</ele>
        <time>2022-01-16T09:27:23.000Z</time>
      </trkpt>
      <trkpt lat="50.75991" lon="5.37277">
        <ele>68.599998474121</ele>
        <time>2022-01-16T09:27:21.000Z</time>
      </trkpt>
      <trkpt lat="50.75996" lon="5.37326">
        <ele>69.199996948242</ele>
        <time>2022-01-16T09:27:16.000Z</time>
      </trkpt>
      <trkpt lat="50.76002" lon="5.37394">
        <ele>69.400001525879</ele>
        <time>2022-01-16T09:27:09.000Z</time>
      </trkpt>
      <trkpt lat="50.76001" lon="5.37481">
        <ele>70.400001525879</ele>
        <time>2022-01-16T09:27:00.000Z</time>
      </trkpt>
      <trkpt lat="50.76" lon="5.3749">
        <ele>70.800003051758</ele>
        <time>2022-01-16T09:26:59.000Z</time>
      </trkpt>
      <trkpt lat="50.75997" lon="5.37507">
        <ele>71.199996948242</ele>
        <time>2022-01-16T09:26:57.000Z</time>
      </trkpt>
      <trkpt lat="50.75989" lon="5.37519">
        <ele>71.199996948242</ele>
        <time>2022-01-16T09:26:55.000Z</time>
      </trkpt>
      <trkpt lat="50.75983" lon="5.37521">
        <ele>71.400001525879</ele>
        <time>2022-01-16T09:26:54.000Z</time>
      </trkpt>
      <trkpt lat="50.75957" lon="5.37533">
        <ele>72.199996948242</ele>
        <time>2022-01-16T09:26:50.000Z</time>
      </trkpt>
      <trkpt lat="50.75938" lon="5.37546">
        <ele>72.800003051758</ele>
        <time>2022-01-16T09:26:47.000Z</time>
      </trkpt>
      <trkpt lat="50.75904" lon="5.37563">
        <ele>74</ele>
        <time>2022-01-16T09:26:42.000Z</time>
      </trkpt>
      <trkpt lat="50.75889" lon="5.37564">
        <ele>74.599998474121</ele>
        <time>2022-01-16T09:26:40.000Z</time>
      </trkpt>
      <trkpt lat="50.7585" lon="5.3756">
        <ele>76</ele>
        <time>2022-01-16T09:26:35.000Z</time>
      </trkpt>
      <trkpt lat="50.7581" lon="5.37554">
        <ele>78.400001525879</ele>
        <time>2022-01-16T09:26:30.000Z</time>
      </trkpt>
      <trkpt lat="50.75763" lon="5.37548">
        <ele>79.400001525879</ele>
        <time>2022-01-16T09:26:24.000Z</time>
      </trkpt>
      <trkpt lat="50.75747" lon="5.37545">
        <ele>79.800003051758</ele>
        <time>2022-01-16T09:26:22.000Z</time>
      </trkpt>
      <trkpt lat="50.75717" lon="5.37541">
        <ele>80.400001525879</ele>
        <time>2022-01-16T09:26:18.000Z</time>
      </trkpt>
      <trkpt lat="50.7571" lon="5.37541">
        <ele>80.400001525879</ele>
        <time>2022-01-16T09:26:17.000Z</time>
      </trkpt>
      <trkpt lat="50.75696" lon="5.37542">
        <ele>80.400001525879</ele>
        <time>2022-01-16T09:26:15.000Z</time>
      </trkpt>
      <trkpt lat="50.75677" lon="5.37552">
        <ele>80.800003051758</ele>
        <time>2022-01-16T09:26:12.000Z</time>
      </trkpt>
      <trkpt lat="50.75638" lon="5.3759">
        <ele>82.199996948242</ele>
        <time>2022-01-16T09:26:05.000Z</time>
      </trkpt>
      <trkpt lat="50.75627" lon="5.37602">
        <ele>82.800003051758</ele>
        <time>2022-01-16T09:26:03.000Z</time>
      </trkpt>
      <trkpt lat="50.75597" lon="5.37632">
        <ele>83.400001525879</ele>
        <time>2022-01-16T09:25:58.000Z</time>
      </trkpt>
      <trkpt lat="50.75579" lon="5.37652">
        <ele>83.400001525879</ele>
        <time>2022-01-16T09:25:55.000Z</time>
      </trkpt>
      <trkpt lat="50.75553" lon="5.37678">
        <ele>83.599998474121</ele>
        <time>2022-01-16T09:25:51.000Z</time>
      </trkpt>
      <trkpt lat="50.75502" lon="5.3773">
        <ele>84.400001525879</ele>
        <time>2022-01-16T09:25:43.000Z</time>
      </trkpt>
      <trkpt lat="50.75483" lon="5.3775">
        <ele>84.800003051758</ele>
        <time>2022-01-16T09:25:40.000Z</time>
      </trkpt>
      <trkpt lat="50.7547" lon="5.37763">
        <ele>85</ele>
        <time>2022-01-16T09:25:38.000Z</time>
      </trkpt>
      <trkpt lat="50.7545" lon="5.37783">
        <ele>85.400001525879</ele>
        <time>2022-01-16T09:25:35.000Z</time>
      </trkpt>
      <trkpt lat="50.75405" lon="5.37815">
        <ele>85.599998474121</ele>
        <time>2022-01-16T09:25:29.000Z</time>
      </trkpt>
      <trkpt lat="50.75388" lon="5.37823">
        <ele>85.599998474121</ele>
        <time>2022-01-16T09:25:27.000Z</time>
      </trkpt>
      <trkpt lat="50.75353" lon="5.37834">
        <ele>86</ele>
        <time>2022-01-16T09:25:23.000Z</time>
      </trkpt>
      <trkpt lat="50.75299" lon="5.37835">
        <ele>87</ele>
        <time>2022-01-16T09:25:17.000Z</time>
      </trkpt>
      <trkpt lat="50.75241" lon="5.37827">
        <ele>89.800003051758</ele>
        <time>2022-01-16T09:25:11.000Z</time>
      </trkpt>
      <trkpt lat="50.75211" lon="5.37823">
        <ele>91.400001525879</ele>
        <time>2022-01-16T09:25:08.000Z</time>
      </trkpt>
      <trkpt lat="50.75201" lon="5.37822">
        <ele>92.199996948242</ele>
        <time>2022-01-16T09:25:07.000Z</time>
      </trkpt>
      <trkpt lat="50.75181" lon="5.37819">
        <ele>92.800003051758</ele>
        <time>2022-01-16T09:25:05.000Z</time>
      </trkpt>
      <trkpt lat="50.75141" lon="5.37814">
        <ele>94.400001525879</ele>
        <time>2022-01-16T09:25:01.000Z</time>
      </trkpt>
      <trkpt lat="50.75122" lon="5.37812">
        <ele>94.800003051758</ele>
        <time>2022-01-16T09:24:59.000Z</time>
      </trkpt>
      <trkpt lat="50.75102" lon="5.37809">
        <ele>95.400001525879</ele>
        <time>2022-01-16T09:24:57.000Z</time>
      </trkpt>
      <trkpt lat="50.75083" lon="5.37806">
        <ele>95.800003051758</ele>
        <time>2022-01-16T09:24:55.000Z</time>
      </trkpt>
      <trkpt lat="50.75025" lon="5.37798">
        <ele>97.400001525879</ele>
        <time>2022-01-16T09:24:49.000Z</time>
      </trkpt>
      <trkpt lat="50.74978" lon="5.37792">
        <ele>100.40000152588</ele>
        <time>2022-01-16T09:24:44.000Z</time>
      </trkpt>
      <trkpt lat="50.74949" lon="5.37788">
        <ele>102.59999847412</ele>
        <time>2022-01-16T09:24:41.000Z</time>
      </trkpt>
      <trkpt lat="50.74929" lon="5.37785">
        <ele>103.40000152588</ele>
        <time>2022-01-16T09:24:39.000Z</time>
      </trkpt>
      <trkpt lat="50.7489" lon="5.3778">
        <ele>105.40000152588</ele>
        <time>2022-01-16T09:24:35.000Z</time>
      </trkpt>
      <trkpt lat="50.7488" lon="5.37779">
        <ele>105.59999847412</ele>
        <time>2022-01-16T09:24:34.000Z</time>
      </trkpt>
      <trkpt lat="50.74851" lon="5.37777">
        <ele>107</ele>
        <time>2022-01-16T09:24:31.000Z</time>
      </trkpt>
      <trkpt lat="50.74832" lon="5.37777">
        <ele>107.80000305176</ele>
        <time>2022-01-16T09:24:29.000Z</time>
      </trkpt>
      <trkpt lat="50.74813" lon="5.37777">
        <ele>108.59999847412</ele>
        <time>2022-01-16T09:24:27.000Z</time>
      </trkpt>
      <trkpt lat="50.74794" lon="5.37778">
        <ele>109</ele>
        <time>2022-01-16T09:24:25.000Z</time>
      </trkpt>
      <trkpt lat="50.74776" lon="5.37778">
        <ele>110.19999694824</ele>
        <time>2022-01-16T09:24:23.000Z</time>
      </trkpt>
      <trkpt lat="50.74749" lon="5.37779">
        <ele>111.40000152588</ele>
        <time>2022-01-16T09:24:20.000Z</time>
      </trkpt>
      <trkpt lat="50.74714" lon="5.3778">
        <ele>112.59999847412</ele>
        <time>2022-01-16T09:24:16.000Z</time>
      </trkpt>
      <trkpt lat="50.74689" lon="5.37781">
        <ele>113.59999847412</ele>
        <time>2022-01-16T09:24:13.000Z</time>
      </trkpt>
      <trkpt lat="50.74651" lon="5.37782">
        <ele>114.59999847412</ele>
        <time>2022-01-16T09:24:08.000Z</time>
      </trkpt>
      <trkpt lat="50.74636" lon="5.37783">
        <ele>115</ele>
        <time>2022-01-16T09:24:06.000Z</time>
      </trkpt>
      <trkpt lat="50.74608" lon="5.37784">
        <ele>115.19999694824</ele>
        <time>2022-01-16T09:24:02.000Z</time>
      </trkpt>
      <trkpt lat="50.74587" lon="5.37785">
        <ele>115.19999694824</ele>
        <time>2022-01-16T09:23:59.000Z</time>
      </trkpt>
      <trkpt lat="50.74574" lon="5.37785">
        <ele>115.40000152588</ele>
        <time>2022-01-16T09:23:57.000Z</time>
      </trkpt>
      <trkpt lat="50.74555" lon="5.37786">
        <ele>115.40000152588</ele>
        <time>2022-01-16T09:23:54.000Z</time>
      </trkpt>
      <trkpt lat="50.74497" lon="5.37788">
        <ele>115.80000305176</ele>
        <time>2022-01-16T09:23:45.000Z</time>
      </trkpt>
      <trkpt lat="50.74484" lon="5.37788">
        <ele>116</ele>
        <time>2022-01-16T09:23:43.000Z</time>
      </trkpt>
      <trkpt lat="50.74426" lon="5.37789">
        <ele>116.40000152588</ele>
        <time>2022-01-16T09:23:34.000Z</time>
      </trkpt>
      <trkpt lat="50.74388" lon="5.3779">
        <ele>116.59999847412</ele>
        <time>2022-01-16T09:23:28.000Z</time>
      </trkpt>
      <trkpt lat="50.74362" lon="5.37791">
        <ele>117</ele>
        <time>2022-01-16T09:23:24.000Z</time>
      </trkpt>
      <trkpt lat="50.74314" lon="5.37792">
        <ele>118</ele>
        <time>2022-01-16T09:23:16.000Z</time>
      </trkpt>
      <trkpt lat="50.74285" lon="5.37791">
        <ele>118.40000152588</ele>
        <time>2022-01-16T09:23:10.000Z</time>
      </trkpt>
      <trkpt lat="50.74256" lon="5.37791">
        <ele>118.40000152588</ele>
        <time>2022-01-16T09:23:04.000Z</time>
      </trkpt>
      <trkpt lat="50.74208" lon="5.37789">
        <ele>115.80000305176</ele>
        <time>2022-01-16T09:22:55.000Z</time>
      </trkpt>
      <trkpt lat="50.74189" lon="5.37788">
        <ele>115</ele>
        <time>2022-01-16T09:22:51.000Z</time>
      </trkpt>
      <trkpt lat="50.74174" lon="5.37787">
        <ele>114.40000152588</ele>
        <time>2022-01-16T09:22:48.000Z</time>
      </trkpt>
      <trkpt lat="50.74165" lon="5.37787">
        <ele>113.59999847412</ele>
        <time>2022-01-16T09:22:46.000Z</time>
      </trkpt>
      <trkpt lat="50.7416" lon="5.37787">
        <ele>113.40000152588</ele>
        <time>2022-01-16T09:22:45.000Z</time>
      </trkpt>
      <trkpt lat="50.74131" lon="5.37789">
        <ele>111.59999847412</ele>
        <time>2022-01-16T09:22:39.000Z</time>
      </trkpt>
      <trkpt lat="50.74126" lon="5.37789">
        <ele>111.59999847412</ele>
        <time>2022-01-16T09:22:38.000Z</time>
      </trkpt>
      <trkpt lat="50.74115" lon="5.37789">
        <ele>111.19999694824</ele>
        <time>2022-01-16T09:22:36.000Z</time>
      </trkpt>
      <trkpt lat="50.74105" lon="5.37786">
        <ele>111.19999694824</ele>
        <time>2022-01-16T09:22:34.000Z</time>
      </trkpt>
      <trkpt lat="50.74099" lon="5.37784">
        <ele>111.19999694824</ele>
        <time>2022-01-16T09:22:33.000Z</time>
      </trkpt>
      <trkpt lat="50.74094" lon="5.37781">
        <ele>111.19999694824</ele>
        <time>2022-01-16T09:22:32.000Z</time>
      </trkpt>
      <trkpt lat="50.74055" lon="5.37759">
        <ele>110.59999847412</ele>
        <time>2022-01-16T09:22:25.000Z</time>
      </trkpt>
      <trkpt lat="50.74049" lon="5.37757">
        <ele>110.59999847412</ele>
        <time>2022-01-16T09:22:24.000Z</time>
      </trkpt>
      <trkpt lat="50.74007" lon="5.37752">
        <ele>110.40000152588</ele>
        <time>2022-01-16T09:22:17.000Z</time>
      </trkpt>
      <trkpt lat="50.73954" lon="5.37762">
        <ele>110.59999847412</ele>
        <time>2022-01-16T09:22:08.000Z</time>
      </trkpt>
      <trkpt lat="50.73948" lon="5.37764">
        <ele>110.59999847412</ele>
        <time>2022-01-16T09:22:07.000Z</time>
      </trkpt>
      <trkpt lat="50.73894" lon="5.37782">
        <ele>110.40000152588</ele>
        <time>2022-01-16T09:21:58.000Z</time>
      </trkpt>
      <trkpt lat="50.73888" lon="5.37784">
        <ele>110.19999694824</ele>
        <time>2022-01-16T09:21:57.000Z</time>
      </trkpt>
      <trkpt lat="50.73862" lon="5.37792">
        <ele>109.59999847412</ele>
        <time>2022-01-16T09:21:52.000Z</time>
      </trkpt>
      <trkpt lat="50.73843" lon="5.37796">
        <ele>108.80000305176</ele>
        <time>2022-01-16T09:21:48.000Z</time>
      </trkpt>
      <trkpt lat="50.73838" lon="5.37797">
        <ele>108.59999847412</ele>
        <time>2022-01-16T09:21:47.000Z</time>
      </trkpt>
      <trkpt lat="50.738" lon="5.37804">
        <ele>107.19999694824</ele>
        <time>2022-01-16T09:21:39.000Z</time>
      </trkpt>
      <trkpt lat="50.7376" lon="5.37812">
        <ele>105.40000152588</ele>
        <time>2022-01-16T09:21:31.000Z</time>
      </trkpt>
      <trkpt lat="50.73732" lon="5.37816">
        <ele>104</ele>
        <time>2022-01-16T09:21:25.000Z</time>
      </trkpt>
      <trkpt lat="50.73713" lon="5.37819">
        <ele>103.59999847412</ele>
        <time>2022-01-16T09:21:21.000Z</time>
      </trkpt>
      <trkpt lat="50.73709" lon="5.3782">
        <ele>103.59999847412</ele>
        <time>2022-01-16T09:21:20.000Z</time>
      </trkpt>
      <trkpt lat="50.73683" lon="5.37823">
        <ele>102.59999847412</ele>
        <time>2022-01-16T09:21:14.000Z</time>
      </trkpt>
      <trkpt lat="50.7366" lon="5.37831">
        <ele>102.40000152588</ele>
        <time>2022-01-16T09:21:08.000Z</time>
      </trkpt>
      <trkpt lat="50.73654" lon="5.37834">
        <ele>102.40000152588</ele>
        <time>2022-01-16T09:21:06.000Z</time>
      </trkpt>
      <trkpt lat="50.73635" lon="5.37839">
        <ele>102.40000152588</ele>
        <time>2022-01-16T09:21:01.000Z</time>
      </trkpt>
      <trkpt lat="50.73633" lon="5.3784">
        <ele>102.40000152588</ele>
        <time>2022-01-16T09:21:00.000Z</time>
      </trkpt>
      <trkpt lat="50.73624" lon="5.37846">
        <ele>101.40000152588</ele>
        <time>2022-01-16T09:18:54.000Z</time>
      </trkpt>
      <trkpt lat="50.7362" lon="5.37848">
        <ele>101</ele>
        <time>2022-01-16T09:18:52.000Z</time>
      </trkpt>
      <trkpt lat="50.73615" lon="5.37849">
        <ele>100.40000152588</ele>
        <time>2022-01-16T09:18:50.000Z</time>
      </trkpt>
      <trkpt lat="50.73594" lon="5.37852">
        <ele>99.599998474121</ele>
        <time>2022-01-16T09:18:45.000Z</time>
      </trkpt>
      <trkpt lat="50.73589" lon="5.37851">
        <ele>99.599998474121</ele>
        <time>2022-01-16T09:18:44.000Z</time>
      </trkpt>
      <trkpt lat="50.73559" lon="5.37848">
        <ele>98.599998474121</ele>
        <time>2022-01-16T09:18:38.000Z</time>
      </trkpt>
      <trkpt lat="50.73524" lon="5.37839">
        <ele>97.400001525879</ele>
        <time>2022-01-16T09:18:31.000Z</time>
      </trkpt>
      <trkpt lat="50.7349" lon="5.37825">
        <ele>95.199996948242</ele>
        <time>2022-01-16T09:18:24.000Z</time>
      </trkpt>
      <trkpt lat="50.73466" lon="5.37816">
        <ele>94</ele>
        <time>2022-01-16T09:18:19.000Z</time>
      </trkpt>
      <trkpt lat="50.73451" lon="5.37812">
        <ele>93</ele>
        <time>2022-01-16T09:18:16.000Z</time>
      </trkpt>
      <trkpt lat="50.73442" lon="5.37811">
        <ele>92.599998474121</ele>
        <time>2022-01-16T09:18:14.000Z</time>
      </trkpt>
      <trkpt lat="50.73422" lon="5.37811">
        <ele>92.199996948242</ele>
        <time>2022-01-16T09:18:10.000Z</time>
      </trkpt>
      <trkpt lat="50.73407" lon="5.37816">
        <ele>91.599998474121</ele>
        <time>2022-01-16T09:18:07.000Z</time>
      </trkpt>
      <trkpt lat="50.73392" lon="5.37822">
        <ele>90.599998474121</ele>
        <time>2022-01-16T09:18:04.000Z</time>
      </trkpt>
      <trkpt lat="50.73363" lon="5.37841">
        <ele>89.199996948242</ele>
        <time>2022-01-16T09:17:58.000Z</time>
      </trkpt>
      <trkpt lat="50.73349" lon="5.37851">
        <ele>89</ele>
        <time>2022-01-16T09:17:55.000Z</time>
      </trkpt>
      <trkpt lat="50.73329" lon="5.37867">
        <ele>88.800003051758</ele>
        <time>2022-01-16T09:17:51.000Z</time>
      </trkpt>
      <trkpt lat="50.73303" lon="5.3789">
        <ele>89</ele>
        <time>2022-01-16T09:17:46.000Z</time>
      </trkpt>
      <trkpt lat="50.73298" lon="5.37895">
        <ele>89</ele>
        <time>2022-01-16T09:17:45.000Z</time>
      </trkpt>
      <trkpt lat="50.73251" lon="5.3794">
        <ele>88.599998474121</ele>
        <time>2022-01-16T09:17:36.000Z</time>
      </trkpt>
      <trkpt lat="50.73245" lon="5.37945">
        <ele>88.800003051758</ele>
        <time>2022-01-16T09:17:35.000Z</time>
      </trkpt>
      <trkpt lat="50.73234" lon="5.37952">
        <ele>88.800003051758</ele>
        <time>2022-01-16T09:17:33.000Z</time>
      </trkpt>
      <trkpt lat="50.73223" lon="5.37948">
        <ele>88.800003051758</ele>
        <time>2022-01-16T09:17:31.000Z</time>
      </trkpt>
      <trkpt lat="50.73218" lon="5.37942">
        <ele>89</ele>
        <time>2022-01-16T09:17:30.000Z</time>
      </trkpt>
      <trkpt lat="50.73182" lon="5.37895">
        <ele>89.599998474121</ele>
        <time>2022-01-16T09:17:23.000Z</time>
      </trkpt>
      <trkpt lat="50.73169" lon="5.37887">
        <ele>89.800003051758</ele>
        <time>2022-01-16T09:17:21.000Z</time>
      </trkpt>
      <trkpt lat="50.73154" lon="5.37888">
        <ele>90.199996948242</ele>
        <time>2022-01-16T09:17:19.000Z</time>
      </trkpt>
      <trkpt lat="50.73139" lon="5.37891">
        <ele>90.599998474121</ele>
        <time>2022-01-16T09:17:17.000Z</time>
      </trkpt>
      <trkpt lat="50.73094" lon="5.37898">
        <ele>91.400001525879</ele>
        <time>2022-01-16T09:17:11.000Z</time>
      </trkpt>
      <trkpt lat="50.73072" lon="5.37903">
        <ele>91.400001525879</ele>
        <time>2022-01-16T09:17:08.000Z</time>
      </trkpt>
      <trkpt lat="50.73066" lon="5.37905">
        <ele>91.400001525879</ele>
        <time>2022-01-16T09:17:07.000Z</time>
      </trkpt>
      <trkpt lat="50.7306" lon="5.3791">
        <ele>91.199996948242</ele>
        <time>2022-01-16T09:17:06.000Z</time>
      </trkpt>
      <trkpt lat="50.73051" lon="5.37922">
        <ele>91</ele>
        <time>2022-01-16T09:17:04.000Z</time>
      </trkpt>
      <trkpt lat="50.73047" lon="5.3793">
        <ele>90.599998474121</ele>
        <time>2022-01-16T09:17:03.000Z</time>
      </trkpt>
      <trkpt lat="50.73026" lon="5.37987">
        <ele>90.400001525879</ele>
        <time>2022-01-16T09:16:56.000Z</time>
      </trkpt>
      <trkpt lat="50.73022" lon="5.37995">
        <ele>90.599998474121</ele>
        <time>2022-01-16T09:16:55.000Z</time>
      </trkpt>
      <trkpt lat="50.72997" lon="5.38041">
        <ele>91</ele>
        <time>2022-01-16T09:16:49.000Z</time>
      </trkpt>
      <trkpt lat="50.72963" lon="5.38077">
        <ele>91.599998474121</ele>
        <time>2022-01-16T09:16:43.000Z</time>
      </trkpt>
      <trkpt lat="50.72957" lon="5.38082">
        <ele>91.599998474121</ele>
        <time>2022-01-16T09:16:42.000Z</time>
      </trkpt>
      <trkpt lat="50.72919" lon="5.3811">
        <ele>92</ele>
        <time>2022-01-16T09:16:36.000Z</time>
      </trkpt>
      <trkpt lat="50.72867" lon="5.38139">
        <ele>92.199996948242</ele>
        <time>2022-01-16T09:16:28.000Z</time>
      </trkpt>
      <trkpt lat="50.7286" lon="5.38143">
        <ele>92</ele>
        <time>2022-01-16T09:16:27.000Z</time>
      </trkpt>
      <trkpt lat="50.72824" lon="5.38173">
        <ele>92</ele>
        <time>2022-01-16T09:16:21.000Z</time>
      </trkpt>
      <trkpt lat="50.72808" lon="5.38191">
        <ele>92.199996948242</ele>
        <time>2022-01-16T09:16:18.000Z</time>
      </trkpt>
      <trkpt lat="50.72766" lon="5.38242">
        <ele>91.199996948242</ele>
        <time>2022-01-16T09:16:10.000Z</time>
      </trkpt>
      <trkpt lat="50.72724" lon="5.38294">
        <ele>91.400001525879</ele>
        <time>2022-01-16T09:16:02.000Z</time>
      </trkpt>
      <trkpt lat="50.72682" lon="5.38354">
        <ele>92.199996948242</ele>
        <time>2022-01-16T09:15:55.000Z</time>
      </trkpt>
      <trkpt lat="50.72656" lon="5.38395">
        <ele>94.800003051758</ele>
        <time>2022-01-16T09:15:51.000Z</time>
      </trkpt>
      <trkpt lat="50.72635" lon="5.38427">
        <ele>98.599998474121</ele>
        <time>2022-01-16T09:15:48.000Z</time>
      </trkpt>
      <trkpt lat="50.72614" lon="5.38461">
        <ele>101.59999847412</ele>
        <time>2022-01-16T09:15:45.000Z</time>
      </trkpt>
      <trkpt lat="50.72587" lon="5.38506">
        <ele>103.19999694824</ele>
        <time>2022-01-16T09:15:41.000Z</time>
      </trkpt>
      <trkpt lat="50.7258" lon="5.38516">
        <ele>103.19999694824</ele>
        <time>2022-01-16T09:15:40.000Z</time>
      </trkpt>
      <trkpt lat="50.72574" lon="5.38526">
        <ele>103.40000152588</ele>
        <time>2022-01-16T09:15:39.000Z</time>
      </trkpt>
      <trkpt lat="50.72567" lon="5.38536">
        <ele>103.80000305176</ele>
        <time>2022-01-16T09:15:38.000Z</time>
      </trkpt>
      <trkpt lat="50.72561" lon="5.38546">
        <ele>104</ele>
        <time>2022-01-16T09:15:37.000Z</time>
      </trkpt>
      <trkpt lat="50.72556" lon="5.38554">
        <ele>104.19999694824</ele>
        <time>2022-01-16T09:15:36.000Z</time>
      </trkpt>
      <trkpt lat="50.7255" lon="5.38562">
        <ele>104.19999694824</ele>
        <time>2022-01-16T09:15:35.000Z</time>
      </trkpt>
      <trkpt lat="50.72537" lon="5.38574">
        <ele>104.59999847412</ele>
        <time>2022-01-16T09:15:33.000Z</time>
      </trkpt>
      <trkpt lat="50.72505" lon="5.38596">
        <ele>105.59999847412</ele>
        <time>2022-01-16T09:15:28.000Z</time>
      </trkpt>
      <trkpt lat="50.72469" lon="5.38626">
        <ele>106.40000152588</ele>
        <time>2022-01-16T09:15:22.000Z</time>
      </trkpt>
      <trkpt lat="50.72463" lon="5.38632">
        <ele>106.59999847412</ele>
        <time>2022-01-16T09:15:21.000Z</time>
      </trkpt>
      <trkpt lat="50.72457" lon="5.38638">
        <ele>106.80000305176</ele>
        <time>2022-01-16T09:15:20.000Z</time>
      </trkpt>
      <trkpt lat="50.72438" lon="5.38669">
        <ele>107</ele>
        <time>2022-01-16T09:15:16.000Z</time>
      </trkpt>
      <trkpt lat="50.72429" lon="5.38685">
        <ele>107.19999694824</ele>
        <time>2022-01-16T09:15:14.000Z</time>
      </trkpt>
      <trkpt lat="50.72416" lon="5.38708">
        <ele>107.59999847412</ele>
        <time>2022-01-16T09:15:11.000Z</time>
      </trkpt>
      <trkpt lat="50.72394" lon="5.38747">
        <ele>107.80000305176</ele>
        <time>2022-01-16T09:15:06.000Z</time>
      </trkpt>
      <trkpt lat="50.7239" lon="5.38755">
        <ele>107.80000305176</ele>
        <time>2022-01-16T09:15:05.000Z</time>
      </trkpt>
      <trkpt lat="50.72365" lon="5.38801">
        <ele>108</ele>
        <time>2022-01-16T09:14:59.000Z</time>
      </trkpt>
      <trkpt lat="50.72358" lon="5.38817">
        <ele>108</ele>
        <time>2022-01-16T09:14:57.000Z</time>
      </trkpt>
      <trkpt lat="50.72351" lon="5.38833">
        <ele>108.19999694824</ele>
        <time>2022-01-16T09:14:55.000Z</time>
      </trkpt>
      <trkpt lat="50.72329" lon="5.38881">
        <ele>107.59999847412</ele>
        <time>2022-01-16T09:14:49.000Z</time>
      </trkpt>
      <trkpt lat="50.72301" lon="5.38938">
        <ele>106.19999694824</ele>
        <time>2022-01-16T09:14:41.000Z</time>
      </trkpt>
      <trkpt lat="50.72292" lon="5.38959">
        <ele>106.19999694824</ele>
        <time>2022-01-16T09:14:38.000Z</time>
      </trkpt>
      <trkpt lat="50.72289" lon="5.38967">
        <ele>106.19999694824</ele>
        <time>2022-01-16T09:14:37.000Z</time>
      </trkpt>
      <trkpt lat="50.72278" lon="5.38992">
        <ele>106.59999847412</ele>
        <time>2022-01-16T09:14:34.000Z</time>
      </trkpt>
      <trkpt lat="50.72256" lon="5.39046">
        <ele>108.59999847412</ele>
        <time>2022-01-16T09:14:28.000Z</time>
      </trkpt>
      <trkpt lat="50.72248" lon="5.39065">
        <ele>109.40000152588</ele>
        <time>2022-01-16T09:14:26.000Z</time>
      </trkpt>
      <trkpt lat="50.72237" lon="5.39093">
        <ele>109.40000152588</ele>
        <time>2022-01-16T09:14:23.000Z</time>
      </trkpt>
      <trkpt lat="50.72222" lon="5.39132">
        <ele>110</ele>
        <time>2022-01-16T09:14:19.000Z</time>
      </trkpt>
      <trkpt lat="50.72217" lon="5.3914">
        <ele>110</ele>
        <time>2022-01-16T09:14:18.000Z</time>
      </trkpt>
      <trkpt lat="50.72191" lon="5.39173">
        <ele>110.40000152588</ele>
        <time>2022-01-16T09:14:13.000Z</time>
      </trkpt>
      <trkpt lat="50.72177" lon="5.39193">
        <ele>111.19999694824</ele>
        <time>2022-01-16T09:14:10.000Z</time>
      </trkpt>
      <trkpt lat="50.72168" lon="5.39208">
        <ele>111.80000305176</ele>
        <time>2022-01-16T09:14:08.000Z</time>
      </trkpt>
      <trkpt lat="50.72145" lon="5.39259">
        <ele>113.80000305176</ele>
        <time>2022-01-16T09:14:02.000Z</time>
      </trkpt>
      <trkpt lat="50.72137" lon="5.39277">
        <ele>114.40000152588</ele>
        <time>2022-01-16T09:14:00.000Z</time>
      </trkpt>
      <trkpt lat="50.7213" lon="5.39295">
        <ele>114.59999847412</ele>
        <time>2022-01-16T09:13:58.000Z</time>
      </trkpt>
      <trkpt lat="50.72118" lon="5.39322">
        <ele>115.40000152588</ele>
        <time>2022-01-16T09:13:55.000Z</time>
      </trkpt>
      <trkpt lat="50.72104" lon="5.39356">
        <ele>115.59999847412</ele>
        <time>2022-01-16T09:13:51.000Z</time>
      </trkpt>
      <trkpt lat="50.721" lon="5.39365">
        <ele>115.59999847412</ele>
        <time>2022-01-16T09:13:50.000Z</time>
      </trkpt>
      <trkpt lat="50.7208" lon="5.39402">
        <ele>115.40000152588</ele>
        <time>2022-01-16T09:13:45.000Z</time>
      </trkpt>
      <trkpt lat="50.72072" lon="5.39415">
        <ele>115.59999847412</ele>
        <time>2022-01-16T09:13:43.000Z</time>
      </trkpt>
      <trkpt lat="50.72058" lon="5.39429">
        <ele>115.59999847412</ele>
        <time>2022-01-16T09:13:40.000Z</time>
      </trkpt>
      <trkpt lat="50.72048" lon="5.39437">
        <ele>115.59999847412</ele>
        <time>2022-01-16T09:13:38.000Z</time>
      </trkpt>
      <trkpt lat="50.72018" lon="5.39463">
        <ele>115</ele>
        <time>2022-01-16T09:13:32.000Z</time>
      </trkpt>
      <trkpt lat="50.72003" lon="5.39475">
        <ele>114.80000305176</ele>
        <time>2022-01-16T09:13:29.000Z</time>
      </trkpt>
      <trkpt lat="50.71968" lon="5.39504">
        <ele>114.19999694824</ele>
        <time>2022-01-16T09:13:22.000Z</time>
      </trkpt>
      <trkpt lat="50.71958" lon="5.39513">
        <ele>113.59999847412</ele>
        <time>2022-01-16T09:13:20.000Z</time>
      </trkpt>
      <trkpt lat="50.71926" lon="5.39542">
        <ele>112.19999694824</ele>
        <time>2022-01-16T09:13:13.000Z</time>
      </trkpt>
      <trkpt lat="50.71922" lon="5.39546">
        <ele>112</ele>
        <time>2022-01-16T09:13:12.000Z</time>
      </trkpt>
      <trkpt lat="50.71904" lon="5.39566">
        <ele>111.40000152588</ele>
        <time>2022-01-16T09:13:08.000Z</time>
      </trkpt>
      <trkpt lat="50.71884" lon="5.39594">
        <ele>111</ele>
        <time>2022-01-16T09:13:03.000Z</time>
      </trkpt>
      <trkpt lat="50.7188" lon="5.396">
        <ele>110.80000305176</ele>
        <time>2022-01-16T09:13:02.000Z</time>
      </trkpt>
      <trkpt lat="50.71838" lon="5.39656">
        <ele>109.40000152588</ele>
        <time>2022-01-16T09:12:52.000Z</time>
      </trkpt>
      <trkpt lat="50.71829" lon="5.39667">
        <ele>108.80000305176</ele>
        <time>2022-01-16T09:12:50.000Z</time>
      </trkpt>
      <trkpt lat="50.71809" lon="5.39693">
        <ele>107</ele>
        <time>2022-01-16T09:12:45.000Z</time>
      </trkpt>
      <trkpt lat="50.71793" lon="5.39713">
        <ele>106</ele>
        <time>2022-01-16T09:12:41.000Z</time>
      </trkpt>
      <trkpt lat="50.71778" lon="5.39733">
        <ele>105.59999847412</ele>
        <time>2022-01-16T09:12:37.000Z</time>
      </trkpt>
      <trkpt lat="50.71766" lon="5.39749">
        <ele>105.19999694824</ele>
        <time>2022-01-16T09:12:34.000Z</time>
      </trkpt>
      <trkpt lat="50.71759" lon="5.3976">
        <ele>105</ele>
        <time>2022-01-16T09:12:32.000Z</time>
      </trkpt>
      <trkpt lat="50.71752" lon="5.39773">
        <ele>105</ele>
        <time>2022-01-16T09:12:30.000Z</time>
      </trkpt>
      <trkpt lat="50.71748" lon="5.39779">
        <ele>105</ele>
        <time>2022-01-16T09:12:29.000Z</time>
      </trkpt>
      <trkpt lat="50.71738" lon="5.39783">
        <ele>105</ele>
        <time>2022-01-16T09:12:27.000Z</time>
      </trkpt>
      <trkpt lat="50.71728" lon="5.39782">
        <ele>105</ele>
        <time>2022-01-16T09:12:25.000Z</time>
      </trkpt>
      <trkpt lat="50.71717" lon="5.39785">
        <ele>105</ele>
        <time>2022-01-16T09:12:23.000Z</time>
      </trkpt>
      <trkpt lat="50.71711" lon="5.39787">
        <ele>105</ele>
        <time>2022-01-16T09:12:22.000Z</time>
      </trkpt>
      <trkpt lat="50.71692" lon="5.39789">
        <ele>105</ele>
        <time>2022-01-16T09:12:19.000Z</time>
      </trkpt>
      <trkpt lat="50.7168" lon="5.39784">
        <ele>105.19999694824</ele>
        <time>2022-01-16T09:12:17.000Z</time>
      </trkpt>
      <trkpt lat="50.71674" lon="5.39778">
        <ele>105.19999694824</ele>
        <time>2022-01-16T09:12:16.000Z</time>
      </trkpt>
      <trkpt lat="50.71669" lon="5.39771">
        <ele>105.19999694824</ele>
        <time>2022-01-16T09:12:15.000Z</time>
      </trkpt>
      <trkpt lat="50.71642" lon="5.39711">
        <ele>104.40000152588</ele>
        <time>2022-01-16T09:12:08.000Z</time>
      </trkpt>
      <trkpt lat="50.71611" lon="5.39667">
        <ele>103.80000305176</ele>
        <time>2022-01-16T09:12:02.000Z</time>
      </trkpt>
      <trkpt lat="50.71606" lon="5.39661">
        <ele>103.80000305176</ele>
        <time>2022-01-16T09:12:01.000Z</time>
      </trkpt>
      <trkpt lat="50.71594" lon="5.39648">
        <ele>103.80000305176</ele>
        <time>2022-01-16T09:11:59.000Z</time>
      </trkpt>
      <trkpt lat="50.71588" lon="5.39644">
        <ele>103.80000305176</ele>
        <time>2022-01-16T09:11:58.000Z</time>
      </trkpt>
      <trkpt lat="50.71574" lon="5.3964">
        <ele>104</ele>
        <time>2022-01-16T09:11:56.000Z</time>
      </trkpt>
      <trkpt lat="50.7156" lon="5.39642">
        <ele>105</ele>
        <time>2022-01-16T09:11:54.000Z</time>
      </trkpt>
      <trkpt lat="50.71552" lon="5.39643">
        <ele>106</ele>
        <time>2022-01-16T09:11:53.000Z</time>
      </trkpt>
      <trkpt lat="50.71537" lon="5.39639">
        <ele>106.80000305176</ele>
        <time>2022-01-16T09:11:51.000Z</time>
      </trkpt>
      <trkpt lat="50.71494" lon="5.39604">
        <ele>110.80000305176</ele>
        <time>2022-01-16T09:11:45.000Z</time>
      </trkpt>
      <trkpt lat="50.71487" lon="5.39598">
        <ele>111.19999694824</ele>
        <time>2022-01-16T09:11:44.000Z</time>
      </trkpt>
      <trkpt lat="50.71479" lon="5.39593">
        <ele>112.19999694824</ele>
        <time>2022-01-16T09:11:43.000Z</time>
      </trkpt>
      <trkpt lat="50.71455" lon="5.39575">
        <ele>114.59999847412</ele>
        <time>2022-01-16T09:11:40.000Z</time>
      </trkpt>
      <trkpt lat="50.71437" lon="5.39564">
        <ele>115.80000305176</ele>
        <time>2022-01-16T09:11:38.000Z</time>
      </trkpt>
      <trkpt lat="50.71419" lon="5.39553">
        <ele>117.59999847412</ele>
        <time>2022-01-16T09:11:36.000Z</time>
      </trkpt>
      <trkpt lat="50.71401" lon="5.39543">
        <ele>118.59999847412</ele>
        <time>2022-01-16T09:11:34.000Z</time>
      </trkpt>
      <trkpt lat="50.71384" lon="5.39535">
        <ele>119.19999694824</ele>
        <time>2022-01-16T09:11:32.000Z</time>
      </trkpt>
      <trkpt lat="50.71375" lon="5.39532">
        <ele>119.19999694824</ele>
        <time>2022-01-16T09:11:31.000Z</time>
      </trkpt>
      <trkpt lat="50.71366" lon="5.3953">
        <ele>119.40000152588</ele>
        <time>2022-01-16T09:11:30.000Z</time>
      </trkpt>
      <trkpt lat="50.71351" lon="5.39524">
        <ele>119.59999847412</ele>
        <time>2022-01-16T09:11:28.000Z</time>
      </trkpt>
      <trkpt lat="50.71343" lon="5.3952">
        <ele>119.80000305176</ele>
        <time>2022-01-16T09:11:27.000Z</time>
      </trkpt>
      <trkpt lat="50.7133" lon="5.3951">
        <ele>120.19999694824</ele>
        <time>2022-01-16T09:11:25.000Z</time>
      </trkpt>
      <trkpt lat="50.71314" lon="5.39489">
        <ele>121.40000152588</ele>
        <time>2022-01-16T09:11:22.000Z</time>
      </trkpt>
      <trkpt lat="50.71293" lon="5.39463">
        <ele>121.59999847412</ele>
        <time>2022-01-16T09:11:18.000Z</time>
      </trkpt>
      <trkpt lat="50.71278" lon="5.39443">
        <ele>121.80000305176</ele>
        <time>2022-01-16T09:11:15.000Z</time>
      </trkpt>
      <trkpt lat="50.71249" lon="5.39403">
        <ele>122.59999847412</ele>
        <time>2022-01-16T09:11:09.000Z</time>
      </trkpt>
      <trkpt lat="50.71229" lon="5.39377">
        <ele>123</ele>
        <time>2022-01-16T09:11:05.000Z</time>
      </trkpt>
      <trkpt lat="50.71196" lon="5.39335">
        <ele>123.19999694824</ele>
        <time>2022-01-16T09:10:58.000Z</time>
      </trkpt>
      <trkpt lat="50.71159" lon="5.39292">
        <ele>123.40000152588</ele>
        <time>2022-01-16T09:10:50.000Z</time>
      </trkpt>
      <trkpt lat="50.71143" lon="5.39277">
        <ele>123.59999847412</ele>
        <time>2022-01-16T09:10:46.000Z</time>
      </trkpt>
      <trkpt lat="50.71139" lon="5.39274">
        <ele>123.80000305176</ele>
        <time>2022-01-16T09:10:45.000Z</time>
      </trkpt>
      <trkpt lat="50.7113" lon="5.39264">
        <ele>124.59999847412</ele>
        <time>2022-01-16T09:10:40.000Z</time>
      </trkpt>
      <trkpt lat="50.71127" lon="5.39258">
        <ele>125</ele>
        <time>2022-01-16T09:10:38.000Z</time>
      </trkpt>
      <trkpt lat="50.71121" lon="5.39249">
        <ele>125.40000152588</ele>
        <time>2022-01-16T09:10:36.000Z</time>
      </trkpt>
      <trkpt lat="50.71118" lon="5.39244">
        <ele>125.59999847412</ele>
        <time>2022-01-16T09:10:35.000Z</time>
      </trkpt>
      <trkpt lat="50.71112" lon="5.3923">
        <ele>126.59999847412</ele>
        <time>2022-01-16T09:10:33.000Z</time>
      </trkpt>
      <trkpt lat="50.71109" lon="5.39221">
        <ele>127</ele>
        <time>2022-01-16T09:10:32.000Z</time>
      </trkpt>
      <trkpt lat="50.71105" lon="5.39212">
        <ele>127.40000152588</ele>
        <time>2022-01-16T09:10:31.000Z</time>
      </trkpt>
      <trkpt lat="50.71082" lon="5.39183">
        <ele>128.19999694824</ele>
        <time>2022-01-16T09:10:27.000Z</time>
      </trkpt>
      <trkpt lat="50.71068" lon="5.3917">
        <ele>128.19999694824</ele>
        <time>2022-01-16T09:10:25.000Z</time>
      </trkpt>
      <trkpt lat="50.71048" lon="5.39154">
        <ele>128.60000610352</ele>
        <time>2022-01-16T09:10:22.000Z</time>
      </trkpt>
      <trkpt lat="50.71041" lon="5.3915">
        <ele>129</ele>
        <time>2022-01-16T09:10:21.000Z</time>
      </trkpt>
      <trkpt lat="50.7102" lon="5.39139">
        <ele>129.80000305176</ele>
        <time>2022-01-16T09:10:18.000Z</time>
      </trkpt>
      <trkpt lat="50.70972" lon="5.3912">
        <ele>131</ele>
        <time>2022-01-16T09:10:11.000Z</time>
      </trkpt>
      <trkpt lat="50.70932" lon="5.39104">
        <ele>131.60000610352</ele>
        <time>2022-01-16T09:10:05.000Z</time>
      </trkpt>
      <trkpt lat="50.70926" lon="5.39101">
        <ele>131.80000305176</ele>
        <time>2022-01-16T09:10:04.000Z</time>
      </trkpt>
      <trkpt lat="50.70884" lon="5.39069">
        <ele>132</ele>
        <time>2022-01-16T09:09:57.000Z</time>
      </trkpt>
      <trkpt lat="50.70862" lon="5.39046">
        <ele>132.19999694824</ele>
        <time>2022-01-16T09:09:53.000Z</time>
      </trkpt>
      <trkpt lat="50.70842" lon="5.39022">
        <ele>132.19999694824</ele>
        <time>2022-01-16T09:09:49.000Z</time>
      </trkpt>
      <trkpt lat="50.70795" lon="5.38973">
        <ele>132</ele>
        <time>2022-01-16T09:09:40.000Z</time>
      </trkpt>
      <trkpt lat="50.7076" lon="5.3894">
        <ele>130.80000305176</ele>
        <time>2022-01-16T09:09:33.000Z</time>
      </trkpt>
      <trkpt lat="50.70745" lon="5.3893">
        <ele>130</ele>
        <time>2022-01-16T09:09:30.000Z</time>
      </trkpt>
      <trkpt lat="50.70713" lon="5.38913">
        <ele>128.39999389648</ele>
        <time>2022-01-16T09:09:24.000Z</time>
      </trkpt>
      <trkpt lat="50.70703" lon="5.38908">
        <ele>128.19999694824</ele>
        <time>2022-01-16T09:09:22.000Z</time>
      </trkpt>
      <trkpt lat="50.70687" lon="5.389">
        <ele>127.80000305176</ele>
        <time>2022-01-16T09:09:19.000Z</time>
      </trkpt>
      <trkpt lat="50.70671" lon="5.38892">
        <ele>127</ele>
        <time>2022-01-16T09:09:16.000Z</time>
      </trkpt>
      <trkpt lat="50.70654" lon="5.38884">
        <ele>126.40000152588</ele>
        <time>2022-01-16T09:09:13.000Z</time>
      </trkpt>
      <trkpt lat="50.70617" lon="5.38865">
        <ele>124.59999847412</ele>
        <time>2022-01-16T09:09:06.000Z</time>
      </trkpt>
      <trkpt lat="50.70606" lon="5.3886">
        <ele>123.80000305176</ele>
        <time>2022-01-16T09:09:04.000Z</time>
      </trkpt>
      <trkpt lat="50.70594" lon="5.38855">
        <ele>123.40000152588</ele>
        <time>2022-01-16T09:09:02.000Z</time>
      </trkpt>
      <trkpt lat="50.70565" lon="5.38851">
        <ele>123.40000152588</ele>
        <time>2022-01-16T09:08:57.000Z</time>
      </trkpt>
      <trkpt lat="50.70529" lon="5.38851">
        <ele>123.19999694824</ele>
        <time>2022-01-16T09:08:51.000Z</time>
      </trkpt>
      <trkpt lat="50.70524" lon="5.38849">
        <ele>123.19999694824</ele>
        <time>2022-01-16T09:08:50.000Z</time>
      </trkpt>
      <trkpt lat="50.70513" lon="5.38842">
        <ele>123.19999694824</ele>
        <time>2022-01-16T09:08:48.000Z</time>
      </trkpt>
      <trkpt lat="50.70505" lon="5.38827">
        <ele>123.19999694824</ele>
        <time>2022-01-16T09:08:46.000Z</time>
      </trkpt>
      <trkpt lat="50.70502" lon="5.38818">
        <ele>123.19999694824</ele>
        <time>2022-01-16T09:08:45.000Z</time>
      </trkpt>
      <trkpt lat="50.70492" lon="5.38772">
        <ele>123.80000305176</ele>
        <time>2022-01-16T09:08:40.000Z</time>
      </trkpt>
      <trkpt lat="50.70484" lon="5.3876">
        <ele>123.80000305176</ele>
        <time>2022-01-16T09:08:38.000Z</time>
      </trkpt>
      <trkpt lat="50.70478" lon="5.38757">
        <ele>124</ele>
        <time>2022-01-16T09:08:37.000Z</time>
      </trkpt>
      <trkpt lat="50.70448" lon="5.38744">
        <ele>124.19999694824</ele>
        <time>2022-01-16T09:08:32.000Z</time>
      </trkpt>
      <trkpt lat="50.7043" lon="5.38733">
        <ele>124.19999694824</ele>
        <time>2022-01-16T09:08:29.000Z</time>
      </trkpt>
      <trkpt lat="50.70383" lon="5.38695">
        <ele>124.80000305176</ele>
        <time>2022-01-16T09:08:21.000Z</time>
      </trkpt>
      <trkpt lat="50.70355" lon="5.38668">
        <ele>126.40000152588</ele>
        <time>2022-01-16T09:08:16.000Z</time>
      </trkpt>
      <trkpt lat="50.70342" lon="5.38658">
        <ele>127.19999694824</ele>
        <time>2022-01-16T09:08:14.000Z</time>
      </trkpt>
      <trkpt lat="50.70317" lon="5.38637">
        <ele>128.60000610352</ele>
        <time>2022-01-16T09:08:10.000Z</time>
      </trkpt>
      <trkpt lat="50.70297" lon="5.38622">
        <ele>129</ele>
        <time>2022-01-16T09:08:07.000Z</time>
      </trkpt>
      <trkpt lat="50.70291" lon="5.38618">
        <ele>129.19999694824</ele>
        <time>2022-01-16T09:08:06.000Z</time>
      </trkpt>
      <trkpt lat="50.70278" lon="5.38608">
        <ele>129.39999389648</ele>
        <time>2022-01-16T09:08:04.000Z</time>
      </trkpt>
      <trkpt lat="50.70273" lon="5.38601">
        <ele>129.60000610352</ele>
        <time>2022-01-16T09:08:03.000Z</time>
      </trkpt>
      <trkpt lat="50.70263" lon="5.38587">
        <ele>130</ele>
        <time>2022-01-16T09:08:01.000Z</time>
      </trkpt>
      <trkpt lat="50.70254" lon="5.38573">
        <ele>130.39999389648</ele>
        <time>2022-01-16T09:07:59.000Z</time>
      </trkpt>
      <trkpt lat="50.7025" lon="5.38567">
        <ele>130.80000305176</ele>
        <time>2022-01-16T09:07:58.000Z</time>
      </trkpt>
      <trkpt lat="50.70246" lon="5.38562">
        <ele>130.60000610352</ele>
        <time>2022-01-16T09:07:57.000Z</time>
      </trkpt>
      <trkpt lat="50.70236" lon="5.38558">
        <ele>130.80000305176</ele>
        <time>2022-01-16T09:07:55.000Z</time>
      </trkpt>
      <trkpt lat="50.70226" lon="5.38565">
        <ele>130.60000610352</ele>
        <time>2022-01-16T09:07:53.000Z</time>
      </trkpt>
      <trkpt lat="50.70205" lon="5.38586">
        <ele>130.60000610352</ele>
        <time>2022-01-16T09:07:49.000Z</time>
      </trkpt>
      <trkpt lat="50.7019" lon="5.38601">
        <ele>130.19999694824</ele>
        <time>2022-01-16T09:07:46.000Z</time>
      </trkpt>
      <trkpt lat="50.70172" lon="5.38623">
        <ele>129</ele>
        <time>2022-01-16T09:07:42.000Z</time>
      </trkpt>
      <trkpt lat="50.70168" lon="5.38629">
        <ele>128.60000610352</ele>
        <time>2022-01-16T09:07:41.000Z</time>
      </trkpt>
      <trkpt lat="50.70153" lon="5.38652">
        <ele>127.19999694824</ele>
        <time>2022-01-16T09:07:37.000Z</time>
      </trkpt>
      <trkpt lat="50.70138" lon="5.38675">
        <ele>126.59999847412</ele>
        <time>2022-01-16T09:07:33.000Z</time>
      </trkpt>
      <trkpt lat="50.70134" lon="5.38681">
        <ele>126.59999847412</ele>
        <time>2022-01-16T09:07:32.000Z</time>
      </trkpt>
      <trkpt lat="50.7013" lon="5.38687">
        <ele>126.40000152588</ele>
        <time>2022-01-16T09:07:31.000Z</time>
      </trkpt>
      <trkpt lat="50.70103" lon="5.38731">
        <ele>125.59999847412</ele>
        <time>2022-01-16T09:07:24.000Z</time>
      </trkpt>
      <trkpt lat="50.70095" lon="5.38744">
        <ele>125.19999694824</ele>
        <time>2022-01-16T09:07:22.000Z</time>
      </trkpt>
      <trkpt lat="50.70075" lon="5.3878">
        <ele>125.80000305176</ele>
        <time>2022-01-16T09:07:17.000Z</time>
      </trkpt>
      <trkpt lat="50.70064" lon="5.38802">
        <ele>125.80000305176</ele>
        <time>2022-01-16T09:07:14.000Z</time>
      </trkpt>
      <trkpt lat="50.70061" lon="5.3881">
        <ele>125.59999847412</ele>
        <time>2022-01-16T09:07:13.000Z</time>
      </trkpt>
      <trkpt lat="50.70057" lon="5.38817">
        <ele>125.59999847412</ele>
        <time>2022-01-16T09:07:12.000Z</time>
      </trkpt>
      <trkpt lat="50.70047" lon="5.38839">
        <ele>126</ele>
        <time>2022-01-16T09:07:09.000Z</time>
      </trkpt>
      <trkpt lat="50.70028" lon="5.38875">
        <ele>126.80000305176</ele>
        <time>2022-01-16T09:07:04.000Z</time>
      </trkpt>
      <trkpt lat="50.70021" lon="5.38889">
        <ele>127.19999694824</ele>
        <time>2022-01-16T09:07:02.000Z</time>
      </trkpt>
      <trkpt lat="50.70013" lon="5.38908">
        <ele>128.19999694824</ele>
        <time>2022-01-16T09:06:59.000Z</time>
      </trkpt>
      <trkpt lat="50.70003" lon="5.38929">
        <ele>129</ele>
        <time>2022-01-16T09:06:56.000Z</time>
      </trkpt>
      <trkpt lat="50.69991" lon="5.38953">
        <ele>129.19999694824</ele>
        <time>2022-01-16T09:06:53.000Z</time>
      </trkpt>
      <trkpt lat="50.69986" lon="5.38962">
        <ele>129.60000610352</ele>
        <time>2022-01-16T09:06:52.000Z</time>
      </trkpt>
      <trkpt lat="50.69977" lon="5.38978">
        <ele>129.60000610352</ele>
        <time>2022-01-16T09:06:50.000Z</time>
      </trkpt>
      <trkpt lat="50.69968" lon="5.38993">
        <ele>129.60000610352</ele>
        <time>2022-01-16T09:06:48.000Z</time>
      </trkpt>
      <trkpt lat="50.69964" lon="5.39">
        <ele>129.60000610352</ele>
        <time>2022-01-16T09:06:47.000Z</time>
      </trkpt>
      <trkpt lat="50.69953" lon="5.39011">
        <ele>129.80000305176</ele>
        <time>2022-01-16T09:06:45.000Z</time>
      </trkpt>
      <trkpt lat="50.69944" lon="5.39022">
        <ele>129.80000305176</ele>
        <time>2022-01-16T09:06:43.000Z</time>
      </trkpt>
      <trkpt lat="50.69938" lon="5.39036">
        <ele>129.80000305176</ele>
        <time>2022-01-16T09:06:41.000Z</time>
      </trkpt>
      <trkpt lat="50.69935" lon="5.39053">
        <ele>130</ele>
        <time>2022-01-16T09:06:39.000Z</time>
      </trkpt>
      <trkpt lat="50.69929" lon="5.39089">
        <ele>130</ele>
        <time>2022-01-16T09:06:35.000Z</time>
      </trkpt>
      <trkpt lat="50.69927" lon="5.39098">
        <ele>130</ele>
        <time>2022-01-16T09:06:34.000Z</time>
      </trkpt>
      <trkpt lat="50.69921" lon="5.39115">
        <ele>130.19999694824</ele>
        <time>2022-01-16T09:06:32.000Z</time>
      </trkpt>
      <trkpt lat="50.69907" lon="5.39148">
        <ele>130.80000305176</ele>
        <time>2022-01-16T09:06:28.000Z</time>
      </trkpt>
      <trkpt lat="50.69903" lon="5.39156">
        <ele>131.19999694824</ele>
        <time>2022-01-16T09:06:27.000Z</time>
      </trkpt>
      <trkpt lat="50.69872" lon="5.39229">
        <ele>133.60000610352</ele>
        <time>2022-01-16T09:06:19.000Z</time>
      </trkpt>
      <trkpt lat="50.69868" lon="5.39238">
        <ele>133.39999389648</ele>
        <time>2022-01-16T09:06:18.000Z</time>
      </trkpt>
      <trkpt lat="50.69864" lon="5.39247">
        <ele>133.39999389648</ele>
        <time>2022-01-16T09:06:17.000Z</time>
      </trkpt>
      <trkpt lat="50.69851" lon="5.39285">
        <ele>133.39999389648</ele>
        <time>2022-01-16T09:06:13.000Z</time>
      </trkpt>
      <trkpt lat="50.69842" lon="5.39311">
        <ele>133</ele>
        <time>2022-01-16T09:06:10.000Z</time>
      </trkpt>
      <trkpt lat="50.69831" lon="5.39344">
        <ele>132</ele>
        <time>2022-01-16T09:06:06.000Z</time>
      </trkpt>
      <trkpt lat="50.69818" lon="5.39382">
        <ele>131.19999694824</ele>
        <time>2022-01-16T09:06:01.000Z</time>
      </trkpt>
      <trkpt lat="50.69815" lon="5.39389">
        <ele>131.19999694824</ele>
        <time>2022-01-16T09:06:00.000Z</time>
      </trkpt>
      <trkpt lat="50.69801" lon="5.39424">
        <ele>130</ele>
        <time>2022-01-16T09:05:55.000Z</time>
      </trkpt>
      <trkpt lat="50.69794" lon="5.39438">
        <ele>129.80000305176</ele>
        <time>2022-01-16T09:05:53.000Z</time>
      </trkpt>
      <trkpt lat="50.69777" lon="5.39473">
        <ele>129</ele>
        <time>2022-01-16T09:05:48.000Z</time>
      </trkpt>
      <trkpt lat="50.6976" lon="5.39509">
        <ele>128.60000610352</ele>
        <time>2022-01-16T09:05:43.000Z</time>
      </trkpt>
      <trkpt lat="50.69751" lon="5.39531">
        <ele>128</ele>
        <time>2022-01-16T09:05:40.000Z</time>
      </trkpt>
      <trkpt lat="50.69743" lon="5.39554">
        <ele>127.19999694824</ele>
        <time>2022-01-16T09:05:37.000Z</time>
      </trkpt>
      <trkpt lat="50.69735" lon="5.39606">
        <ele>126.80000305176</ele>
        <time>2022-01-16T09:05:31.000Z</time>
      </trkpt>
      <trkpt lat="50.69732" lon="5.39641">
        <ele>126.59999847412</ele>
        <time>2022-01-16T09:05:27.000Z</time>
      </trkpt>
      <trkpt lat="50.69729" lon="5.39668">
        <ele>126.40000152588</ele>
        <time>2022-01-16T09:05:24.000Z</time>
      </trkpt>
      <trkpt lat="50.69724" lon="5.3973">
        <ele>126.19999694824</ele>
        <time>2022-01-16T09:05:17.000Z</time>
      </trkpt>
      <trkpt lat="50.69724" lon="5.39739">
        <ele>126.40000152588</ele>
        <time>2022-01-16T09:05:16.000Z</time>
      </trkpt>
      <trkpt lat="50.69722" lon="5.39784">
        <ele>125.80000305176</ele>
        <time>2022-01-16T09:05:11.000Z</time>
      </trkpt>
      <trkpt lat="50.69722" lon="5.39802">
        <ele>125.59999847412</ele>
        <time>2022-01-16T09:05:09.000Z</time>
      </trkpt>
      <trkpt lat="50.69724" lon="5.39876">
        <ele>125.59999847412</ele>
        <time>2022-01-16T09:05:01.000Z</time>
      </trkpt>
      <trkpt lat="50.6972" lon="5.39922">
        <ele>125.40000152588</ele>
        <time>2022-01-16T09:04:56.000Z</time>
      </trkpt>
      <trkpt lat="50.69703" lon="5.39971">
        <ele>125</ele>
        <time>2022-01-16T09:04:50.000Z</time>
      </trkpt>
      <trkpt lat="50.69693" lon="5.39999">
        <ele>124.80000305176</ele>
        <time>2022-01-16T09:04:46.000Z</time>
      </trkpt>
      <trkpt lat="50.69692" lon="5.40013">
        <ele>124.80000305176</ele>
        <time>2022-01-16T09:04:44.000Z</time>
      </trkpt>
      <trkpt lat="50.69694" lon="5.4002">
        <ele>124.80000305176</ele>
        <time>2022-01-16T09:04:43.000Z</time>
      </trkpt>
      <trkpt lat="50.69697" lon="5.40024">
        <ele>124.80000305176</ele>
        <time>2022-01-16T09:04:42.000Z</time>
      </trkpt>
      <trkpt lat="50.69734" lon="5.40047">
        <ele>125.80000305176</ele>
        <time>2022-01-16T09:04:34.000Z</time>
      </trkpt>
      <trkpt lat="50.69755" lon="5.40059">
        <ele>126</ele>
        <time>2022-01-16T09:04:29.000Z</time>
      </trkpt>
      <trkpt lat="50.69762" lon="5.40068">
        <ele>125.80000305176</ele>
        <time>2022-01-16T09:04:26.000Z</time>
      </trkpt>
      <trkpt lat="50.69761" lon="5.40074">
        <ele>125.40000152588</ele>
        <time>2022-01-16T09:04:15.000Z</time>
      </trkpt>
      <trkpt lat="50.6976" lon="5.40078">
        <ele>125.40000152588</ele>
        <time>2022-01-16T09:04:12.000Z</time>
      </trkpt>
      <trkpt lat="50.69753" lon="5.40096">
        <ele>125.80000305176</ele>
        <time>2022-01-16T09:04:08.000Z</time>
      </trkpt>
      <trkpt lat="50.69735" lon="5.40151">
        <ele>126.19999694824</ele>
        <time>2022-01-16T09:04:01.000Z</time>
      </trkpt>
      <trkpt lat="50.69726" lon="5.40176">
        <ele>126.19999694824</ele>
        <time>2022-01-16T09:03:58.000Z</time>
      </trkpt>
      <trkpt lat="50.69717" lon="5.40191">
        <ele>126</ele>
        <time>2022-01-16T09:03:56.000Z</time>
      </trkpt>
      <trkpt lat="50.69707" lon="5.40204">
        <ele>125.80000305176</ele>
        <time>2022-01-16T09:03:54.000Z</time>
      </trkpt>
      <trkpt lat="50.69685" lon="5.4022">
        <ele>125.19999694824</ele>
        <time>2022-01-16T09:03:50.000Z</time>
      </trkpt>
      <trkpt lat="50.69663" lon="5.40233">
        <ele>124.40000152588</ele>
        <time>2022-01-16T09:03:46.000Z</time>
      </trkpt>
      <trkpt lat="50.69646" lon="5.40244">
        <ele>124.19999694824</ele>
        <time>2022-01-16T09:03:43.000Z</time>
      </trkpt>
      <trkpt lat="50.69626" lon="5.40266">
        <ele>124</ele>
        <time>2022-01-16T09:03:39.000Z</time>
      </trkpt>
      <trkpt lat="50.69613" lon="5.40285">
        <ele>124.19999694824</ele>
        <time>2022-01-16T09:03:36.000Z</time>
      </trkpt>
      <trkpt lat="50.69584" lon="5.40337">
        <ele>124.40000152588</ele>
        <time>2022-01-16T09:03:29.000Z</time>
      </trkpt>
      <trkpt lat="50.69558" lon="5.40403">
        <ele>125.19999694824</ele>
        <time>2022-01-16T09:03:21.000Z</time>
      </trkpt>
      <trkpt lat="50.69551" lon="5.40418">
        <ele>125.59999847412</ele>
        <time>2022-01-16T09:03:19.000Z</time>
      </trkpt>
      <trkpt lat="50.69525" lon="5.40467">
        <ele>126</ele>
        <time>2022-01-16T09:03:12.000Z</time>
      </trkpt>
      <trkpt lat="50.69514" lon="5.40487">
        <ele>126</ele>
        <time>2022-01-16T09:03:09.000Z</time>
      </trkpt>
      <trkpt lat="50.69504" lon="5.40504">
        <ele>126</ele>
        <time>2022-01-16T09:03:06.000Z</time>
      </trkpt>
      <trkpt lat="50.69498" lon="5.40511">
        <ele>126</ele>
        <time>2022-01-16T09:03:04.000Z</time>
      </trkpt>
      <trkpt lat="50.69495" lon="5.40511">
        <ele>126</ele>
        <time>2022-01-16T09:03:03.000Z</time>
      </trkpt>
      <trkpt lat="50.69472" lon="5.40505">
        <ele>126</ele>
        <time>2022-01-16T09:02:58.000Z</time>
      </trkpt>
      <trkpt lat="50.69416" lon="5.4049">
        <ele>126.40000152588</ele>
        <time>2022-01-16T09:02:49.000Z</time>
      </trkpt>
      <trkpt lat="50.69358" lon="5.40469">
        <ele>127.40000152588</ele>
        <time>2022-01-16T09:02:40.000Z</time>
      </trkpt>
      <trkpt lat="50.69321" lon="5.40456">
        <ele>127.80000305176</ele>
        <time>2022-01-16T09:02:34.000Z</time>
      </trkpt>
      <trkpt lat="50.69308" lon="5.40453">
        <ele>128</ele>
        <time>2022-01-16T09:02:32.000Z</time>
      </trkpt>
      <trkpt lat="50.69274" lon="5.40449">
        <ele>128.39999389648</ele>
        <time>2022-01-16T09:02:27.000Z</time>
      </trkpt>
      <trkpt lat="50.69241" lon="5.40454">
        <ele>129.19999694824</ele>
        <time>2022-01-16T09:02:22.000Z</time>
      </trkpt>
      <trkpt lat="50.69187" lon="5.40466">
        <ele>130</ele>
        <time>2022-01-16T09:02:14.000Z</time>
      </trkpt>
      <trkpt lat="50.69147" lon="5.40474">
        <ele>132</ele>
        <time>2022-01-16T09:02:08.000Z</time>
      </trkpt>
      <trkpt lat="50.69127" lon="5.40476">
        <ele>132.39999389648</ele>
        <time>2022-01-16T09:02:05.000Z</time>
      </trkpt>
      <trkpt lat="50.69114" lon="5.40476">
        <ele>132.60000610352</ele>
        <time>2022-01-16T09:02:03.000Z</time>
      </trkpt>
      <trkpt lat="50.69093" lon="5.40473">
        <ele>132.60000610352</ele>
        <time>2022-01-16T09:02:00.000Z</time>
      </trkpt>
      <trkpt lat="50.69079" lon="5.4047">
        <ele>133</ele>
        <time>2022-01-16T09:01:58.000Z</time>
      </trkpt>
      <trkpt lat="50.69051" lon="5.40465">
        <ele>132.80000305176</ele>
        <time>2022-01-16T09:01:54.000Z</time>
      </trkpt>
      <trkpt lat="50.69038" lon="5.40459">
        <ele>133</ele>
        <time>2022-01-16T09:01:52.000Z</time>
      </trkpt>
      <trkpt lat="50.69033" lon="5.40455">
        <ele>132.80000305176</ele>
        <time>2022-01-16T09:01:51.000Z</time>
      </trkpt>
      <trkpt lat="50.68981" lon="5.40417">
        <ele>132.39999389648</ele>
        <time>2022-01-16T09:01:41.000Z</time>
      </trkpt>
      <trkpt lat="50.68976" lon="5.40412">
        <ele>132.39999389648</ele>
        <time>2022-01-16T09:01:40.000Z</time>
      </trkpt>
      <trkpt lat="50.68961" lon="5.40384">
        <ele>132.39999389648</ele>
        <time>2022-01-16T09:01:36.000Z</time>
      </trkpt>
      <trkpt lat="50.68925" lon="5.40315">
        <ele>132.39999389648</ele>
        <time>2022-01-16T09:01:27.000Z</time>
      </trkpt>
      <trkpt lat="50.6892" lon="5.40309">
        <ele>132.19999694824</ele>
        <time>2022-01-16T09:01:26.000Z</time>
      </trkpt>
      <trkpt lat="50.6887" lon="5.40264">
        <ele>131.80000305176</ele>
        <time>2022-01-16T09:01:17.000Z</time>
      </trkpt>
      <trkpt lat="50.68864" lon="5.40259">
        <ele>132</ele>
        <time>2022-01-16T09:01:16.000Z</time>
      </trkpt>
      <trkpt lat="50.68858" lon="5.40254">
        <ele>132</ele>
        <time>2022-01-16T09:01:15.000Z</time>
      </trkpt>
      <trkpt lat="50.68808" lon="5.40213">
        <ele>132.60000610352</ele>
        <time>2022-01-16T09:01:07.000Z</time>
      </trkpt>
      <trkpt lat="50.68801" lon="5.40209">
        <ele>132.80000305176</ele>
        <time>2022-01-16T09:01:06.000Z</time>
      </trkpt>
      <trkpt lat="50.68771" lon="5.40202">
        <ele>135.39999389648</ele>
        <time>2022-01-16T09:01:02.000Z</time>
      </trkpt>
      <trkpt lat="50.68756" lon="5.40208">
        <ele>136.80000305176</ele>
        <time>2022-01-16T09:01:00.000Z</time>
      </trkpt>
      <trkpt lat="50.68748" lon="5.40214">
        <ele>137.39999389648</ele>
        <time>2022-01-16T09:00:59.000Z</time>
      </trkpt>
      <trkpt lat="50.68741" lon="5.40221">
        <ele>138.39999389648</ele>
        <time>2022-01-16T09:00:58.000Z</time>
      </trkpt>
      <trkpt lat="50.68729" lon="5.4024">
        <ele>139.19999694824</ele>
        <time>2022-01-16T09:00:56.000Z</time>
      </trkpt>
      <trkpt lat="50.68724" lon="5.4025">
        <ele>139.60000610352</ele>
        <time>2022-01-16T09:00:55.000Z</time>
      </trkpt>
      <trkpt lat="50.68719" lon="5.40261">
        <ele>140</ele>
        <time>2022-01-16T09:00:54.000Z</time>
      </trkpt>
      <trkpt lat="50.68709" lon="5.40282">
        <ele>140.60000610352</ele>
        <time>2022-01-16T09:00:52.000Z</time>
      </trkpt>
      <trkpt lat="50.68699" lon="5.40304">
        <ele>141</ele>
        <time>2022-01-16T09:00:50.000Z</time>
      </trkpt>
      <trkpt lat="50.6869" lon="5.40324">
        <ele>141.19999694824</ele>
        <time>2022-01-16T09:00:48.000Z</time>
      </trkpt>
      <trkpt lat="50.68673" lon="5.4036">
        <ele>142.39999389648</ele>
        <time>2022-01-16T09:00:44.000Z</time>
      </trkpt>
      <trkpt lat="50.68657" lon="5.40395">
        <ele>142.80000305176</ele>
        <time>2022-01-16T09:00:40.000Z</time>
      </trkpt>
      <trkpt lat="50.68642" lon="5.40429">
        <ele>143.19999694824</ele>
        <time>2022-01-16T09:00:36.000Z</time>
      </trkpt>
      <trkpt lat="50.68634" lon="5.40446">
        <ele>143.19999694824</ele>
        <time>2022-01-16T09:00:34.000Z</time>
      </trkpt>
      <trkpt lat="50.6863" lon="5.40454">
        <ele>143.60000610352</ele>
        <time>2022-01-16T09:00:33.000Z</time>
      </trkpt>
      <trkpt lat="50.68596" lon="5.40529">
        <ele>145.19999694824</ele>
        <time>2022-01-16T09:00:24.000Z</time>
      </trkpt>
      <trkpt lat="50.68588" lon="5.40546">
        <ele>145.39999389648</ele>
        <time>2022-01-16T09:00:22.000Z</time>
      </trkpt>
      <trkpt lat="50.68569" lon="5.40588">
        <ele>145.60000610352</ele>
        <time>2022-01-16T09:00:17.000Z</time>
      </trkpt>
      <trkpt lat="50.68564" lon="5.40595">
        <ele>145.80000305176</ele>
        <time>2022-01-16T09:00:16.000Z</time>
      </trkpt>
      <trkpt lat="50.68538" lon="5.40624">
        <ele>146</ele>
        <time>2022-01-16T09:00:11.000Z</time>
      </trkpt>
      <trkpt lat="50.68526" lon="5.40631">
        <ele>146</ele>
        <time>2022-01-16T09:00:09.000Z</time>
      </trkpt>
      <trkpt lat="50.68501" lon="5.40637">
        <ele>146.19999694824</ele>
        <time>2022-01-16T09:00:05.000Z</time>
      </trkpt>
      <trkpt lat="50.68476" lon="5.40637">
        <ele>146.19999694824</ele>
        <time>2022-01-16T09:00:01.000Z</time>
      </trkpt>
      <trkpt lat="50.68433" lon="5.40634">
        <ele>146.39999389648</ele>
        <time>2022-01-16T08:59:54.000Z</time>
      </trkpt>
      <trkpt lat="50.68408" lon="5.40633">
        <ele>146.19999694824</ele>
        <time>2022-01-16T08:59:50.000Z</time>
      </trkpt>
      <trkpt lat="50.6835" lon="5.40631">
        <ele>146.80000305176</ele>
        <time>2022-01-16T08:59:41.000Z</time>
      </trkpt>
      <trkpt lat="50.68324" lon="5.40629">
        <ele>146.80000305176</ele>
        <time>2022-01-16T08:59:37.000Z</time>
      </trkpt>
      <trkpt lat="50.68267" lon="5.40627">
        <ele>147</ele>
        <time>2022-01-16T08:59:28.000Z</time>
      </trkpt>
      <trkpt lat="50.6821" lon="5.40625">
        <ele>146.60000610352</ele>
        <time>2022-01-16T08:59:19.000Z</time>
      </trkpt>
      <trkpt lat="50.68185" lon="5.40629">
        <ele>146.60000610352</ele>
        <time>2022-01-16T08:59:15.000Z</time>
      </trkpt>
      <trkpt lat="50.68167" lon="5.40637">
        <ele>146.80000305176</ele>
        <time>2022-01-16T08:59:12.000Z</time>
      </trkpt>
      <trkpt lat="50.68155" lon="5.40642">
        <ele>147</ele>
        <time>2022-01-16T08:59:10.000Z</time>
      </trkpt>
      <trkpt lat="50.68101" lon="5.40667">
        <ele>147</ele>
        <time>2022-01-16T08:59:01.000Z</time>
      </trkpt>
      <trkpt lat="50.68095" lon="5.40669">
        <ele>147</ele>
        <time>2022-01-16T08:59:00.000Z</time>
      </trkpt>
      <trkpt lat="50.68083" lon="5.4067">
        <ele>146.80000305176</ele>
        <time>2022-01-16T08:58:58.000Z</time>
      </trkpt>
      <trkpt lat="50.68072" lon="5.40668">
        <ele>146.39999389648</ele>
        <time>2022-01-16T08:58:56.000Z</time>
      </trkpt>
      <trkpt lat="50.68061" lon="5.40665">
        <ele>146</ele>
        <time>2022-01-16T08:58:54.000Z</time>
      </trkpt>
      <trkpt lat="50.68056" lon="5.40666">
        <ele>146</ele>
        <time>2022-01-16T08:58:53.000Z</time>
      </trkpt>
      <trkpt lat="50.68052" lon="5.4067">
        <ele>145.60000610352</ele>
        <time>2022-01-16T08:58:52.000Z</time>
      </trkpt>
      <trkpt lat="50.68042" lon="5.40689">
        <ele>145.19999694824</ele>
        <time>2022-01-16T08:58:49.000Z</time>
      </trkpt>
      <trkpt lat="50.68034" lon="5.4071">
        <ele>144.80000305176</ele>
        <time>2022-01-16T08:58:46.000Z</time>
      </trkpt>
      <trkpt lat="50.68025" lon="5.40732">
        <ele>144.39999389648</ele>
        <time>2022-01-16T08:58:43.000Z</time>
      </trkpt>
      <trkpt lat="50.6801" lon="5.40769">
        <ele>144.60000610352</ele>
        <time>2022-01-16T08:58:38.000Z</time>
      </trkpt>
      <trkpt lat="50.68007" lon="5.40776">
        <ele>144.60000610352</ele>
        <time>2022-01-16T08:58:37.000Z</time>
      </trkpt>
      <trkpt lat="50.67979" lon="5.4085">
        <ele>144.80000305176</ele>
        <time>2022-01-16T08:58:27.000Z</time>
      </trkpt>
      <trkpt lat="50.6797" lon="5.40869">
        <ele>145.39999389648</ele>
        <time>2022-01-16T08:58:24.000Z</time>
      </trkpt>
      <trkpt lat="50.67966" lon="5.40873">
        <ele>145.39999389648</ele>
        <time>2022-01-16T08:58:23.000Z</time>
      </trkpt>
      <trkpt lat="50.67962" lon="5.40876">
        <ele>145.60000610352</ele>
        <time>2022-01-16T08:58:22.000Z</time>
      </trkpt>
      <trkpt lat="50.67953" lon="5.40874">
        <ele>146.39999389648</ele>
        <time>2022-01-16T08:58:20.000Z</time>
      </trkpt>
      <trkpt lat="50.67949" lon="5.40869">
        <ele>146.39999389648</ele>
        <time>2022-01-16T08:58:19.000Z</time>
      </trkpt>
      <trkpt lat="50.67916" lon="5.4084">
        <ele>146.60000610352</ele>
        <time>2022-01-16T08:58:13.000Z</time>
      </trkpt>
      <trkpt lat="50.67905" lon="5.40829">
        <ele>146.60000610352</ele>
        <time>2022-01-16T08:58:11.000Z</time>
      </trkpt>
      <trkpt lat="50.6788" lon="5.40799">
        <ele>147.39999389648</ele>
        <time>2022-01-16T08:58:06.000Z</time>
      </trkpt>
      <trkpt lat="50.67851" lon="5.40758">
        <ele>147.80000305176</ele>
        <time>2022-01-16T08:58:00.000Z</time>
      </trkpt>
      <trkpt lat="50.6784" lon="5.40747">
        <ele>147.80000305176</ele>
        <time>2022-01-16T08:57:58.000Z</time>
      </trkpt>
      <trkpt lat="50.67797" lon="5.40721">
        <ele>148</ele>
        <time>2022-01-16T08:57:50.000Z</time>
      </trkpt>
      <trkpt lat="50.67786" lon="5.40715">
        <ele>148</ele>
        <time>2022-01-16T08:57:48.000Z</time>
      </trkpt>
      <trkpt lat="50.67757" lon="5.40699">
        <ele>148.39999389648</ele>
        <time>2022-01-16T08:57:43.000Z</time>
      </trkpt>
      <trkpt lat="50.67745" lon="5.40692">
        <ele>148.39999389648</ele>
        <time>2022-01-16T08:57:41.000Z</time>
      </trkpt>
      <trkpt lat="50.67692" lon="5.40661">
        <ele>148.39999389648</ele>
        <time>2022-01-16T08:57:32.000Z</time>
      </trkpt>
      <trkpt lat="50.6768" lon="5.40654">
        <ele>148.39999389648</ele>
        <time>2022-01-16T08:57:30.000Z</time>
      </trkpt>
      <trkpt lat="50.67628" lon="5.40624">
        <ele>148.39999389648</ele>
        <time>2022-01-16T08:57:21.000Z</time>
      </trkpt>
      <trkpt lat="50.67574" lon="5.40595">
        <ele>148</ele>
        <time>2022-01-16T08:57:12.000Z</time>
      </trkpt>
      <trkpt lat="50.67523" lon="5.40575">
        <ele>147.39999389648</ele>
        <time>2022-01-16T08:57:03.000Z</time>
      </trkpt>
      <trkpt lat="50.67517" lon="5.40574">
        <ele>147.39999389648</ele>
        <time>2022-01-16T08:57:02.000Z</time>
      </trkpt>
      <trkpt lat="50.675" lon="5.40569">
        <ele>147.39999389648</ele>
        <time>2022-01-16T08:56:59.000Z</time>
      </trkpt>
      <trkpt lat="50.67446" lon="5.40552">
        <ele>147.39999389648</ele>
        <time>2022-01-16T08:56:50.000Z</time>
      </trkpt>
      <trkpt lat="50.6744" lon="5.4055">
        <ele>147.19999694824</ele>
        <time>2022-01-16T08:56:49.000Z</time>
      </trkpt>
      <trkpt lat="50.67387" lon="5.40529">
        <ele>147.39999389648</ele>
        <time>2022-01-16T08:56:40.000Z</time>
      </trkpt>
      <trkpt lat="50.67369" lon="5.40522">
        <ele>147.60000610352</ele>
        <time>2022-01-16T08:56:37.000Z</time>
      </trkpt>
      <trkpt lat="50.67317" lon="5.40495">
        <ele>148.19999694824</ele>
        <time>2022-01-16T08:56:28.000Z</time>
      </trkpt>
      <trkpt lat="50.67274" lon="5.40461">
        <ele>148.60000610352</ele>
        <time>2022-01-16T08:56:20.000Z</time>
      </trkpt>
      <trkpt lat="50.67259" lon="5.40448">
        <ele>148.60000610352</ele>
        <time>2022-01-16T08:56:17.000Z</time>
      </trkpt>
      <trkpt lat="50.67246" lon="5.40435">
        <ele>148.80000305176</ele>
        <time>2022-01-16T08:56:14.000Z</time>
      </trkpt>
      <trkpt lat="50.67241" lon="5.4043">
        <ele>148.80000305176</ele>
        <time>2022-01-16T08:56:13.000Z</time>
      </trkpt>
      <trkpt lat="50.67201" lon="5.40392">
        <ele>148.80000305176</ele>
        <time>2022-01-16T08:56:05.000Z</time>
      </trkpt>
      <trkpt lat="50.67186" lon="5.40376">
        <ele>148.80000305176</ele>
        <time>2022-01-16T08:56:02.000Z</time>
      </trkpt>
      <trkpt lat="50.67142" lon="5.40327">
        <ele>149</ele>
        <time>2022-01-16T08:55:53.000Z</time>
      </trkpt>
      <trkpt lat="50.67127" lon="5.40311">
        <ele>149</ele>
        <time>2022-01-16T08:55:50.000Z</time>
      </trkpt>
      <trkpt lat="50.67083" lon="5.4026">
        <ele>149.19999694824</ele>
        <time>2022-01-16T08:55:41.000Z</time>
      </trkpt>
      <trkpt lat="50.67063" lon="5.40237">
        <ele>149.19999694824</ele>
        <time>2022-01-16T08:55:37.000Z</time>
      </trkpt>
      <trkpt lat="50.67018" lon="5.40184">
        <ele>149.80000305176</ele>
        <time>2022-01-16T08:55:28.000Z</time>
      </trkpt>
      <trkpt lat="50.66989" lon="5.40149">
        <ele>149.80000305176</ele>
        <time>2022-01-16T08:55:22.000Z</time>
      </trkpt>
      <trkpt lat="50.6697" lon="5.40126">
        <ele>149.80000305176</ele>
        <time>2022-01-16T08:55:18.000Z</time>
      </trkpt>
      <trkpt lat="50.66938" lon="5.40087">
        <ele>149.60000610352</ele>
        <time>2022-01-16T08:55:11.000Z</time>
      </trkpt>
      <trkpt lat="50.66934" lon="5.40081">
        <ele>149.39999389648</ele>
        <time>2022-01-16T08:55:10.000Z</time>
      </trkpt>
      <trkpt lat="50.66898" lon="5.40034">
        <ele>149.39999389648</ele>
        <time>2022-01-16T08:55:02.000Z</time>
      </trkpt>
      <trkpt lat="50.66857" lon="5.39985">
        <ele>147.60000610352</ele>
        <time>2022-01-16T08:54:53.000Z</time>
      </trkpt>
      <trkpt lat="50.66839" lon="5.39964">
        <ele>147.19999694824</ele>
        <time>2022-01-16T08:54:49.000Z</time>
      </trkpt>
      <trkpt lat="50.66819" lon="5.39946">
        <ele>146.80000305176</ele>
        <time>2022-01-16T08:54:45.000Z</time>
      </trkpt>
      <trkpt lat="50.66792" lon="5.39923">
        <ele>146.39999389648</ele>
        <time>2022-01-16T08:54:40.000Z</time>
      </trkpt>
      <trkpt lat="50.66776" lon="5.39909">
        <ele>146.39999389648</ele>
        <time>2022-01-16T08:54:37.000Z</time>
      </trkpt>
      <trkpt lat="50.66764" lon="5.39902">
        <ele>146.60000610352</ele>
        <time>2022-01-16T08:54:35.000Z</time>
      </trkpt>
      <trkpt lat="50.66718" lon="5.3989">
        <ele>148.80000305176</ele>
        <time>2022-01-16T08:54:28.000Z</time>
      </trkpt>
      <trkpt lat="50.66676" lon="5.39879">
        <ele>151</ele>
        <time>2022-01-16T08:54:22.000Z</time>
      </trkpt>
      <trkpt lat="50.66669" lon="5.39876">
        <ele>151.19999694824</ele>
        <time>2022-01-16T08:54:21.000Z</time>
      </trkpt>
      <trkpt lat="50.66662" lon="5.39874">
        <ele>151.80000305176</ele>
        <time>2022-01-16T08:54:20.000Z</time>
      </trkpt>
      <trkpt lat="50.66647" lon="5.3987">
        <ele>152</ele>
        <time>2022-01-16T08:54:18.000Z</time>
      </trkpt>
      <trkpt lat="50.66627" lon="5.39863">
        <ele>151.80000305176</ele>
        <time>2022-01-16T08:54:15.000Z</time>
      </trkpt>
      <trkpt lat="50.6662" lon="5.39861">
        <ele>151.80000305176</ele>
        <time>2022-01-16T08:54:14.000Z</time>
      </trkpt>
      <trkpt lat="50.66614" lon="5.3986">
        <ele>151.80000305176</ele>
        <time>2022-01-16T08:54:13.000Z</time>
      </trkpt>
      <trkpt lat="50.6659" lon="5.39864">
        <ele>151.80000305176</ele>
        <time>2022-01-16T08:54:09.000Z</time>
      </trkpt>
      <trkpt lat="50.66579" lon="5.39869">
        <ele>151.60000610352</ele>
        <time>2022-01-16T08:54:07.000Z</time>
      </trkpt>
      <trkpt lat="50.6657" lon="5.39877">
        <ele>151.39999389648</ele>
        <time>2022-01-16T08:54:05.000Z</time>
      </trkpt>
      <trkpt lat="50.66541" lon="5.39929">
        <ele>151.19999694824</ele>
        <time>2022-01-16T08:53:57.000Z</time>
      </trkpt>
      <trkpt lat="50.66537" lon="5.39935">
        <ele>151.19999694824</ele>
        <time>2022-01-16T08:53:56.000Z</time>
      </trkpt>
      <trkpt lat="50.66533" lon="5.3994">
        <ele>151.19999694824</ele>
        <time>2022-01-16T08:53:55.000Z</time>
      </trkpt>
      <trkpt lat="50.66528" lon="5.39943">
        <ele>151.19999694824</ele>
        <time>2022-01-16T08:53:54.000Z</time>
      </trkpt>
      <trkpt lat="50.66519" lon="5.39943">
        <ele>151.19999694824</ele>
        <time>2022-01-16T08:53:52.000Z</time>
      </trkpt>
      <trkpt lat="50.66514" lon="5.3994">
        <ele>151.39999389648</ele>
        <time>2022-01-16T08:53:51.000Z</time>
      </trkpt>
      <trkpt lat="50.6648" lon="5.39911">
        <ele>151.80000305176</ele>
        <time>2022-01-16T08:53:44.000Z</time>
      </trkpt>
      <trkpt lat="50.66475" lon="5.39907">
        <ele>152</ele>
        <time>2022-01-16T08:53:43.000Z</time>
      </trkpt>
      <trkpt lat="50.66436" lon="5.39884">
        <ele>151.80000305176</ele>
        <time>2022-01-16T08:53:36.000Z</time>
      </trkpt>
      <trkpt lat="50.66426" lon="5.39878">
        <ele>152</ele>
        <time>2022-01-16T08:53:34.000Z</time>
      </trkpt>
      <trkpt lat="50.66406" lon="5.39867">
        <ele>152</ele>
        <time>2022-01-16T08:53:30.000Z</time>
      </trkpt>
      <trkpt lat="50.66391" lon="5.3986">
        <ele>152</ele>
        <time>2022-01-16T08:53:27.000Z</time>
      </trkpt>
      <trkpt lat="50.66367" lon="5.39856">
        <ele>152.19999694824</ele>
        <time>2022-01-16T08:53:23.000Z</time>
      </trkpt>
      <trkpt lat="50.66356" lon="5.39855">
        <ele>152.60000610352</ele>
        <time>2022-01-16T08:53:21.000Z</time>
      </trkpt>
      <trkpt lat="50.66345" lon="5.39855">
        <ele>152.60000610352</ele>
        <time>2022-01-16T08:53:19.000Z</time>
      </trkpt>
      <trkpt lat="50.6634" lon="5.39856">
        <ele>152.60000610352</ele>
        <time>2022-01-16T08:53:18.000Z</time>
      </trkpt>
      <trkpt lat="50.66334" lon="5.39858">
        <ele>152.80000305176</ele>
        <time>2022-01-16T08:53:17.000Z</time>
      </trkpt>
      <trkpt lat="50.66329" lon="5.3986">
        <ele>152.80000305176</ele>
        <time>2022-01-16T08:53:16.000Z</time>
      </trkpt>
      <trkpt lat="50.66324" lon="5.39862">
        <ele>153</ele>
        <time>2022-01-16T08:53:15.000Z</time>
      </trkpt>
      <trkpt lat="50.66307" lon="5.39867">
        <ele>153.60000610352</ele>
        <time>2022-01-16T08:53:12.000Z</time>
      </trkpt>
      <trkpt lat="50.66296" lon="5.3987">
        <ele>153.80000305176</ele>
        <time>2022-01-16T08:53:10.000Z</time>
      </trkpt>
      <trkpt lat="50.66262" lon="5.39876">
        <ele>154</ele>
        <time>2022-01-16T08:53:04.000Z</time>
      </trkpt>
      <trkpt lat="50.6625" lon="5.39877">
        <ele>154.19999694824</ele>
        <time>2022-01-16T08:53:02.000Z</time>
      </trkpt>
      <trkpt lat="50.66226" lon="5.39879">
        <ele>154.39999389648</ele>
        <time>2022-01-16T08:52:58.000Z</time>
      </trkpt>
      <trkpt lat="50.66185" lon="5.39876">
        <ele>155</ele>
        <time>2022-01-16T08:52:51.000Z</time>
      </trkpt>
      <trkpt lat="50.66145" lon="5.39879">
        <ele>155.80000305176</ele>
        <time>2022-01-16T08:52:44.000Z</time>
      </trkpt>
      <trkpt lat="50.66134" lon="5.39882">
        <ele>156</ele>
        <time>2022-01-16T08:52:42.000Z</time>
      </trkpt>
      <trkpt lat="50.66088" lon="5.39894">
        <ele>156.60000610352</ele>
        <time>2022-01-16T08:52:34.000Z</time>
      </trkpt>
      <trkpt lat="50.66082" lon="5.39895">
        <ele>156.80000305176</ele>
        <time>2022-01-16T08:52:33.000Z</time>
      </trkpt>
      <trkpt lat="50.66052" lon="5.399">
        <ele>157</ele>
        <time>2022-01-16T08:52:28.000Z</time>
      </trkpt>
      <trkpt lat="50.66046" lon="5.39903">
        <ele>157.19999694824</ele>
        <time>2022-01-16T08:52:27.000Z</time>
      </trkpt>
      <trkpt lat="50.65993" lon="5.39917">
        <ele>158.39999389648</ele>
        <time>2022-01-16T08:52:18.000Z</time>
      </trkpt>
      <trkpt lat="50.65987" lon="5.39918">
        <ele>158.39999389648</ele>
        <time>2022-01-16T08:52:17.000Z</time>
      </trkpt>
      <trkpt lat="50.65944" lon="5.3993">
        <ele>159.19999694824</ele>
        <time>2022-01-16T08:52:10.000Z</time>
      </trkpt>
      <trkpt lat="50.65938" lon="5.39932">
        <ele>159.19999694824</ele>
        <time>2022-01-16T08:52:09.000Z</time>
      </trkpt>
      <trkpt lat="50.65897" lon="5.39942">
        <ele>160</ele>
        <time>2022-01-16T08:52:02.000Z</time>
      </trkpt>
      <trkpt lat="50.65844" lon="5.39951">
        <ele>161</ele>
        <time>2022-01-16T08:51:53.000Z</time>
      </trkpt>
      <trkpt lat="50.65833" lon="5.39951">
        <ele>161.19999694824</ele>
        <time>2022-01-16T08:51:51.000Z</time>
      </trkpt>
      <trkpt lat="50.65827" lon="5.39952">
        <ele>161.19999694824</ele>
        <time>2022-01-16T08:51:50.000Z</time>
      </trkpt>
      <trkpt lat="50.65821" lon="5.39954">
        <ele>161.39999389648</ele>
        <time>2022-01-16T08:51:49.000Z</time>
      </trkpt>
      <trkpt lat="50.65775" lon="5.3996">
        <ele>162.39999389648</ele>
        <time>2022-01-16T08:51:41.000Z</time>
      </trkpt>
      <trkpt lat="50.6577" lon="5.39961">
        <ele>162.39999389648</ele>
        <time>2022-01-16T08:51:40.000Z</time>
      </trkpt>
      <trkpt lat="50.65721" lon="5.39971">
        <ele>163.60000610352</ele>
        <time>2022-01-16T08:51:31.000Z</time>
      </trkpt>
      <trkpt lat="50.65711" lon="5.39972">
        <ele>163.80000305176</ele>
        <time>2022-01-16T08:51:29.000Z</time>
      </trkpt>
      <trkpt lat="50.65681" lon="5.39978">
        <ele>164.39999389648</ele>
        <time>2022-01-16T08:51:23.000Z</time>
      </trkpt>
      <trkpt lat="50.6566" lon="5.39982">
        <ele>164.60000610352</ele>
        <time>2022-01-16T08:51:18.000Z</time>
      </trkpt>
      <trkpt lat="50.65655" lon="5.39984">
        <ele>164.39999389648</ele>
        <time>2022-01-16T08:51:16.000Z</time>
      </trkpt>
      <trkpt lat="50.65651" lon="5.39985">
        <ele>164.39999389648</ele>
        <time>2022-01-16T08:51:03.000Z</time>
      </trkpt>
      <trkpt lat="50.65646" lon="5.39984">
        <ele>164.39999389648</ele>
        <time>2022-01-16T08:50:59.000Z</time>
      </trkpt>
      <trkpt lat="50.65629" lon="5.39986">
        <ele>164.60000610352</ele>
        <time>2022-01-16T08:50:55.000Z</time>
      </trkpt>
      <trkpt lat="50.65618" lon="5.39987">
        <ele>164.60000610352</ele>
        <time>2022-01-16T08:50:53.000Z</time>
      </trkpt>
      <trkpt lat="50.65565" lon="5.39994">
        <ele>165.80000305176</ele>
        <time>2022-01-16T08:50:44.000Z</time>
      </trkpt>
      <trkpt lat="50.65559" lon="5.39995">
        <ele>165.80000305176</ele>
        <time>2022-01-16T08:50:43.000Z</time>
      </trkpt>
      <trkpt lat="50.65547" lon="5.39996">
        <ele>165.60000610352</ele>
        <time>2022-01-16T08:50:41.000Z</time>
      </trkpt>
      <trkpt lat="50.65493" lon="5.40003">
        <ele>166.39999389648</ele>
        <time>2022-01-16T08:50:32.000Z</time>
      </trkpt>
      <trkpt lat="50.65456" lon="5.40011">
        <ele>166.39999389648</ele>
        <time>2022-01-16T08:50:26.000Z</time>
      </trkpt>
      <trkpt lat="50.65427" lon="5.40019">
        <ele>165.80000305176</ele>
        <time>2022-01-16T08:50:21.000Z</time>
      </trkpt>
      <trkpt lat="50.65374" lon="5.40034">
        <ele>165.60000610352</ele>
        <time>2022-01-16T08:50:12.000Z</time>
      </trkpt>
      <trkpt lat="50.65351" lon="5.40041">
        <ele>165.60000610352</ele>
        <time>2022-01-16T08:50:08.000Z</time>
      </trkpt>
      <trkpt lat="50.65334" lon="5.40046">
        <ele>165.60000610352</ele>
        <time>2022-01-16T08:50:05.000Z</time>
      </trkpt>
      <trkpt lat="50.6531" lon="5.40053">
        <ele>165.80000305176</ele>
        <time>2022-01-16T08:50:01.000Z</time>
      </trkpt>
      <trkpt lat="50.65287" lon="5.4006">
        <ele>166</ele>
        <time>2022-01-16T08:49:57.000Z</time>
      </trkpt>
      <trkpt lat="50.6527" lon="5.40066">
        <ele>166.19999694824</ele>
        <time>2022-01-16T08:49:54.000Z</time>
      </trkpt>
      <trkpt lat="50.65253" lon="5.40076">
        <ele>166.19999694824</ele>
        <time>2022-01-16T08:49:51.000Z</time>
      </trkpt>
      <trkpt lat="50.6521" lon="5.40105">
        <ele>166.19999694824</ele>
        <time>2022-01-16T08:49:43.000Z</time>
      </trkpt>
      <trkpt lat="50.65155" lon="5.40137">
        <ele>167.39999389648</ele>
        <time>2022-01-16T08:49:33.000Z</time>
      </trkpt>
      <trkpt lat="50.65115" lon="5.4016">
        <ele>167.60000610352</ele>
        <time>2022-01-16T08:49:26.000Z</time>
      </trkpt>
      <trkpt lat="50.65103" lon="5.40166">
        <ele>167.39999389648</ele>
        <time>2022-01-16T08:49:24.000Z</time>
      </trkpt>
      <trkpt lat="50.65061" lon="5.40176">
        <ele>168</ele>
        <time>2022-01-16T08:49:17.000Z</time>
      </trkpt>
      <trkpt lat="50.65049" lon="5.40178">
        <ele>168</ele>
        <time>2022-01-16T08:49:15.000Z</time>
      </trkpt>
      <trkpt lat="50.65038" lon="5.40183">
        <ele>168</ele>
        <time>2022-01-16T08:49:13.000Z</time>
      </trkpt>
      <trkpt lat="50.65027" lon="5.40191">
        <ele>168</ele>
        <time>2022-01-16T08:49:11.000Z</time>
      </trkpt>
      <trkpt lat="50.65022" lon="5.40194">
        <ele>168.19999694824</ele>
        <time>2022-01-16T08:49:10.000Z</time>
      </trkpt>
      <trkpt lat="50.6497" lon="5.40238">
        <ele>169</ele>
        <time>2022-01-16T08:49:00.000Z</time>
      </trkpt>
      <trkpt lat="50.64933" lon="5.40268">
        <ele>170</ele>
        <time>2022-01-16T08:48:53.000Z</time>
      </trkpt>
      <trkpt lat="50.64912" lon="5.40286">
        <ele>170.39999389648</ele>
        <time>2022-01-16T08:48:49.000Z</time>
      </trkpt>
      <trkpt lat="50.64895" lon="5.40299">
        <ele>170.80000305176</ele>
        <time>2022-01-16T08:48:46.000Z</time>
      </trkpt>
      <trkpt lat="50.64884" lon="5.40306">
        <ele>170.60000610352</ele>
        <time>2022-01-16T08:48:44.000Z</time>
      </trkpt>
      <trkpt lat="50.64872" lon="5.40309">
        <ele>170.60000610352</ele>
        <time>2022-01-16T08:48:42.000Z</time>
      </trkpt>
      <trkpt lat="50.6486" lon="5.40308">
        <ele>170.60000610352</ele>
        <time>2022-01-16T08:48:40.000Z</time>
      </trkpt>
      <trkpt lat="50.64804" lon="5.4028">
        <ele>171.39999389648</ele>
        <time>2022-01-16T08:48:30.000Z</time>
      </trkpt>
      <trkpt lat="50.64754" lon="5.40253">
        <ele>172</ele>
        <time>2022-01-16T08:48:21.000Z</time>
      </trkpt>
      <trkpt lat="50.64737" lon="5.40244">
        <ele>172</ele>
        <time>2022-01-16T08:48:18.000Z</time>
      </trkpt>
      <trkpt lat="50.64731" lon="5.40242">
        <ele>172</ele>
        <time>2022-01-16T08:48:17.000Z</time>
      </trkpt>
      <trkpt lat="50.64675" lon="5.40212">
        <ele>172.19999694824</ele>
        <time>2022-01-16T08:48:07.000Z</time>
      </trkpt>
      <trkpt lat="50.64628" lon="5.40188">
        <ele>172.39999389648</ele>
        <time>2022-01-16T08:47:59.000Z</time>
      </trkpt>
      <trkpt lat="50.6461" lon="5.40179">
        <ele>172.60000610352</ele>
        <time>2022-01-16T08:47:56.000Z</time>
      </trkpt>
      <trkpt lat="50.64558" lon="5.4015">
        <ele>172.80000305176</ele>
        <time>2022-01-16T08:47:47.000Z</time>
      </trkpt>
      <trkpt lat="50.64506" lon="5.40125">
        <ele>172.80000305176</ele>
        <time>2022-01-16T08:47:38.000Z</time>
      </trkpt>
      <trkpt lat="50.64459" lon="5.40101">
        <ele>172.39999389648</ele>
        <time>2022-01-16T08:47:30.000Z</time>
      </trkpt>
      <trkpt lat="50.64429" lon="5.40086">
        <ele>172.39999389648</ele>
        <time>2022-01-16T08:47:25.000Z</time>
      </trkpt>
      <trkpt lat="50.64412" lon="5.40077">
        <ele>172.39999389648</ele>
        <time>2022-01-16T08:47:22.000Z</time>
      </trkpt>
      <trkpt lat="50.64359" lon="5.4005">
        <ele>172.19999694824</ele>
        <time>2022-01-16T08:47:13.000Z</time>
      </trkpt>
      <trkpt lat="50.64336" lon="5.40038">
        <ele>172</ele>
        <time>2022-01-16T08:47:09.000Z</time>
      </trkpt>
      <trkpt lat="50.64284" lon="5.40011">
        <ele>171.60000610352</ele>
        <time>2022-01-16T08:47:00.000Z</time>
      </trkpt>
      <trkpt lat="50.64229" lon="5.39982">
        <ele>170.39999389648</ele>
        <time>2022-01-16T08:46:50.000Z</time>
      </trkpt>
      <trkpt lat="50.64217" lon="5.39976">
        <ele>170.39999389648</ele>
        <time>2022-01-16T08:46:48.000Z</time>
      </trkpt>
      <trkpt lat="50.64178" lon="5.39956">
        <ele>169.80000305176</ele>
        <time>2022-01-16T08:46:41.000Z</time>
      </trkpt>
      <trkpt lat="50.64155" lon="5.39944">
        <ele>169.60000610352</ele>
        <time>2022-01-16T08:46:37.000Z</time>
      </trkpt>
      <trkpt lat="50.64149" lon="5.39941">
        <ele>169.80000305176</ele>
        <time>2022-01-16T08:46:36.000Z</time>
      </trkpt>
      <trkpt lat="50.64094" lon="5.39912">
        <ele>169.39999389648</ele>
        <time>2022-01-16T08:46:27.000Z</time>
      </trkpt>
      <trkpt lat="50.64057" lon="5.39894">
        <ele>169</ele>
        <time>2022-01-16T08:46:21.000Z</time>
      </trkpt>
      <trkpt lat="50.64022" lon="5.39875">
        <ele>168.60000610352</ele>
        <time>2022-01-16T08:46:15.000Z</time>
      </trkpt>
      <trkpt lat="50.64016" lon="5.39872">
        <ele>168.60000610352</ele>
        <time>2022-01-16T08:46:14.000Z</time>
      </trkpt>
      <trkpt lat="50.63964" lon="5.39845">
        <ele>167.80000305176</ele>
        <time>2022-01-16T08:46:05.000Z</time>
      </trkpt>
      <trkpt lat="50.63952" lon="5.39839">
        <ele>167.60000610352</ele>
        <time>2022-01-16T08:46:03.000Z</time>
      </trkpt>
      <trkpt lat="50.63946" lon="5.39836">
        <ele>167.60000610352</ele>
        <time>2022-01-16T08:46:02.000Z</time>
      </trkpt>
      <trkpt lat="50.63893" lon="5.39809">
        <ele>166.80000305176</ele>
        <time>2022-01-16T08:45:53.000Z</time>
      </trkpt>
      <trkpt lat="50.63882" lon="5.39802">
        <ele>166.60000610352</ele>
        <time>2022-01-16T08:45:51.000Z</time>
      </trkpt>
      <trkpt lat="50.63876" lon="5.398">
        <ele>166.60000610352</ele>
        <time>2022-01-16T08:45:50.000Z</time>
      </trkpt>
      <trkpt lat="50.63819" lon="5.3977">
        <ele>165.80000305176</ele>
        <time>2022-01-16T08:45:40.000Z</time>
      </trkpt>
      <trkpt lat="50.63809" lon="5.39765">
        <ele>165.39999389648</ele>
        <time>2022-01-16T08:45:38.000Z</time>
      </trkpt>
      <trkpt lat="50.63754" lon="5.39736">
        <ele>164.39999389648</ele>
        <time>2022-01-16T08:45:28.000Z</time>
      </trkpt>
      <trkpt lat="50.637" lon="5.39707">
        <ele>163.60000610352</ele>
        <time>2022-01-16T08:45:18.000Z</time>
      </trkpt>
      <trkpt lat="50.63689" lon="5.39701">
        <ele>163.39999389648</ele>
        <time>2022-01-16T08:45:16.000Z</time>
      </trkpt>
      <trkpt lat="50.63636" lon="5.39673">
        <ele>162.19999694824</ele>
        <time>2022-01-16T08:45:06.000Z</time>
      </trkpt>
      <trkpt lat="50.63626" lon="5.39668">
        <ele>161.80000305176</ele>
        <time>2022-01-16T08:45:04.000Z</time>
      </trkpt>
      <trkpt lat="50.63591" lon="5.3965">
        <ele>161</ele>
        <time>2022-01-16T08:44:57.000Z</time>
      </trkpt>
      <trkpt lat="50.6358" lon="5.39644">
        <ele>160.60000610352</ele>
        <time>2022-01-16T08:44:55.000Z</time>
      </trkpt>
      <trkpt lat="50.63544" lon="5.39628">
        <ele>159.19999694824</ele>
        <time>2022-01-16T08:44:48.000Z</time>
      </trkpt>
      <trkpt lat="50.63533" lon="5.39625">
        <ele>165.1</ele>
        <extensions>
          <visugpx:TrkExtension xmlns:visugpx="https://www.visugpx.com/editgpx/">
            <visugpx:node>5</visugpx:node>
            </visugpx:TrkExtension>
        </extensions>
      </trkpt>
      <trkpt lat="50.63524" lon="5.39622">
        <ele>165</ele>
      </trkpt>
      <trkpt lat="50.63514" lon="5.39604">
        <ele>165</ele>
      </trkpt>
      <trkpt lat="50.63505" lon="5.39611">
        <ele>165</ele>
      </trkpt>
      <trkpt lat="50.63502" lon="5.39629">
        <ele>165</ele>
      </trkpt>
      <trkpt lat="50.634" lon="5.3977">
        <ele>163</ele>
      </trkpt>
      <trkpt lat="50.62766" lon="5.40583">
        <ele>158.4</ele>
      </trkpt>
      <trkpt lat="50.62312" lon="5.41178">
        <ele>176.8</ele>
      </trkpt>
      <trkpt lat="50.62204" lon="5.41099">
        <ele>178.7</ele>
      </trkpt>
      <trkpt lat="50.62063" lon="5.41138">
        <ele>181.7</ele>
      </trkpt>
      <trkpt lat="50.61942" lon="5.41197">
        <ele>182.1</ele>
      </trkpt>
      <trkpt lat="50.61914" lon="5.41249">
        <ele>183</ele>
      </trkpt>
      <trkpt lat="50.62021" lon="5.41563">
        <ele>185.8</ele>
      </trkpt>
      <trkpt lat="50.61921" lon="5.41688">
        <ele>187</ele>
        <extensions>
          <visugpx:TrkExtension xmlns:visugpx="https://www.visugpx.com/editgpx/">
            <visugpx:node>6</visugpx:node>
            </visugpx:TrkExtension>
        </extensions>
      </trkpt>
      <trkpt lat="50.61914" lon="5.41705">
        <ele>187</ele>
      </trkpt>
      <trkpt lat="50.61907" lon="5.41726">
        <ele>187.1</ele>
      </trkpt>
      <trkpt lat="50.61901" lon="5.41766">
        <ele>188</ele>
      </trkpt>
      <trkpt lat="50.61898" lon="5.41811">
        <ele>188</ele>
      </trkpt>
      <trkpt lat="50.6189" lon="5.41902">
        <ele>188</ele>
      </trkpt>
      <trkpt lat="50.61886" lon="5.41965">
        <ele>187.3</ele>
      </trkpt>
      <trkpt lat="50.61893" lon="5.4203">
        <ele>187.1</ele>
      </trkpt>
      <trkpt lat="50.61901" lon="5.42134">
        <ele>187.4</ele>
      </trkpt>
      <trkpt lat="50.61904" lon="5.42249">
        <ele>189.5</ele>
      </trkpt>
      <trkpt lat="50.619" lon="5.42279">
        <ele>190</ele>
      </trkpt>
      <trkpt lat="50.61883" lon="5.42318">
        <ele>190.6</ele>
      </trkpt>
      <trkpt lat="50.61827" lon="5.4245">
        <ele>193.2</ele>
      </trkpt>
      <trkpt lat="50.61814" lon="5.42487">
        <ele>192.9</ele>
      </trkpt>
      <trkpt lat="50.61811" lon="5.42506">
        <ele>192.4</ele>
      </trkpt>
      <trkpt lat="50.61807" lon="5.42542">
        <ele>191.6</ele>
      </trkpt>
      <trkpt lat="50.61807" lon="5.42567">
        <ele>190.8</ele>
      </trkpt>
      <trkpt lat="50.61812" lon="5.42596">
        <ele>190.3</ele>
      </trkpt>
      <trkpt lat="50.61818" lon="5.4263">
        <ele>188.8</ele>
      </trkpt>
      <trkpt lat="50.61817" lon="5.42669">
        <ele>187.1</ele>
      </trkpt>
      <trkpt lat="50.6181" lon="5.42716">
        <ele>185.8</ele>
      </trkpt>
      <trkpt lat="50.61801" lon="5.42753">
        <ele>185.5</ele>
      </trkpt>
      <trkpt lat="50.61793" lon="5.4278">
        <ele>185.4</ele>
      </trkpt>
      <trkpt lat="50.61772" lon="5.42834">
        <ele>188.8</ele>
      </trkpt>
      <trkpt lat="50.61767" lon="5.42855">
        <ele>189.6</ele>
      </trkpt>
      <trkpt lat="50.61767" lon="5.42864">
        <ele>189.8</ele>
        <extensions>
          <visugpx:TrkExtension xmlns:visugpx="https://www.visugpx.com/editgpx/">
            <visugpx:node>3</visugpx:node>
            </visugpx:TrkExtension>
        </extensions>
      </trkpt>
      <trkpt lat="50.61766" lon="5.42873">
        <ele>189.7</ele>
      </trkpt>
      <trkpt lat="50.61769" lon="5.4288">
        <ele>190.1</ele>
      </trkpt>
      <trkpt lat="50.61772" lon="5.4289">
        <ele>190.3</ele>
      </trkpt>
      <trkpt lat="50.61789" lon="5.42912">
        <ele>191.4</ele>
      </trkpt>
      <trkpt lat="50.61813" lon="5.42936">
        <ele>192.2</ele>
      </trkpt>
      <trkpt lat="50.61834" lon="5.42957">
        <ele>192.6</ele>
      </trkpt>
      <trkpt lat="50.61956" lon="5.43128">
        <ele>192.6</ele>
      </trkpt>
      <trkpt lat="50.61988" lon="5.43156">
        <ele>193.2</ele>
      </trkpt>
      <trkpt lat="50.6203" lon="5.4318">
        <ele>192.5</ele>
      </trkpt>
      <trkpt lat="50.62064" lon="5.4321">
        <ele>192.3</ele>
      </trkpt>
      <trkpt lat="50.62146" lon="5.43301">
        <ele>194.4</ele>
      </trkpt>
      <trkpt lat="50.6215" lon="5.43306">
        <ele>194.4</ele>
      </trkpt>
      <trkpt lat="50.62156" lon="5.43323">
        <ele>193.6</ele>
      </trkpt>
      <trkpt lat="50.62181" lon="5.43389">
        <ele>192</ele>
      </trkpt>
      <trkpt lat="50.62193" lon="5.43423">
        <ele>190.9</ele>
      </trkpt>
      <trkpt lat="50.62199" lon="5.4344">
        <ele>191.2</ele>
      </trkpt>
      <trkpt lat="50.62209" lon="5.43466">
        <ele>191.5</ele>
      </trkpt>
      <trkpt lat="50.62211" lon="5.43472">
        <ele>191.6</ele>
      </trkpt>
      <trkpt lat="50.62208" lon="5.43476">
        <ele>191.3</ele>
      </trkpt>
      <trkpt lat="50.62205" lon="5.43487">
        <ele>190.5</ele>
      </trkpt>
      <trkpt lat="50.62204" lon="5.43493">
        <ele>190.1</ele>
      </trkpt>
      <trkpt lat="50.62205" lon="5.43498">
        <ele>189.9</ele>
      </trkpt>
      <trkpt lat="50.62211" lon="5.4351">
        <ele>190</ele>
      </trkpt>
      <trkpt lat="50.62214" lon="5.43513">
        <ele>190.1</ele>
      </trkpt>
      <trkpt lat="50.62219" lon="5.43514">
        <ele>190.3</ele>
      </trkpt>
      <trkpt lat="50.62223" lon="5.43513">
        <ele>190.5</ele>
      </trkpt>
      <trkpt lat="50.62227" lon="5.4351">
        <ele>190.7</ele>
      </trkpt>
      <trkpt lat="50.62237" lon="5.43539">
        <ele>190.3</ele>
      </trkpt>
      <trkpt lat="50.6225" lon="5.4357">
        <ele>189</ele>
      </trkpt>
      <trkpt lat="50.6226" lon="5.43594">
        <ele>188.2</ele>
      </trkpt>
      <trkpt lat="50.62272" lon="5.43624">
        <ele>186.9</ele>
      </trkpt>
      <trkpt lat="50.62329" lon="5.43781">
        <ele>182.8</ele>
      </trkpt>
      <trkpt lat="50.62369" lon="5.43971">
        <ele>186</ele>
        <extensions>
          <visugpx:TrkExtension xmlns:visugpx="https://www.visugpx.com/editgpx/">
            <visugpx:node>4</visugpx:node>
            </visugpx:TrkExtension>
        </extensions>
      </trkpt>
      <trkpt lat="50.62372" lon="5.43982">
        <ele>186.1</ele>
      </trkpt>
      <trkpt lat="50.62369" lon="5.44004">
        <ele>186.3</ele>
      </trkpt>
      <trkpt lat="50.62368" lon="5.44012">
        <ele>186.2</ele>
      </trkpt>
      <trkpt lat="50.62334" lon="5.44074">
        <ele>186</ele>
      </trkpt>
      <trkpt lat="50.62311" lon="5.44117">
        <ele>186.4</ele>
      </trkpt>
      <trkpt lat="50.62303" lon="5.44149">
        <ele>186.9</ele>
      </trkpt>
      <trkpt lat="50.62306" lon="5.4419">
        <ele>187</ele>
      </trkpt>
      <trkpt lat="50.62307" lon="5.44204">
        <ele>187.4</ele>
      </trkpt>
      <trkpt lat="50.62324" lon="5.44275">
        <ele>189.2</ele>
      </trkpt>
      <trkpt lat="50.62335" lon="5.44334">
        <ele>189.1</ele>
      </trkpt>
      <trkpt lat="50.62347" lon="5.44415">
        <ele>190.4</ele>
      </trkpt>
      <trkpt lat="50.62349" lon="5.44438">
        <ele>190.6</ele>
      </trkpt>
      <trkpt lat="50.62349" lon="5.4445">
        <ele>190.8</ele>
      </trkpt>
      <trkpt lat="50.62353" lon="5.44523">
        <ele>191.7</ele>
      </trkpt>
      <trkpt lat="50.62351" lon="5.44607">
        <ele>192.4</ele>
      </trkpt>
      <trkpt lat="50.62341" lon="5.4469">
        <ele>192</ele>
      </trkpt>
      <trkpt lat="50.62334" lon="5.44765">
        <ele>191</ele>
      </trkpt>
      <trkpt lat="50.62327" lon="5.44824">
        <ele>190.9</ele>
      </trkpt>
      <trkpt lat="50.62259" lon="5.44823">
        <ele>190</ele>
        <extensions>
          <visugpx:TrkExtension xmlns:visugpx="https://www.visugpx.com/editgpx/">
            <visugpx:node>5</visugpx:node>
            </visugpx:TrkExtension>
        </extensions>
      </trkpt>
    </trkseg>
  </trk>
</gpx>